[[{"header":{"parameterUnit":"m.s-1","parameterCategory":1,"la1":30.6,"la2":28.766,"lo1":-90.7593,"lo2":-88.6598,"dx":0.0162,"dy":0.0183,"nx":116,"ny":114,"refTime":"2022-12-19T06:00:00:Z","depth":0,"parameterNumber":2,"parameterNumberName":"U-component_of_WINDS"},"data":[0.0,0.0,0.0,0.0,0.0,0.0,0.0,0.0,0.0,0.0,0.0,0.0,0.0,0.0,0.0,0.0,0.0,0.0,0.0,0.0,0.0,0.0,0.0,0.0,0.0,0.0,0.0,0.0,0.0,0.0,0.0,0.0,0.0,0.0,0.0,0.0,0.0,0.0,0.0,0.0,0.0,0.0,0.0,0.0,0.0,0.0,0.0,0.0,0.0,0.0,0.0,0.0,0.0,0.0,0.0,0.0,0.0,0.0,0.0,0.0,0.0,0.0,0.0,0.0,0.0,0.0,0.0,0.0,0.0,0.0,0.0,0.0,0.0,0.0,0.0,0.0,0.0,0.0,0.0,0.0,0.0,0.0,0.0,0.0,0.0,0.0,0.0,0.0,0.0,0.0,0.0,0.0,0.0,0.0,0.0,0.0,0.0,0.0,0.0,0.0,0.0,0.0,0.0,0.0,0.0,0.0,0.0,0.0,0.0,0.0,0.0,0.0,0.0,0.0,0.0,0.0,0.0,0.0,0.0,0.0,0.0,0.0,0.0,0.0,0.0,0.0,0.0,0.0,0.0,0.0,0.0,0.0,0.0,0.0,0.0,0.0,0.0,0.0,0.0,0.0,0.0,0.0,0.0,0.0,0.0,0.0,0.0,0.0,0.0,0.0,0.0,0.0,0.0,0.0,0.0,0.0,0.0,0.0,0.0,0.0,0.0,0.0,0.0,0.0,0.0,0.0,0.0,0.0,0.0,0.0,0.0,0.0,0.0,0.0,0.0,0.0,0.0,0.0,0.0,0.0,0.0,0.0,0.0,0.0,0.0,0.0,0.0,0.0,0.0,0.0,0.0,0.0,0.0,0.0,0.0,0.0,0.0,0.0,0.0,0.0,0.0,0.0,0.0,0.0,0.0,0.0,0.0,0.0,0.0,0.0,0.0,0.0,0.0,0.0,0.0,0.0,0.0,0.0,0.0,0.0,0.0,0.0,0.0,0.0,0.0,0.0,0.0,0.0,0.0,0.0,0.0,0.0,0.0,0.0,0.0,0.0,0.0,0.0,0.0,0.0,0.0,0.0,0.0,0.0,0.0,0.0,0.0,0.0,0.0,0.0,0.0,0.0,0.0,0.0,0.0,0.0,0.0,0.0,0.0,0.0,0.0,0.0,0.0,0.0,0.0,0.0,0.0,0.0,0.0,0.0,0.0,0.0,0.0,0.0,0.0,0.0,0.0,0.0,0.0,0.0,0.0,0.0,0.0,0.0,0.0,0.0,0.0,0.0,0.0,0.0,0.0,0.0,0.0,0.0,0.0,0.0,0.0,0.0,0.0,0.0,0.0,0.0,0.0,0.0,0.0,0.0,0.0,0.0,0.0,0.0,0.0,0.0,0.0,0.0,0.0,0.0,0.0,0.0,0.0,0.0,0.0,0.0,0.0,0.0,0.0,0.0,0.0,0.0,0.0,0.0,0.0,0.0,0.0,0.0,0.0,0.0,0.0,0.0,0.0,0.0,0.0,0.0,0.0,0.0,0.0,0.0,0.0,0.0,0.0,0.0,0.0,0.0,0.0,0.0,0.0,0.0,0.0,0.0,0.0,0.0,0.0,0.0,0.0,0.0,0.0,0.0,0.0,0.0,0.0,0.0,0.0,0.0,0.0,0.0,0.0,0.0,0.0,0.0,0.0,0.0,0.0,0.0,0.0,0.0,0.0,0.0,0.0,0.0,0.0,0.0,0.0,0.0,0.0,0.0,0.0,0.0,0.0,0.0,0.0,0.0,0.0,0.0,0.0,0.0,0.0,0.0,0.0,0.0,0.0,0.0,0.0,0.0,0.0,0.0,0.0,0.0,0.0,0.0,0.0,0.0,0.0,0.0,0.0,0.0,0.0,0.0,0.0,0.0,0.0,0.0,0.0,0.0,0.0,0.0,0.0,0.0,0.0,0.0,0.0,0.0,0.0,0.0,0.0,0.0,0.0,0.0,0.0,0.0,0.0,0.0,0.0,0.0,0.0,0.0,0.0,0.0,0.0,0.0,0.0,0.0,0.0,0.0,0.0,0.0,0.0,0.0,0.0,0.0,0.0,0.0,0.0,0.0,0.0,0.0,0.0,0.0,0.0,0.0,0.0,0.0,0.0,0.0,0.0,0.0,0.0,0.0,0.0,0.0,0.0,0.0,0.0,0.0,0.0,0.0,0.0,0.0,0.0,0.0,0.0,0.0,0.0,0.0,0.0,0.0,0.0,0.0,0.0,0.0,0.0,0.0,0.0,0.0,0.0,0.0,0.0,0.0,0.0,0.0,0.0,0.0,0.0,0.0,0.0,0.0,0.0,0.0,0.0,0.0,0.0,0.0,0.0,0.0,0.0,0.0,0.0,0.0,0.0,0.0,0.0,0.0,0.0,0.0,0.0,0.0,0.0,0.0,0.0,0.0,0.0,0.0,0.0,0.0,0.0,0.0,0.0,0.0,0.0,0.0,0.0,0.0,0.0,0.0,0.0,0.0,0.0,0.0,0.0,0.0,0.0,0.0,0.0,0.0,0.0,0.0,0.0,0.0,0.0,0.0,0.0,0.0,0.0,0.0,0.0,0.0,0.0,0.0,0.0,0.0,0.0,0.0,0.0,0.0,0.0,0.0,0.0,0.0,0.0,0.0,0.0,0.0,0.0,0.0,0.0,0.0,0.0,0.0,0.0,0.0,0.0,0.0,0.0,0.0,0.0,0.0,0.0,0.0,0.0,0.0,0.0,0.0,0.0,0.0,0.0,0.0,0.0,0.0,0.0,0.0,0.0,0.0,0.0,0.0,0.0,0.0,0.0,0.0,0.0,0.0,0.0,0.0,0.0,0.0,0.0,0.0,0.0,0.0,0.0,0.0,0.0,0.0,0.0,0.0,0.0,0.0,0.0,0.0,0.0,0.0,0.0,0.0,0.0,0.0,0.0,0.0,0.0,0.0,0.0,0.0,0.0,0.0,0.0,0.0,0.0,0.0,0.0,0.0,0.0,0.0,0.0,0.0,0.0,0.0,0.0,0.0,0.0,0.0,0.0,0.0,0.0,0.0,0.0,0.0,0.0,0.0,0.0,0.0,0.0,0.0,0.0,0.0,0.0,0.0,0.0,0.0,0.0,0.0,0.0,0.0,0.0,0.0,0.0,0.0,0.0,0.0,0.0,0.0,0.0,0.0,0.0,0.0,0.0,0.0,0.0,0.0,0.0,0.0,0.0,0.0,0.0,0.0,0.0,0.0,0.0,0.0,0.0,0.0,0.0,0.0,0.0,0.0,0.0,0.0,0.0,0.0,0.0,0.0,0.0,0.0,0.0,0.0,0.0,0.0,0.0,0.0,0.0,0.0,0.0,0.0,0.0,0.0,0.0,0.0,0.0,0.0,0.0,0.0,0.0,0.0,0.0,0.0,0.0,0.0,0.0,0.0,0.0,0.0,0.0,0.0,0.0,0.0,0.0,0.0,0.0,0.0,0.0,0.0,0.0,0.0,0.0,0.0,0.0,0.0,0.0,0.0,0.0,0.0,0.0,0.0,0.0,0.0,0.0,0.0,0.0,0.0,0.0,0.0,0.0,0.0,0.0,0.0,0.0,0.0,0.0,0.0,0.0,0.0,0.0,0.0,0.0,0.0,0.0,0.0,0.0,0.0,0.0,0.0,0.0,0.0,0.0,0.0,0.0,0.0,0.0,0.0,0.0,0.0,0.0,0.0,0.0,0.0,0.0,0.0,0.0,0.0,0.0,0.0,0.0,0.0,0.0,0.0,0.0,0.0,0.0,0.0,0.0,0.0,0.0,0.0,0.0,0.0,0.0,0.0,0.0,0.0,0.0,0.0,0.0,0.0,0.0,0.0,0.0,0.0,0.0,0.0,0.0,0.0,0.0,0.0,0.0,0.0,0.0,0.0,0.0,0.0,0.0,0.0,0.0,0.0,0.0,0.0,0.0,0.0,0.0,0.0,0.0,0.0,0.0,0.0,0.0,0.0,0.0,0.0,0.0,0.0,0.0,0.0,0.0,0.0,0.0,0.0,0.0,0.0,0.0,0.0,0.0,0.0,0.0,0.0,0.0,0.0,0.0,0.0,0.0,0.0,0.0,0.0,0.0,0.0,0.0,0.0,0.0,0.0,0.0,0.0,0.0,0.0,0.0,0.0,0.0,0.0,0.0,0.0,0.0,0.0,0.0,0.0,0.0,0.0,0.0,0.0,0.0,0.0,0.0,0.0,0.0,0.0,0.0,0.0,0.0,0.0,0.0,0.0,0.0,0.0,0.0,0.0,0.0,0.0,0.0,0.0,0.0,0.0,0.0,0.0,0.0,0.0,0.0,0.0,0.0,0.0,0.0,0.0,0.0,0.0,0.0,0.0,0.0,0.0,0.0,0.0,0.0,0.0,0.0,0.0,0.0,0.0,0.0,0.0,0.0,0.0,0.0,0.0,0.0,0.0,0.0,0.0,0.0,0.0,0.0,0.0,0.0,0.0,0.0,0.0,0.0,0.0,0.0,0.0,0.0,0.0,0.0,0.0,0.0,0.0,0.0,0.0,0.0,0.0,0.0,0.0,0.0,0.0,0.0,0.0,0.0,0.0,0.0,0.0,0.0,0.0,0.0,0.0,0.0,0.0,0.0,0.0,0.0,0.0,0.0,0.0,0.0,0.0,0.0,0.0,0.0,0.0,0.0,0.0,0.0,0.0,0.0,0.0,0.0,0.0,0.0,0.0,0.0,0.0,0.0,0.0,0.0,0.0,0.0,0.0,0.0,0.0,0.0,0.0,0.0,0.0,0.0,0.0,0.0,0.0,0.0,0.0,0.0,0.0,0.0,0.0,0.0,0.0,0.0,0.0,0.0,0.0,0.0,0.0,0.0,0.0,0.0,0.0,0.0,0.0,0.0,0.0,0.0,0.0,0.0,0.0,0.0,0.0,0.0,0.0,0.0,0.0,0.0,0.0,0.0,0.0,0.0,0.0,0.0,0.0,0.0,0.0,0.0,0.0,0.0,0.0,0.0,0.0,0.0,0.0,0.0,0.0,0.0,0.0,0.0,0.0,0.0,0.0,0.0,0.0,0.0,0.0,0.0,0.0,0.0,0.0,0.0,0.0,0.0,0.0,0.0,0.0,0.0,0.0,0.0,0.0,0.0,0.0,0.0,0.0,0.0,0.0,0.0,0.0,0.0,0.0,0.0,0.0,0.0,0.0,0.0,0.0,0.0,0.0,0.0,0.0,0.0,0.0,0.0,0.0,0.0,0.0,0.0,0.0,0.0,0.0,0.0,0.0,0.0,0.0,0.0,0.0,0.0,0.0,0.0,0.0,0.0,0.0,0.0,0.0,0.0,0.0,0.0,0.0,0.0,0.0,0.0,0.0,0.0,0.0,0.0,0.0,0.0,0.0,0.0,0.0,0.0,0.0,0.0,0.0,0.0,0.0,0.0,0.0,0.0,0.0,0.0,0.0,0.0,0.0,0.0,0.0,0.0,0.0,0.0,0.0,0.0,0.0,0.0,0.0,0.0,0.0,0.0,0.0,0.0,0.0,0.0,0.0,0.0,0.0,0.0,0.0,0.0,0.0,0.0,0.0,0.0,0.0,0.0,0.0,0.0,0.0,0.0,0.0,0.0,0.0,0.0,0.0,0.0,0.0,0.0,0.0,0.0,0.0,0.0,0.0,0.0,0.0,0.0,0.0,0.0,0.0,0.0,0.0,0.0,0.0,0.0,0.0,0.0,0.0,0.0,0.0,0.0,0.0,0.0,0.0,0.0,0.0,0.0,0.0,0.0,0.0,0.0,0.0,0.0,0.0,0.0,0.0,0.0,0.0,0.0,0.0,0.0,0.0,0.0,0.0,0.0,0.0,0.0,0.0,0.0,0.0,0.0,0.0,0.0,0.0,0.0,0.0,0.0,0.0,0.0,0.0,0.0,0.0,0.0,0.0,0.0,0.0,0.0,0.0,0.0,0.0,0.0,0.0,0.0,0.0,0.0,0.0,0.0,0.0,0.0,0.0,0.0,0.0,0.0,0.0,0.0,0.0,0.0,0.0,0.0,0.0,0.0,0.0,0.0,0.0,0.0,0.0,0.0,0.0,0.0,0.0,0.0,0.0,0.0,0.0,11.4274,0.0,0.0,0.0,0.0,0.0,0.0,0.0,0.0,0.0,0.0,0.0,0.0,0.0,0.0,0.0,0.0,0.0,0.0,0.0,0.0,0.0,0.0,0.0,0.0,8.4573,8.5046,8.6196,8.6332,0.0,0.0,0.0,0.0,0.0,0.0,0.0,0.0,0.0,8.8158,8.8497,8.8903,8.9444,9.0121,9.0121,8.9512,8.8497,0.0,0.0,0.0,0.0,0.0,0.0,0.0,0.0,0.0,0.0,0.0,0.0,0.0,0.0,0.0,0.0,0.0,0.0,0.0,0.0,0.0,0.0,0.0,0.0,0.0,0.0,0.0,0.0,0.0,0.0,0.0,0.0,0.0,0.0,0.0,0.0,0.0,0.0,0.0,0.0,0.0,0.0,0.0,0.0,0.0,0.0,0.0,0.0,0.0,0.0,0.0,0.0,0.0,0.0,0.0,0.0,0.0,0.0,0.0,0.0,0.0,0.0,0.0,0.0,0.0,0.0,0.0,0.0,0.0,0.0,0.0,11.6507,0.0,0.0,0.0,0.0,0.0,0.0,0.0,0.0,0.0,0.0,0.0,0.0,0.0,0.0,0.0,0.0,0.0,0.0,0.0,0.0,0.0,8.4437,8.5858,8.6061,8.6535,8.7414,8.7482,8.7617,8.7888,8.7753,0.0,0.0,0.0,0.0,8.8767,8.9376,9.0053,9.0797,9.0932,9.1744,9.3233,9.3842,9.3233,9.1541,9.0865,0.0,0.0,0.0,0.0,0.0,0.0,0.0,0.0,0.0,0.0,0.0,0.0,0.0,0.0,0.0,0.0,0.0,0.0,0.0,0.0,0.0,0.0,0.0,0.0,0.0,0.0,0.0,0.0,0.0,0.0,0.0,0.0,0.0,0.0,0.0,0.0,0.0,0.0,0.0,0.0,0.0,0.0,0.0,0.0,0.0,0.0,0.0,0.0,0.0,0.0,0.0,0.0,0.0,0.0,0.0,0.0,0.0,0.0,0.0,0.0,0.0,0.0,0.0,0.0,0.0,12.2732,12.3476,12.3814,12.3611,12.0567,11.9484,11.989,0.0,0.0,0.0,0.0,0.0,0.0,0.0,0.0,0.0,0.0,0.0,0.0,0.0,0.0,0.0,0.0,0.0,0.0,0.0,0.0,8.579,8.667,8.7347,8.8294,8.9647,8.9782,9.0324,9.1609,9.1068,0.0,0.0,0.0,0.0,9.1812,9.1947,9.2353,9.3165,9.3774,9.4857,9.6277,9.6413,9.6616,9.6819,9.3571,9.2083,9.1947,0.0,0.0,0.0,0.0,0.0,0.0,0.0,0.0,0.0,0.0,0.0,0.0,0.0,0.0,0.0,0.0,0.0,0.0,0.0,0.0,0.0,0.0,0.0,0.0,0.0,0.0,0.0,0.0,0.0,0.0,0.0,0.0,0.0,0.0,0.0,0.0,0.0,0.0,0.0,0.0,0.0,0.0,10.6832,0.0,0.0,0.0,0.0,0.0,0.0,0.0,0.0,0.0,0.0,0.0,0.0,0.0,0.0,11.8266,11.9214,12.0093,12.0973,12.2529,12.3273,12.3476,12.422,12.4559,12.4491,12.4017,0.0,12.3002,12.2935,0.0,0.0,0.0,0.0,0.0,0.0,0.0,0.0,0.0,0.0,0.0,0.0,0.0,0.0,0.0,0.0,0.0,0.0,0.0,0.0,0.0,8.9444,9.0594,9.2556,9.2353,9.2556,9.3639,9.303,0.0,0.0,0.0,9.3977,9.4315,9.5127,9.5736,9.6074,9.7225,9.8104,9.8781,9.966,10.0202,10.0405,9.8375,9.6277,9.4248,9.3503,0.0,0.0,0.0,0.0,0.0,0.0,0.0,0.0,0.0,0.0,0.0,0.0,0.0,0.0,0.0,0.0,0.0,0.0,0.0,0.0,0.0,0.0,0.0,0.0,0.0,0.0,0.0,0.0,0.0,0.0,0.0,0.0,0.0,0.0,0.0,0.0,0.0,0.0,0.0,10.487,10.8591,11.0892,11.3124,11.441,0.0,0.0,0.0,0.0,0.0,0.0,0.0,0.0,0.0,11.8808,11.9619,12.0093,12.0431,12.1582,12.2529,12.3273,12.4423,12.51,12.5506,12.6318,12.6385,12.5979,12.6385,12.6385,12.6115,12.5235,12.4897,12.4829,0.0,0.0,0.0,0.0,0.0,0.0,0.0,0.0,0.0,0.0,0.0,0.0,0.0,0.0,0.0,0.0,0.0,0.0,9.0865,9.2083,9.3571,9.5669,9.533,9.533,9.6074,9.5263,9.4721,9.4721,9.5804,9.648,9.6616,9.8104,9.8848,9.8848,10.0337,10.1216,10.1419,10.2705,10.3449,10.3585,10.3043,10.0675,9.7157,9.6413,9.5669,9.4992,0.0,0.0,0.0,0.0,0.0,0.0,0.0,0.0,0.0,0.0,0.0,0.0,0.0,0.0,0.0,0.0,0.0,0.0,0.0,0.0,0.0,0.0,0.0,0.0,0.0,0.0,0.0,0.0,0.0,0.0,0.0,0.0,0.0,0.0,0.0,0.0,0.0,10.7982,0.0,11.441,11.6507,11.7793,0.0,0.0,0.0,0.0,0.0,0.0,0.0,11.9619,12.0364,12.1649,12.2393,12.2799,12.2799,12.3882,12.4694,12.5303,12.6115,12.6791,12.7265,12.8009,12.8077,12.7603,12.8144,12.8415,12.828,12.6994,12.6588,12.6724,12.5912,12.4897,0.0,12.3679,12.3273,12.3002,0.0,0.0,0.0,0.0,0.0,0.0,0.0,0.0,0.0,0.0,0.0,9.0932,9.3165,9.533,9.7225,9.8713,9.8848,9.9119,9.9931,9.8578,9.7766,9.7766,9.7834,9.824,9.8916,10.0405,10.1216,10.1216,10.2705,10.3787,10.4464,10.5276,10.602,10.6697,10.6629,10.4599,10.1081,10.0269,9.9525,9.8781,9.8781,0.0,0.0,0.0,0.0,0.0,0.0,0.0,0.0,0.0,0.0,0.0,0.0,0.0,0.0,0.0,0.0,0.0,0.0,0.0,0.0,0.0,0.0,0.0,0.0,0.0,0.0,0.0,0.0,0.0,0.0,0.0,0.0,0.0,0.0,0.0,0.0,0.0,0.0,11.7522,11.9214,0.0,0.0,0.0,0.0,0.0,12.0296,12.1379,12.219,12.3611,12.4761,12.5573,12.6318,12.6724,12.6724,12.6791,12.6791,12.6859,12.7603,12.8009,12.8077,12.8821,12.9092,12.9092,12.9092,12.9092,12.9092,12.8347,12.8415,12.9024,12.8212,12.7941,12.7738,12.6994,12.6791,12.6724,0.0,0.0,0.0,8.464,8.5046,8.5452,8.5723,8.7008,8.8361,8.9647,9.1744,9.3977,9.621,9.7969,9.9863,10.1825,10.1622,10.1419,10.169,10.1216,10.0675,10.0202,10.1081,10.1893,10.2705,10.372,10.4193,10.4193,10.6223,10.7306,10.7576,10.8794,10.9538,10.9809,10.9809,10.9065,10.7712,10.5005,10.3111,10.1961,10.1961,10.1284,0.0,0.0,0.0,0.0,0.0,0.0,0.0,0.0,0.0,0.0,0.0,0.0,0.0,0.0,0.0,0.0,0.0,0.0,0.0,0.0,0.0,0.0,0.0,0.0,0.0,0.0,0.0,0.0,0.0,0.0,0.0,0.0,0.0,0.0,0.0,0.0,0.0,11.9822,12.1108,0.0,0.0,12.2393,12.2326,12.2123,12.2529,12.3408,12.4626,12.5167,12.5776,12.6588,12.6859,12.6994,12.6994,12.6994,12.7197,12.7738,12.8009,12.8347,12.8821,12.9092,12.9227,12.9227,12.9227,12.9227,12.9227,12.8889,12.9024,12.9227,12.8889,12.855,12.8144,12.828,12.8077,12.7806,0.0,8.5249,0.0,8.5046,8.5655,8.6264,8.6467,8.7955,8.9512,9.0797,9.3368,9.6007,9.851,10.0337,10.2164,10.4193,10.3923,10.3585,10.3585,10.3382,10.3111,10.2908,10.4058,10.487,10.5411,10.6426,10.69,10.69,10.92,11.0418,11.0689,11.1906,11.2583,11.2921,11.2921,11.2921,11.2718,11.0012,10.7712,10.5817,10.5614,10.4599,10.3111,0.0,0.0,0.0,0.0,0.0,0.0,0.0,0.0,0.0,0.0,0.0,0.0,0.0,0.0,0.0,0.0,0.0,0.0,0.0,0.0,0.0,0.0,0.0,0.0,0.0,0.0,0.0,0.0,0.0,0.0,0.0,0.0,0.0,0.0,0.0,11.8131,12.104,12.2055,12.2799,12.3544,12.3814,12.4017,12.4017,12.4491,12.5303,12.6588,12.6588,12.6994,12.7671,12.7738,12.7738,12.7738,12.7738,12.8009,12.8483,12.8483,12.8686,12.9227,12.9227,12.9227,12.9227,12.8889,12.8821,12.8821,12.8618,12.8483,12.8483,12.9024,12.8889,12.855,12.9024,12.8889,12.8483,8.6129,8.6399,8.667,8.5926,8.6467,8.7211,8.7888,8.87,8.9985,9.2218,9.4518,9.7022,9.9999,10.2299,10.4261,10.5682,10.5817,10.5817,10.5817,10.5208,10.5073,10.5885,10.6629,10.6967,10.6967,10.8456,10.9268,10.9268,11.1501,11.2989,11.3733,11.4477,11.5222,11.5898,11.5898,11.5898,11.5831,11.5086,11.3192,11.0486,10.9606,10.8321,10.6764,0.0,0.0,0.0,0.0,0.0,0.0,0.0,0.0,0.0,0.0,0.0,0.0,0.0,0.0,0.0,0.0,0.0,0.0,0.0,0.0,0.0,0.0,0.0,0.0,0.0,0.0,0.0,0.0,0.0,0.0,0.0,0.0,0.0,11.5019,11.7387,11.9822,12.1311,12.2123,12.2867,12.3611,12.4288,12.4829,12.4829,12.6182,12.74,12.8144,12.8144,12.8483,12.9227,12.9227,12.9227,12.9227,12.9227,12.9227,12.9227,12.9227,12.9227,12.9227,12.9227,12.9159,12.9092,12.8415,12.8077,12.8009,12.7265,12.6994,12.713,12.8618,12.9092,12.9092,12.9092,12.9092,12.9092,8.6805,8.6738,8.6873,8.6602,8.7211,8.7955,8.87,9.0324,9.2286,9.4586,9.7292,9.9931,10.2367,10.4193,10.5614,10.6494,10.6629,10.6629,10.6629,10.69,10.7441,10.8185,10.8997,10.9403,10.9403,11.0824,11.1839,11.238,11.4072,11.5289,11.6034,11.6778,11.7319,11.7522,11.7522,11.7522,11.7522,11.7319,11.671,11.5695,11.2177,10.9877,10.8456,0.0,0.0,0.0,0.0,0.0,0.0,0.0,0.0,0.0,0.0,0.0,0.0,0.0,0.0,0.0,0.0,0.0,0.0,0.0,0.0,0.0,0.0,0.0,0.0,0.0,0.0,0.0,0.0,0.0,0.0,0.0,0.0,11.7793,11.7928,11.9619,12.1311,12.2799,12.3611,12.4423,12.5235,12.5912,12.6588,12.713,12.7603,12.8144,12.8889,12.8889,12.9024,12.9227,12.9227,12.9227,12.9227,12.9227,12.9227,12.9227,12.9227,12.8889,12.8415,12.8415,12.8077,12.7603,12.74,12.7265,12.7265,12.7062,12.6994,12.6994,12.74,12.7603,12.7603,12.7603,12.7941,12.8415,8.7482,8.7617,8.7753,8.7414,8.7955,8.87,8.9444,9.1203,9.3233,9.5466,9.8375,10.1081,10.3382,10.4938,10.6088,10.6832,10.717,10.7373,10.7373,10.8388,10.9335,11.008,0.0,11.1365,11.1703,11.3124,11.4072,11.4545,11.6034,11.7319,11.8334,11.8808,11.9417,11.989,11.989,11.989,11.989,11.9619,11.9281,11.874,11.5492,11.3124,11.1365,11.0621,10.9674,10.8794,10.8794,10.8794,10.8794,10.8794,0.0,0.0,0.0,0.0,0.0,0.0,0.0,0.0,0.0,0.0,0.0,0.0,0.0,0.0,0.0,0.0,0.0,0.0,0.0,0.0,0.0,0.0,0.0,0.0,11.7996,12.0296,12.1379,12.219,12.307,12.4017,12.5032,12.5776,12.6318,12.6994,12.7603,12.8077,12.8415,12.8686,12.9227,12.8889,12.8686,12.8686,12.8415,12.828,12.828,12.828,12.828,12.828,12.828,12.8077,12.7603,12.7603,12.74,0.0,12.6656,12.6521,12.6521,12.6182,12.5979,0.0,0.0,0.0,0.0,0.0,12.7265,12.7603,8.8294,8.8632,8.8903,8.8226,8.8632,8.9376,9.0188,9.1609,9.3368,9.5736,9.8578,10.1216,10.3517,10.5005,10.6088,10.6832,10.7576,10.8118,10.8253,10.9606,11.0824,11.1501,11.2312,11.3057,11.3801,11.5289,11.6101,11.6237,11.759,11.9078,12.0431,12.0499,12.1176,12.2461,12.2461,12.2461,12.2461,12.1785,12.1108,12.0431,11.9078,11.7116,11.4883,11.4139,11.2989,11.1906,11.1771,11.1771,11.1771,11.1703,0.0,0.0,0.0,0.0,0.0,0.0,0.0,0.0,0.0,0.0,0.0,0.0,0.0,0.0,0.0,0.0,0.0,0.0,0.0,0.0,0.0,0.0,0.0,0.0,12.077,12.307,12.4626,12.4964,12.51,12.4964,12.6182,12.713,12.713,12.7738,12.8144,12.8144,12.8618,12.8956,0.0,0.0,0.0,0.0,0.0,12.6994,12.6994,12.6994,12.6994,12.6994,12.6994,12.6994,12.6859,12.6859,12.6791,12.6724,12.6047,12.5776,12.5709,12.5032,12.4694,12.4829,12.6182,12.6724,12.6791,12.6791,12.6859,0.0,8.9038,8.897,8.9038,8.8903,8.897,8.9512,9.0865,9.2353,9.4383,9.7225,9.966,10.1961,10.4193,10.5276,10.6088,10.6832,10.7576,10.8524,10.9809,11.0689,11.1501,11.2245,11.3598,11.4613,11.5425,11.6913,11.7928,11.8537,11.9417,12.0296,12.1176,12.1785,12.219,12.2461,12.2461,12.2461,12.2461,12.2326,12.219,12.1988,12.1785,11.9619,11.6372,11.5695,11.5222,11.4883,11.4274,11.4072,11.4004,11.3395,11.3192,11.3395,11.4748,11.5222,0.0,0.0,0.0,0.0,0.0,0.0,0.0,0.0,0.0,0.0,0.0,0.0,0.0,0.0,0.0,0.0,0.0,0.0,0.0,11.9619,12.192,12.3882,12.5506,12.6724,12.7197,12.6588,12.7332,12.7874,12.7874,12.8009,12.8144,12.8144,12.7671,12.74,12.74,12.7265,0.0,12.7197,12.7062,12.6994,12.6994,12.6994,12.6994,12.6994,0.0,0.0,12.6115,12.6115,12.5776,12.51,12.5032,12.4897,12.4897,12.4761,12.4694,12.4694,12.5032,12.51,12.5235,12.5912,12.6115,12.6182,8.9241,8.9106,8.9106,8.9106,8.9106,8.9579,9.1068,9.2624,9.4518,9.7089,9.9728,10.2096,10.3923,10.5141,10.6088,10.6832,10.7915,10.92,11.0756,11.1162,11.1906,11.2989,11.4072,11.5222,11.6304,11.786,11.9011,11.9755,12.0499,12.1379,12.2529,12.2935,12.3205,12.3611,12.3611,12.3611,12.3611,12.3611,12.3408,12.307,12.307,12.1717,11.9619,11.8537,11.759,11.6913,11.6507,11.6372,11.6304,11.5966,11.5898,11.6034,11.7184,11.7251,11.7116,0.0,0.0,0.0,0.0,0.0,0.0,0.0,0.0,0.0,0.0,0.0,0.0,0.0,0.0,11.8199,0.0,0.0,12.077,12.2258,12.4085,12.5844,12.7332,12.8212,12.8415,12.7603,12.8212,12.8483,12.8144,12.8144,12.7941,12.7603,12.7197,12.6994,12.6994,12.6656,12.6385,12.6385,12.6115,12.5776,12.5776,12.5776,12.5776,12.5776,12.5776,12.5709,12.5303,12.5303,12.51,12.4694,12.4694,12.4694,12.4694,12.4694,12.4694,12.4694,12.4694,12.4694,12.4694,12.5167,12.5303,12.537,8.9444,8.9173,8.9106,8.9106,8.9106,8.9512,9.0865,9.2353,9.418,9.6345,9.9051,10.1419,10.3179,10.4599,10.5885,10.717,10.8456,10.9809,0.0,11.1365,11.2109,11.353,11.441,11.5628,11.7116,11.8605,11.9687,12.0296,12.1176,12.219,12.3408,12.3679,12.4085,12.4694,12.4694,12.4694,12.4694,12.4694,12.4423,12.3814,12.3814,12.3408,12.2596,12.1243,11.989,11.874,11.8402,11.8334,11.8266,11.8131,11.8131,11.8199,11.9011,11.8808,11.8402,11.8875,11.7116,0.0,0.0,0.0,0.0,0.0,0.0,0.0,0.0,0.0,12.0025,12.0634,12.0973,12.1311,12.192,12.2664,12.3611,12.4897,12.6385,12.7874,12.9227,12.943,12.9092,12.8415,12.8686,12.8821,12.8212,12.7806,12.74,12.6588,12.6385,12.6318,12.6318,12.5776,12.5506,12.5709,12.5032,12.4694,12.4694,12.4694,12.4694,12.4694,12.4694,12.4694,12.4694,12.4694,12.4694,12.4694,12.4694,12.4694,12.4694,12.4694,12.4694,12.4694,12.4694,12.4694,12.4694,12.4694,12.4694,12.4694,9.0256,8.9512,8.9106,8.9106,8.9106,8.9376,9.0188,9.1609,9.3368,9.5601,9.736,9.9457,10.2299,10.3382,10.5208,10.8591,10.9065,10.9809,11.1298,11.1365,11.2109,11.353,11.4951,11.644,11.7928,11.9417,12.0161,12.0296,12.1717,12.2461,12.2664,12.4017,12.4626,12.4694,12.4694,12.4694,12.4694,12.4694,12.4694,12.4626,12.4626,12.4085,12.3408,12.2596,12.1717,12.0905,11.9484,11.9078,11.9011,11.8334,11.8131,11.8199,11.9011,11.9078,11.9011,11.8402,11.6981,11.5222,11.3192,11.2515,11.2651,11.4072,11.6169,11.7928,0.0,0.0,12.219,12.219,12.3273,12.422,12.4288,12.4964,12.5776,12.6588,12.8009,12.9227,13.0106,13.0174,12.9904,12.9227,12.8618,12.8212,12.8144,12.6927,12.5776,12.5032,12.4423,12.4017,12.4017,12.3882,12.422,12.4829,12.4694,12.4694,12.4694,12.4694,12.4694,12.4694,12.4694,12.4694,12.4694,12.4694,12.4694,12.4694,12.4694,12.4694,12.4694,12.4694,12.4694,12.4694,12.4694,12.4694,12.4694,12.4694,12.4694,12.4829,9.0459,8.9985,8.9579,8.9173,8.9106,8.9309,9.0121,9.1474,9.2895,9.4315,9.6548,9.8645,10.0337,10.2705,10.5208,10.7576,10.8659,10.9606,11.0689,11.1162,11.2109,11.353,11.4613,11.6101,11.8131,11.9078,12.0093,12.0905,12.1582,12.2326,12.3205,12.3814,12.4288,12.4694,12.4694,12.4694,12.4694,12.4694,12.4694,12.4694,12.4694,12.4288,12.3544,12.2799,12.2326,12.192,12.0905,12.077,0.0,12.077,12.0702,12.0702,12.0973,12.0499,11.9755,11.9484,11.7725,11.5492,11.4072,11.4072,11.4816,11.6304,11.8402,12.0228,12.1108,12.2596,12.4017,12.4897,12.5573,12.6182,12.6588,12.7332,12.8077,0.0,12.9768,13.058,13.0918,13.058,12.9971,12.9295,12.8212,12.7332,12.6927,12.5844,12.4897,12.4085,12.3814,12.3611,12.3611,12.4017,12.4423,12.4694,12.4694,12.4694,12.4694,12.4694,12.4694,12.4694,12.4694,12.4694,12.4694,12.4694,12.4694,12.4694,12.4694,12.4694,12.4694,12.4694,12.4694,12.4694,12.4694,12.4694,12.4694,12.4694,12.4694,12.4694,9.1,9.0459,9.0053,8.9512,8.9241,8.9241,8.985,9.1135,9.2421,9.3165,9.5533,9.7631,9.8916,10.2096,10.4802,10.6494,10.7779,10.8997,10.9877,11.0689,11.1703,11.2921,11.4072,11.556,11.7387,11.8402,11.9484,12.077,12.0973,12.1717,12.3002,12.3408,12.3882,12.4423,12.4626,12.4694,12.4694,12.4694,12.4626,12.4423,12.4423,12.4017,12.3205,12.2664,12.2799,12.3002,12.1988,12.219,12.2799,12.3002,12.307,12.307,12.307,12.2393,12.1379,12.104,11.8808,11.6304,11.5492,11.6034,11.7116,11.8402,12.0499,12.2596,12.3679,12.4829,12.5979,12.7062,12.7603,12.8077,12.8618,12.9295,12.9904,13.0174,13.0918,13.1324,13.1121,13.0512,12.9701,12.9024,12.7603,12.6385,12.5641,12.5032,12.4423,12.3679,12.3611,12.3611,12.3611,12.4085,12.4491,12.4694,12.4694,12.4694,12.4694,12.4694,12.4694,12.4694,12.4694,12.4694,12.4694,12.4694,12.4694,12.4694,12.4694,12.4694,12.4694,12.4694,12.4694,12.4694,12.4694,12.4694,12.4694,12.4694,12.4694,12.4694,9.2353,9.1203,9.0188,9.0188,8.9579,8.9106,8.9106,9.0391,9.1609,9.2353,9.3842,9.5872,9.8781,10.1216,10.3449,10.5614,10.6494,10.7576,10.9065,10.9877,11.0689,11.1433,11.353,11.5086,11.5898,11.7387,11.8469,11.9281,12.0025,12.0702,12.1514,12.2935,12.3611,12.3679,12.4423,12.4694,12.4694,12.4694,12.4288,12.3611,12.3611,12.3205,12.2529,12.2461,12.3408,12.4423,12.3002,12.2935,12.3679,12.4423,12.4626,12.4626,12.4626,12.4626,12.4288,12.2867,12.0296,11.7928,11.7116,11.7928,11.9281,12.0025,12.2393,12.4626,12.4694,12.6385,12.8009,12.8077,12.9227,13.0174,13.0174,13.0783,13.1121,13.0377,13.0918,13.1189,13.0377,12.9701,12.9024,12.8212,12.6791,12.5573,0.0,12.4694,12.4423,12.3679,12.3611,12.3611,12.3611,12.3611,12.4017,12.4694,12.4694,12.4694,12.4694,12.4694,12.4694,12.4694,12.4694,12.4694,12.4694,12.4694,12.4694,12.4694,12.4694,12.4694,12.4694,12.4694,12.4694,12.4694,12.4694,12.4694,12.4694,12.4694,12.4694,12.4829,9.2489,9.1609,9.0797,9.0324,8.9579,8.9106,8.9106,9.0324,9.1541,9.2353,9.3774,0.0,0.0,0.0,0.0,0.0,10.4667,10.6088,10.7576,10.8388,10.9606,11.1298,11.2583,11.4274,11.6507,11.759,11.8672,11.989,12.0161,12.0702,12.1379,12.192,12.2393,12.2867,12.307,12.3205,12.3205,12.3205,12.3408,12.3611,12.3611,12.3476,12.3205,12.3205,12.3814,12.4694,0.0,12.5235,12.5912,12.6115,12.6182,12.6182,12.6182,12.5912,12.51,12.307,12.1785,12.0905,12.0093,12.0973,12.2326,12.3002,12.4694,12.6182,12.6182,12.7197,12.8144,12.8144,12.9295,13.0309,13.0309,13.0918,13.1324,13.1121,13.0783,13.0377,12.9701,12.8889,12.8009,12.6791,12.6182,0.0,0.0,0.0,0.0,12.3611,12.3611,12.3611,12.3611,12.4085,12.4423,12.4694,12.4694,12.4694,12.4694,12.4694,12.4694,12.4694,12.4694,12.4694,12.4694,12.4694,12.4694,12.4694,12.4694,12.4694,12.4694,12.422,12.4017,12.3882,12.3408,12.3205,12.3205,12.3205,12.3205,12.3408,9.215,9.1406,9.0729,9.0324,8.9579,0.0,0.0,0.0,0.0,0.0,0.0,0.0,0.0,0.0,0.0,0.0,0.0,10.4396,10.5614,10.69,10.8388,11.008,11.1703,11.3598,11.6101,11.7387,11.8808,12.0296,12.0296,12.0702,12.1379,12.1379,12.1785,12.2461,12.2799,12.3002,12.3273,12.3273,12.3408,12.3611,12.3611,12.3611,12.3611,12.3882,12.4626,0.0,12.6385,12.7197,12.7806,12.7806,12.7603,12.74,12.74,12.6927,12.5912,12.3882,12.3273,12.307,12.2393,12.307,12.422,12.4897,12.6318,12.7332,12.7062,12.7603,12.8144,12.8144,12.9295,13.0377,13.058,13.1527,13.2001,13.1527,13.0783,12.9971,12.8889,12.7941,12.6994,12.5979,12.5641,12.5303,0.0,0.0,0.0,12.4017,12.4017,12.4017,12.4017,12.4423,12.4694,12.4694,12.4694,12.4694,12.4694,12.4694,12.4694,12.4694,12.4694,12.4694,12.4694,12.4694,12.4694,12.4694,12.4423,12.4288,12.422,12.3544,12.3205,12.3205,12.2664,12.2461,12.2461,12.2461,12.2461,12.2596,9.1474,9.0729,9.0188,0.0,0.0,0.0,0.0,0.0,0.0,0.0,0.0,0.0,0.0,0.0,0.0,0.0,0.0,0.0,10.3517,10.5479,10.7103,10.7982,11.0892,11.3192,11.468,11.6981,11.8875,12.0364,12.0431,12.0837,12.1514,12.1514,12.1785,12.2529,12.3205,12.395,12.4626,12.4626,12.422,12.3679,12.3679,12.3747,12.3882,12.4559,12.5709,12.713,12.7806,12.855,12.9227,12.9227,12.8618,12.8009,12.8009,12.7535,12.6656,12.5235,12.4829,12.4694,12.4017,12.4288,12.51,12.5844,12.713,12.8009,12.7197,12.7603,12.8144,12.8144,12.9295,13.058,13.1324,0.0,13.3151,13.1595,13.0715,12.9701,12.8212,12.6724,12.5844,0.0,0.0,0.0,0.0,0.0,0.0,12.4694,0.0,12.4694,12.4694,12.4694,12.4694,12.4694,12.4694,12.4626,12.4626,12.4626,12.4694,12.4694,12.4694,12.4626,12.4626,12.4626,12.4626,12.4491,12.3814,12.3544,12.3544,12.2732,12.2393,12.2393,12.2393,12.2393,12.2393,12.2393,12.2393,12.2393,0.0,0.0,0.0,0.0,0.0,0.0,0.0,0.0,0.0,0.0,0.0,0.0,0.0,0.0,0.0,0.0,0.0,0.0,10.2705,10.3787,10.5479,10.7915,11.0418,11.2921,11.5492,11.7793,11.9619,12.1108,12.1717,12.1988,12.219,12.219,12.2326,12.2461,12.2664,12.2867,12.307,12.307,12.3611,12.4423,12.4423,12.51,12.6182,12.6318,12.6994,12.7806,12.74,12.8077,12.9092,12.8618,12.7535,12.6521,12.6521,12.6318,12.6182,12.6385,12.6385,12.6385,12.6182,12.6724,12.7332,12.7535,12.8212,12.8686,12.8009,12.8415,12.8821,12.8212,12.9701,13.1189,13.1392,13.2204,0.0,13.1595,12.9904,0.0,12.6724,12.5641,0.0,12.4288,0.0,12.4694,12.4694,12.4694,0.0,0.0,12.4694,12.4694,12.4694,12.4694,12.4694,12.4694,12.422,12.3882,12.3882,12.3882,12.422,12.4694,12.4153,12.3882,12.3882,12.3273,12.307,12.307,12.2867,12.2799,12.2732,12.1988,12.1717,12.1582,12.1108,12.0837,12.0837,12.0837,12.0837,12.0837,0.0,0.0,0.0,0.0,0.0,0.0,0.0,0.0,0.0,0.0,0.0,0.0,0.0,0.0,0.0,0.0,0.0,0.0,0.0,10.2299,10.4126,10.6494,10.8997,11.1771,11.4816,11.6981,11.9078,12.0905,12.1311,12.1852,12.2461,12.219,12.2393,12.3002,12.3002,12.3205,12.3476,12.3476,12.3882,0.0,0.0,12.5438,12.6521,12.6521,12.6994,12.7603,12.713,12.7332,12.7603,12.6521,12.5776,12.537,12.537,12.537,12.5506,12.6318,12.6724,12.7062,12.74,12.7806,12.8144,12.8144,12.8686,12.8889,12.7874,12.8415,12.9092,12.8686,13.0106,13.1527,13.1798,13.2542,13.2677,0.0,0.0,0.0,12.6588,12.5709,12.4897,0.0,12.4423,12.4694,12.4694,12.4694,12.4694,0.0,12.4694,12.4559,12.422,12.422,12.4085,12.3679,12.3341,12.3138,12.3138,12.3138,12.3341,12.3679,12.3273,12.3138,12.307,12.2664,12.2461,12.2461,0.0,12.1988,12.1988,12.1176,12.0905,12.0905,12.0499,12.0499,12.077,12.077,12.0973,12.1243,0.0,0.0,0.0,0.0,0.0,0.0,0.0,0.0,0.0,9.2353,9.2421,9.2692,9.3503,9.4248,0.0,0.0,0.0,0.0,0.0,0.0,10.2908,10.4329,10.717,11.008,11.2989,11.5289,11.7522,11.9687,11.9958,12.077,12.2055,12.1514,12.192,12.3205,12.3205,12.3544,12.4085,12.422,12.4288,12.4423,12.4491,12.5032,12.5709,0.0,12.6115,12.6724,12.6724,12.6182,12.5303,12.4017,12.4017,12.4423,12.4423,12.4423,12.4626,12.5709,12.6521,12.7197,12.8009,12.8212,12.8212,12.8144,12.8686,12.8889,12.7603,12.8415,12.9362,12.9498,13.058,13.173,13.2407,13.3219,13.3219,13.173,0.0,12.9498,12.7197,12.6318,12.5573,12.4694,12.4626,12.4694,12.4694,12.4626,12.4559,12.4559,12.4491,12.422,12.3611,12.3544,12.3138,12.2393,12.2393,12.2393,12.2393,12.2393,12.2393,12.2461,12.2393,12.2393,12.2393,12.2258,12.219,12.219,0.0,0.0,12.1176,12.0702,12.0364,12.0499,12.0567,12.0973,12.1514,12.1514,12.1988,12.2461,0.0,0.0,0.0,0.0,0.0,0.0,0.0,0.0,0.0,0.0,9.2421,9.2692,9.3503,9.4248,0.0,0.0,0.0,0.0,0.0,0.0,0.0,10.284,10.5141,10.7509,10.9877,11.2718,11.5019,11.6575,11.8469,11.9484,11.9755,12.0296,12.0567,12.0905,12.0905,12.0905,12.1108,12.1717,12.2326,12.2935,12.3544,12.422,12.4897,12.4897,0.0,0.0,12.51,12.422,12.307,12.3476,12.3273,12.2867,12.2867,12.2867,12.3408,12.5979,12.6927,12.7265,12.8618,12.9024,12.8889,12.828,12.8686,12.9092,12.8889,12.9498,13.0309,13.0918,13.173,13.2339,13.2475,13.3219,13.3219,13.173,13.0783,12.9295,12.6521,12.5979,12.537,12.4017,12.4288,12.4694,12.4694,12.4153,12.3814,0.0,0.0,0.0,0.0,12.3002,12.2393,12.1582,12.1582,12.1582,12.1582,12.1582,12.192,12.2461,12.192,12.1582,12.1582,12.0973,12.0702,12.0702,0.0,0.0,12.0499,12.0973,12.1176,12.1311,12.1852,12.219,12.2326,12.2326,12.2393,12.2461,0.0,0.0,0.0,0.0,0.0,0.0,0.0,9.2489,9.2624,9.2962,9.303,9.3165,9.3571,9.3909,9.4248,0.0,0.0,0.0,0.0,0.0,0.0,10.0675,10.2908,10.5141,10.7373,10.9606,11.1636,11.353,0.0,11.5695,11.6913,11.759,11.8199,11.8537,11.9011,11.9214,11.9214,11.9484,11.989,12.0228,12.0634,12.0905,12.1311,12.1311,0.0,0.0,12.1717,12.1379,12.0905,12.1649,12.1649,12.1582,12.2732,12.2799,12.307,12.6115,12.6994,12.7265,12.8821,12.9227,12.8889,12.7806,12.8415,12.9092,12.8686,12.9836,13.1121,13.1798,13.261,13.3083,13.3083,13.3422,13.3286,13.2204,13.1663,13.0512,12.8009,12.7332,12.6521,12.5032,12.4423,12.4085,12.4085,12.3476,12.3002,12.3002,0.0,0.0,0.0,12.1785,12.1176,12.077,12.077,12.077,12.077,12.077,12.0973,12.1379,12.0973,12.077,12.077,12.0499,12.0499,12.0905,0.0,0.0,12.1446,12.1785,12.1988,12.1988,12.2393,12.2732,12.307,12.307,12.3273,12.3611,0.0,0.0,0.0,0.0,0.0,0.0,0.0,9.3571,9.3571,9.3571,9.3571,9.3571,9.3571,9.3571,9.3842,0.0,0.0,0.0,0.0,0.0,0.0,0.0,0.0,0.0,0.0,0.0,0.0,0.0,11.0283,0.0,0.0,0.0,0.0,0.0,11.6304,11.671,11.671,11.6778,11.6913,0.0,0.0,11.7116,11.7116,0.0,0.0,0.0,0.0,11.8402,11.8808,11.9417,11.9822,12.0431,12.2326,12.2732,12.307,12.5912,12.6859,12.7265,12.8618,12.9092,12.8821,12.74,12.8077,12.9024,12.828,12.9836,13.1595,13.2339,13.3083,13.3692,13.3692,13.3692,13.3422,13.261,13.2475,13.173,12.9498,12.8415,12.7332,12.5776,12.4288,12.3408,12.3408,12.2732,12.2258,0.0,0.0,0.0,0.0,0.0,12.0161,12.0093,12.0161,12.0161,12.0093,12.0161,12.0296,12.0296,12.0296,12.0296,12.0296,12.0499,12.0905,12.1379,0.0,0.0,0.0,12.2664,12.2732,12.2799,12.2867,12.3273,12.3814,12.3814,12.422,12.4694,0.0,0.0,0.0,0.0,0.0,0.0,0.0,9.3571,9.3571,9.3571,9.3571,9.3571,9.3571,9.3571,9.3639,0.0,0.0,0.0,0.0,0.0,0.0,0.0,0.0,0.0,0.0,0.0,0.0,0.0,0.0,0.0,0.0,0.0,0.0,0.0,0.0,11.1974,11.2109,11.2718,0.0,0.0,0.0,0.0,0.0,0.0,0.0,0.0,0.0,11.5966,11.7116,11.7184,11.8131,11.9484,12.0296,12.1514,12.3002,12.5303,12.6521,12.7197,12.8009,12.8686,12.8821,12.74,12.8077,12.9024,12.828,12.9836,13.1595,13.2339,13.3083,13.3692,13.3692,13.3692,13.3422,13.261,13.2475,13.173,12.9498,12.8009,12.6521,12.5032,12.3476,12.2596,12.2596,12.192,12.1514,0.0,0.0,0.0,0.0,0.0,11.9958,11.9281,11.9958,11.9958,11.9281,11.9958,12.0296,12.0296,12.0296,12.0296,12.0296,12.0973,12.1311,12.1446,0.0,0.0,0.0,12.3205,12.3544,12.3611,12.422,12.4491,12.4626,12.4626,12.4626,12.4694,0.0,0.0,0.0,0.0,0.0,0.0,9.3571,9.3571,9.3571,9.3571,9.3571,9.3571,9.3571,9.3571,9.3571,9.3571,0.0,0.0,0.0,0.0,0.0,0.0,0.0,0.0,0.0,0.0,0.0,0.0,0.0,0.0,0.0,0.0,0.0,0.0,0.0,0.0,10.8727,10.8997,0.0,0.0,0.0,0.0,0.0,0.0,0.0,0.0,0.0,0.0,11.3869,11.5628,11.6913,11.8131,11.9822,12.104,12.219,12.4017,12.5032,12.5912,12.713,12.8009,12.828,12.7265,12.8077,12.9092,12.8821,13.0106,13.173,13.3016,13.3489,13.3692,13.3692,13.3692,13.3625,13.3286,13.2813,13.2001,13.0715,12.8889,12.7265,12.6182,12.395,12.2461,12.2461,12.1379,0.0,0.0,0.0,0.0,0.0,0.0,0.0,11.9214,11.9078,11.9011,11.9214,11.9484,11.989,12.0296,12.0296,12.0296,12.0296,12.1108,12.1582,12.2123,0.0,0.0,0.0,12.4085,12.4288,12.4288,12.4626,12.4694,12.4694,12.4694,12.4694,12.4694,0.0,0.0,0.0,0.0,0.0,9.3571,9.3571,9.3571,9.3571,9.3571,9.3571,9.3571,9.3571,9.3774,9.3909,9.3909,9.3706,0.0,0.0,0.0,0.0,0.0,0.0,0.0,0.0,0.0,0.0,0.0,0.0,0.0,0.0,0.0,0.0,0.0,0.0,0.0,0.0,0.0,0.0,0.0,0.0,0.0,0.0,0.0,0.0,0.0,0.0,0.0,0.0,0.0,0.0,11.7184,11.9078,12.0296,12.1379,12.2799,12.3814,12.4694,12.5979,12.6994,12.7603,12.713,12.8077,12.9227,12.9227,13.0309,13.1798,13.3083,13.3489,13.3692,13.3692,13.3692,13.3625,13.3422,13.2677,13.1798,13.0918,12.9024,12.74,12.6385,12.4085,12.2393,12.219,0.0,0.0,0.0,0.0,0.0,0.0,0.0,0.0,11.8875,11.8605,11.8672,11.9214,11.9417,11.9755,12.0296,12.0296,12.0296,12.0296,12.1311,12.1988,0.0,0.0,0.0,0.0,12.4694,12.4694,12.4694,12.4694,12.4694,12.4694,12.4694,12.4694,12.4694,0.0,0.0,0.0,0.0,0.0,0.0,9.3571,9.3571,9.3571,9.3571,9.3571,9.3571,9.3571,9.4248,9.4721,9.4721,9.4045,0.0,0.0,0.0,0.0,0.0,0.0,0.0,0.0,0.0,0.0,0.0,0.0,0.0,0.0,0.0,0.0,0.0,0.0,0.0,0.0,0.0,0.0,0.0,0.0,0.0,0.0,0.0,0.0,0.0,0.0,0.0,0.0,0.0,0.0,0.0,0.0,11.9078,12.0567,12.2055,12.3002,12.3814,12.4491,12.5776,12.6994,12.6994,12.8077,12.9227,12.9227,13.0309,13.1595,13.2407,13.3083,13.3692,13.3692,13.3692,13.3422,13.261,13.1933,13.0918,12.943,12.7874,12.6385,12.4897,12.3408,12.219,12.1514,0.0,0.0,0.0,0.0,0.0,0.0,0.0,0.0,11.8131,11.8808,11.9214,11.9214,11.989,12.0296,12.0296,12.0296,12.0296,12.0296,12.1785,0.0,0.0,0.0,0.0,0.0,12.4694,12.4694,12.4694,12.4694,12.4694,12.4694,12.4694,12.4694,12.4829,0.0,0.0,0.0,0.0,0.0,0.0,0.0,9.3571,9.3571,9.3571,9.3571,9.3774,9.4315,9.4586,9.4924,9.5398,9.5263,0.0,0.0,0.0,0.0,0.0,0.0,0.0,0.0,0.0,0.0,0.0,9.9863,10.0608,10.1352,10.2367,10.284,10.2908,0.0,0.0,0.0,0.0,0.0,0.0,0.0,0.0,0.0,0.0,0.0,0.0,0.0,0.0,0.0,0.0,0.0,0.0,0.0,0.0,0.0,12.1311,12.192,12.2393,12.3611,12.51,12.6385,12.6859,12.8077,12.9295,12.9836,13.0715,13.1798,13.3083,13.3489,13.3489,13.3016,13.288,13.2475,13.1189,13.0377,12.9565,12.8618,12.8009,12.74,12.6385,12.4491,12.2799,0.0,0.0,0.0,0.0,0.0,0.0,0.0,0.0,0.0,0.0,11.8334,11.8672,11.9214,11.9417,11.9755,12.0296,12.0296,12.0296,12.0364,0.0,0.0,0.0,0.0,0.0,0.0,12.4694,12.4694,12.4694,12.4694,12.4694,12.4761,12.5303,12.5506,12.5641,0.0,0.0,0.0,0.0,0.0,0.0,0.0,9.3571,9.3571,9.3571,9.3571,9.3842,9.4654,9.4992,9.5398,9.6142,9.648,0.0,0.0,0.0,0.0,0.0,0.0,0.0,0.0,0.0,0.0,0.0,0.0,10.0608,10.1352,10.2164,10.2502,10.2502,10.2502,10.2705,0.0,0.0,0.0,0.0,0.0,0.0,10.69,0.0,0.0,0.0,0.0,0.0,0.0,0.0,0.0,0.0,0.0,0.0,0.0,0.0,12.1176,12.1717,12.3205,12.4694,12.6115,12.6791,12.8077,12.9498,13.0512,13.1121,13.1798,13.3016,13.3219,13.3016,13.2204,13.2069,13.1595,13.0106,12.9295,12.8415,12.74,12.7535,12.7332,12.625,12.4423,0.0,0.0,0.0,0.0,0.0,0.0,0.0,0.0,0.0,0.0,0.0,0.0,11.8875,11.9619,11.9619,11.9822,12.0296,12.0296,12.0364,12.077,0.0,0.0,0.0,0.0,0.0,0.0,12.4694,12.4694,12.4694,12.4694,12.4897,12.5235,12.5709,12.6115,12.6385,0.0,0.0,0.0,0.0,0.0,0.0,0.0,9.3571,9.3571,9.3571,9.3571,9.3909,9.4721,9.5398,9.6142,9.6886,9.7631,0.0,0.0,0.0,0.0,0.0,0.0,0.0,0.0,0.0,0.0,9.9187,9.9863,10.0608,10.1487,10.2164,10.2502,10.2502,10.2502,10.2908,0.0,0.0,0.0,0.0,0.0,0.0,0.0,0.0,0.0,0.0,0.0,0.0,0.0,0.0,0.0,0.0,0.0,0.0,0.0,0.0,0.0,0.0,0.0,12.4694,12.5979,12.6791,12.8077,12.9498,13.0986,13.1324,0.0,13.2204,13.2339,13.2136,13.1324,13.1189,13.0783,12.9295,12.8483,12.7603,12.6115,12.6521,12.6385,12.5032,12.3611,0.0,0.0,0.0,0.0,0.0,0.0,0.0,0.0,0.0,0.0,0.0,0.0,11.9619,12.0296,12.0296,12.0296,12.0296,12.0296,12.0702,12.1379,0.0,0.0,0.0,0.0,0.0,0.0,12.4694,12.4694,12.4829,12.4829,12.5303,12.5979,12.6047,12.6521,12.7197,0.0,0.0,0.0,0.0,0.0,0.0,0.0,0.0,0.0,0.0,9.3571,9.4112,9.5398,9.5669,9.6345,0.0,0.0,0.0,0.0,0.0,0.0,0.0,0.0,0.0,0.0,0.0,0.0,9.9931,10.0134,10.0946,10.2231,10.2434,10.2502,10.2502,10.2502,10.3179,0.0,0.0,0.0,0.0,0.0,0.0,0.0,0.0,0.0,0.0,10.69,10.7915,0.0,0.0,0.0,0.0,0.0,0.0,0.0,0.0,12.1176,12.2393,12.3408,0.0,12.5303,12.6656,12.7671,12.8753,0.0,13.058,13.058,13.0783,13.0783,13.0377,12.9092,12.9295,12.9227,12.7806,12.7806,12.7603,12.6115,12.6047,12.6182,12.6385,12.51,12.3611,0.0,0.0,0.0,0.0,0.0,0.0,0.0,0.0,0.0,0.0,0.0,0.0,12.0296,12.0296,12.0296,12.0296,12.0296,12.0702,0.0,0.0,0.0,0.0,0.0,0.0,12.4694,12.4694,12.51,12.5641,12.5641,12.6115,12.6791,12.74,12.7738,12.7941,0.0,0.0,0.0,0.0,0.0,0.0,0.0,0.0,0.0,0.0,9.3909,9.4518,9.5669,9.6074,9.6751,0.0,0.0,0.0,0.0,0.0,0.0,0.0,0.0,0.0,0.0,0.0,0.0,0.0,10.0405,10.1014,10.2502,10.2502,10.2502,10.2502,10.3179,10.399,0.0,0.0,0.0,0.0,10.69,0.0,0.0,0.0,0.0,0.0,10.69,10.7915,0.0,10.92,11.0689,11.2651,0.0,0.0,0.0,0.0,12.0567,12.1717,12.2799,12.422,12.5506,12.6318,12.6994,12.7874,12.9024,12.9565,12.9701,12.9362,12.9565,12.943,12.8347,12.8415,12.828,12.7197,12.7332,12.7062,12.5573,12.4761,12.4626,12.537,12.4423,0.0,0.0,0.0,0.0,0.0,0.0,0.0,0.0,0.0,0.0,0.0,0.0,0.0,0.0,12.0296,12.0296,12.0296,12.0296,12.0905,0.0,0.0,0.0,0.0,0.0,0.0,12.5303,12.5303,12.5709,12.6385,12.6385,12.6859,12.7603,12.8009,12.8347,12.8686,0.0,0.0,0.0,0.0,0.0,0.0,0.0,0.0,0.0,0.0,0.0,0.0,0.0,0.0,0.0,0.0,0.0,0.0,0.0,0.0,0.0,0.0,0.0,0.0,0.0,0.0,0.0,10.1352,10.0675,10.1149,10.2502,10.2502,10.257,10.2705,10.4058,10.4802,0.0,0.0,0.0,0.0,10.69,0.0,0.0,0.0,0.0,0.0,0.0,0.0,0.0,10.92,11.0553,11.2448,11.3327,0.0,0.0,0.0,0.0,0.0,12.1988,12.3814,12.5438,12.5709,12.6182,12.6859,12.7738,12.8415,12.8686,12.7941,12.828,12.8483,12.7874,12.7806,12.7603,12.6927,12.6588,12.5979,12.4694,12.3408,12.2799,12.3544,12.3002,0.0,0.0,0.0,0.0,0.0,0.0,0.0,0.0,0.0,0.0,0.0,0.0,0.0,0.0,0.0,12.0296,12.0296,12.0296,12.1108,12.2461,12.2461,0.0,0.0,0.0,0.0,12.6115,12.6115,12.6521,12.7197,12.7197,12.7603,12.828,12.828,12.8686,12.9227,0.0,0.0,0.0,0.0,0.0,0.0,0.0,0.0,0.0,0.0,0.0,0.0,0.0,0.0,0.0,0.0,0.0,0.0,0.0,0.0,0.0,0.0,0.0,0.0,0.0,0.0,0.0,10.1352,10.1284,10.169,10.2502,10.2502,10.284,10.3517,10.4261,10.5005,10.5682,10.6494,0.0,0.0,0.0,0.0,0.0,0.0,0.0,0.0,0.0,0.0,0.0,10.92,11.0283,11.1771,11.3192,0.0,0.0,0.0,0.0,0.0,12.1311,12.2258,12.3273,12.4559,12.4964,12.537,12.6791,12.7265,12.713,12.6385,12.6318,12.6385,12.6318,12.625,12.6182,12.6115,12.5032,12.4017,12.3814,12.3002,12.2799,12.3544,0.0,0.0,0.0,0.0,0.0,0.0,0.0,0.0,0.0,0.0,0.0,0.0,0.0,0.0,0.0,0.0,0.0,12.0296,12.0296,12.1108,12.2461,12.2461,12.3679,0.0,0.0,12.6115,12.6791,12.6791,12.7265,12.7941,12.7941,12.8415,12.9024,12.9024,12.9092,12.9227,0.0,0.0,0.0,0.0,0.0,0.0,0.0,0.0,0.0,0.0,0.0,0.0,0.0,0.0,0.0,0.0,0.0,0.0,0.0,0.0,0.0,0.0,0.0,0.0,0.0,0.0,0.0,0.0,10.1555,10.1961,10.3111,10.3517,10.3652,10.3585,10.4802,10.5479,10.5817,10.6561,10.69,10.69,0.0,0.0,0.0,0.0,0.0,0.0,0.0,0.0,0.0,0.0,11.0147,11.1703,11.3124,0.0,0.0,0.0,0.0,0.0,12.0499,12.1108,12.1649,12.307,12.3814,12.4288,12.5032,12.5776,12.6182,12.537,12.5573,12.5912,12.5912,12.5912,12.5641,12.4829,12.307,12.1717,12.1311,12.0905,12.0973,0.0,0.0,0.0,0.0,0.0,0.0,0.0,0.0,0.0,0.0,0.0,0.0,0.0,0.0,0.0,0.0,0.0,12.0296,12.0296,12.0702,12.1446,12.2529,12.3273,12.4491,0.0,0.0,12.6927,12.7603,12.7603,12.8009,12.8686,12.8686,12.8889,12.9227,12.9227,12.9227,12.9227,0.0,0.0,0.0,0.0,0.0,0.0,0.0,0.0,0.0,0.0,0.0,0.0,0.0,0.0,0.0,0.0,0.0,0.0,0.0,0.0,0.0,0.0,0.0,0.0,0.0,0.0,10.1419,10.2773,10.2164,10.257,10.3855,10.4396,10.4464,10.4193,10.5276,10.5885,10.6088,10.6697,10.69,10.69,0.0,0.0,0.0,0.0,0.0,0.0,0.0,0.0,0.0,0.0,0.0,0.0,0.0,0.0,0.0,11.7184,11.8131,11.8402,11.989,12.0364,12.077,12.1988,12.2664,12.3205,12.3544,12.4423,12.4897,12.4288,12.4829,12.5438,12.5573,12.5506,12.4897,12.3341,12.1379,0.0,0.0,0.0,0.0,0.0,0.0,0.0,0.0,0.0,0.0,0.0,0.0,0.0,0.0,0.0,0.0,0.0,0.0,0.0,0.0,0.0,12.0567,12.0567,12.1108,12.1988,12.307,12.422,12.5303,12.6385,12.6994,12.7671,12.8415,12.8415,12.8686,12.9227,12.9227,12.9227,12.9227,12.9227,12.9227,12.9227,0.0,0.0,0.0,0.0,0.0,0.0,0.0,0.0,0.0,0.0,0.0,0.0,0.0,0.0,0.0,0.0,0.0,0.0,0.0,0.0,0.0,0.0,0.0,0.0,0.0,10.2367,10.2705,10.3517,10.3517,10.3787,10.4599,10.4667,10.5005,10.5614,10.5817,10.6223,10.6832,10.69,10.69,10.69,10.69,0.0,0.0,0.0,0.0,0.0,0.0,0.0,0.0,0.0,0.0,0.0,0.0,0.0,11.4207,11.7184,11.8131,11.8402,11.989,12.077,12.1311,12.1514,12.1514,12.192,12.3341,12.3205,12.2664,12.2664,12.3205,12.4017,12.4694,12.422,12.3341,12.1785,12.0296,0.0,0.0,0.0,0.0,0.0,0.0,0.0,0.0,0.0,0.0,0.0,0.0,0.0,0.0,0.0,0.0,0.0,0.0,0.0,0.0,0.0,12.1311,12.1311,12.1379,12.2529,12.4491,12.4694,12.5912,12.7941,12.8009,12.8415,12.9092,12.9092,12.9159,12.9227,12.9227,12.9227,12.9227,12.9227,12.9227,12.9227,0.0,0.0,0.0,0.0,0.0,0.0,0.0,0.0,0.0,0.0,0.0,0.0,9.9796,0.0,0.0,0.0,0.0,0.0,0.0,0.0,0.0,0.0,0.0,10.2231,10.2502,10.2908,10.3314,10.3585,10.4532,10.487,10.4667,10.5614,10.602,10.5817,10.6291,10.6629,10.69,10.69,10.69,10.69,10.69,10.69,0.0,0.0,0.0,0.0,0.0,0.0,0.0,0.0,11.0147,11.1703,11.3124,11.3598,11.4207,11.7184,11.8131,11.8402,11.989,12.077,12.1514,12.1988,12.1717,12.1514,12.2123,12.1988,12.1785,12.1785,12.2393,12.3273,12.4491,12.4085,12.3138,12.1582,12.0161,0.0,0.0,0.0,0.0,0.0,0.0,0.0,0.0,0.0,0.0,0.0,0.0,0.0,0.0,0.0,0.0,0.0,0.0,0.0,0.0,0.0,12.2529,12.3476,12.3476,12.3882,12.4694,12.6182,12.7332,12.8144,12.8618,12.8889,12.9227,12.9227,12.9227,12.9227,12.9227,12.9227,12.9227,12.9227,12.9227,12.9227,0.0,0.0,0.0,0.0,0.0,0.0,0.0,0.0,0.0,0.0,0.0,0.0,0.0,10.0134,0.0,0.0,0.0,0.0,0.0,0.0,0.0,0.0,0.0,10.2502,10.2502,10.3517,10.3923,10.3923,10.5411,10.5885,10.5411,10.6426,10.6629,10.6223,10.6697,10.69,10.69,10.69,10.69,10.69,10.69,10.69,0.0,0.0,0.0,0.0,0.0,0.0,0.0,0.0,11.0147,11.1703,11.3124,11.3598,11.4207,11.7184,11.8131,11.8402,11.989,12.077,12.1514,12.1988,12.1785,12.1311,12.077,12.0499,12.0364,12.0364,12.1108,12.2258,12.3679,12.3408,12.2529,12.1311,12.0025,0.0,0.0,0.0,0.0,0.0,0.0,0.0,0.0,0.0,0.0,0.0,0.0,0.0,0.0,0.0,0.0,0.0,0.0,0.0,0.0,0.0,12.3814,12.51,12.5573,12.5776,12.5844,12.74,12.8212,12.8483,12.9024,12.9227,12.9227,12.9227,12.9227,12.9227,12.9227,12.9227,12.9227,12.9227,12.9227,12.9227,0.0,0.0,0.0,0.0,0.0,0.0,0.0,0.0,10.2502,10.2502,10.2502,0.0,0.0,0.0,0.0,0.0,9.9119,9.9119,9.9119,9.9796,0.0,0.0,0.0,10.2502,10.2502,10.3923,10.4667,10.4667,10.6156,10.69,10.69,10.69,10.69,10.69,10.69,10.69,10.69,10.69,10.69,10.69,10.69,10.69,10.69,0.0,0.0,0.0,0.0,0.0,0.0,0.0,11.0147,11.1703,11.3124,11.3598,11.4207,11.7184,11.8131,11.8402,11.989,12.077,12.1379,12.1379,12.1379,12.0973,11.9484,11.8605,11.8131,11.8131,11.9281,12.077,12.219,12.192,12.1176,12.0364,0.0,0.0,0.0,0.0,0.0,0.0,0.0,0.0,0.0,0.0,0.0,0.0,0.0,0.0,0.0,0.0,0.0,0.0,0.0,0.0,0.0,0.0,12.51,12.5912,12.74,12.8144,12.8144,12.8144,12.8483,12.9227,12.9227,12.9227,12.9227,12.9227,12.9227,12.9227,12.9227,12.9227,12.9227,12.9227,12.9227,12.9227,0.0,0.0,0.0,0.0,0.0,0.0,0.0,0.0,10.2502,10.2502,10.2502,0.0,0.0,0.0,0.0,0.0,0.0,9.9863,9.9863,10.0608,10.1149,10.1352,0.0,0.0,10.2502,10.3923,10.5208,10.6223,10.6697,10.69,10.69,10.69,10.69,10.69,0.0,10.69,10.69,10.69,10.69,10.69,10.69,10.69,10.69,0.0,0.0,0.0,0.0,0.0,0.0,0.0,0.0,0.0,11.2515,11.2786,11.326,11.5831,11.6845,11.759,11.9078,12.0093,12.0567,12.0567,12.0228,11.9619,11.8605,11.7793,11.7319,11.7319,11.9281,12.1176,12.1582,12.1988,12.192,0.0,0.0,0.0,0.0,0.0,0.0,0.0,0.0,0.0,0.0,0.0,0.0,0.0,0.0,0.0,0.0,0.0,0.0,0.0,0.0,0.0,0.0,0.0,0.0,12.7535,12.7941,12.8144,12.8144,12.8618,12.9024,12.9227,12.9227,12.9227,12.9227,12.9227,12.9227,12.9227,12.9227,12.9227,12.9227,12.9227,12.9227,12.9227,0.0,0.0,0.0,0.0,0.0,0.0,0.0,0.0,10.2502,10.2502,10.2502,10.2502,0.0,0.0,0.0,10.1419,10.1014,10.0675,10.0675,10.1081,10.1487,10.1825,10.2299,10.2773,10.3382,10.4193,10.5411,10.69,10.69,10.69,10.69,10.69,10.69,10.69,10.69,10.69,10.69,10.69,10.69,10.69,10.69,10.69,10.69,0.0,0.0,0.0,0.0,0.0,0.0,0.0,0.0,0.0,11.238,11.2651,11.326,11.4883,11.5898,11.671,11.7996,11.8605,11.8875,11.8875,11.8402,11.759,11.6507,11.644,11.6372,11.6101,11.7928,11.9687,12.0025,12.0702,0.0,0.0,0.0,0.0,0.0,0.0,0.0,0.0,0.0,0.0,0.0,0.0,0.0,0.0,0.0,0.0,0.0,0.0,0.0,0.0,0.0,0.0,0.0,0.0,0.0,12.8144,12.8415,12.855,12.8618,12.9024,12.9227,12.9227,12.9227,12.9227,12.9227,12.9227,12.9227,12.9227,12.9227,12.9227,12.9227,12.9227,12.9227,12.9227,0.0,0.0,0.0,0.0,0.0,0.0,0.0,10.2502,10.2502,10.2502,10.2502,10.2502,0.0,0.0,0.0,10.1555,10.1487,10.1487,10.1487,10.1487,10.1758,10.2502,10.2502,10.3179,10.4667,10.4667,10.5411,10.6764,10.69,10.69,10.69,10.69,10.69,10.69,10.69,10.69,10.69,10.69,10.69,10.69,10.6967,10.6967,10.6967,10.7103,0.0,0.0,0.0,0.0,0.0,0.0,0.0,0.0,11.2448,11.2989,11.3598,11.4274,11.5086,11.5898,11.6575,11.6778,11.6778,11.671,11.6101,11.5154,11.3801,11.4613,11.5492,11.4816,11.5831,11.7116,11.7996,0.0,0.0,0.0,0.0,0.0,0.0,0.0,0.0,0.0,0.0,0.0,0.0,0.0,0.0,0.0,0.0,0.0,0.0,0.0,0.0,0.0,0.0,0.0,0.0,0.0,0.0,0.0,12.8889,12.9227,12.9227,12.9227,12.9227,12.9227,12.9227,12.9227,12.9227,12.9227,12.9227,12.9227,12.9227,12.9227,12.9227,12.9295,12.9295,12.943,0.0,0.0,0.0,0.0,0.0,0.0,10.2502,10.2502,10.2502,10.2502,10.2502,10.2502,10.2502,10.2502,0.0,10.2299,10.2299,10.2299,10.2299,10.2299,10.2299,10.2502,10.2502,10.3179,10.4667,10.4667,10.5073,10.602,10.6629,10.69,10.69,10.69,10.69,10.69,10.69,10.69,10.69,10.69,10.69,10.6967,10.7509,10.7779,10.7847,10.8456,10.8794,0.0,0.0,0.0,0.0,0.0,0.0,0.0,11.2448,11.2583,11.2786,11.2854,11.3869,11.5086,11.5831,11.6034,11.5898,11.5289,11.4207,11.3124,11.2786,11.3869,11.468,11.4004,11.5492,11.7116,0.0,0.0,0.0,0.0,0.0,0.0,0.0,0.0,0.0,0.0,0.0,0.0,0.0,0.0,0.0,0.0,0.0,0.0,0.0,0.0,0.0,0.0,0.0,0.0,0.0,12.7671,12.8415,0.0,12.9092,12.9227,12.9227,12.9227,12.9227,12.9227,12.9227,12.9227,12.9227,12.9227,12.9227,12.9227,12.9227,12.9227,12.9295,12.9836,13.0106,13.0174,0.0,0.0,0.0,0.0,0.0,0.0,0.0,0.0,10.2502,10.2502,10.2502,10.2502,10.2502,10.2502,0.0,0.0,10.2502,10.2637,10.2976,10.3043,10.3179,10.3517,10.3585,10.4058,10.5208,10.5208,10.5614,10.6291,10.6358,10.6561,10.69,10.69,10.69,10.69,10.69,10.7103,10.7441,10.7441,10.7644,10.7982,10.8388,10.8591,10.8591,10.8997,10.9403,10.9674,10.9674,0.0,0.0,0.0,0.0,0.0,0.0,0.0,11.3463,11.3124,11.3801,11.468,11.4748,11.4477,11.3869,11.238,11.1974,11.1906,11.1501,11.3124,11.4477,11.3801,11.5086,0.0,0.0,0.0,0.0,0.0,0.0,0.0,0.0,0.0,0.0,0.0,0.0,0.0,0.0,0.0,0.0,0.0,0.0,0.0,0.0,0.0,0.0,0.0,0.0,0.0,12.6994,12.8077,12.8821,12.9227,12.9227,12.9227,12.9227,12.9227,12.9227,12.9227,12.9227,12.9227,12.9227,12.9227,12.9227,12.9227,12.9227,12.943,12.9768,13.0174,13.0512,13.0918,0.0,0.0,0.0,0.0,0.0,0.0,0.0,0.0,0.0,10.2502,10.2502,10.2502,10.2502,10.2502,10.2502,0.0,0.0,0.0,10.3585,10.372,10.4126,10.487,10.4802,10.5005,10.5817,10.5817,10.6088,10.6697,10.6088,10.6088,10.6697,10.6697,10.6764,10.69,10.7035,10.7509,10.8185,10.8185,10.8591,10.92,10.9268,10.9471,10.9606,10.9674,11.0215,11.0892,11.0892,11.1703,11.2651,11.2786,0.0,0.0,0.0,0.0,11.4816,11.4207,11.441,11.468,11.4004,11.2989,11.1636,10.9674,11.008,11.0892,11.0418,11.2515,11.4274,11.3733,0.0,0.0,0.0,0.0,0.0,0.0,0.0,0.0,0.0,0.0,0.0,0.0,0.0,0.0,0.0,0.0,0.0,0.0,0.0,0.0,0.0,0.0,0.0,0.0,0.0,0.0,12.6994,12.8483,12.9227,12.9227,12.9227,12.9227,12.9227,12.9227,12.9227,12.9227,12.9227,12.9227,12.9227,12.9227,12.9227,12.9227,12.9295,12.9768,13.0309,13.058,13.1121,13.173,0.0,0.0,0.0,0.0,0.0,0.0,0.0,0.0,0.0,0.0,10.2502,10.2502,10.2502,10.2502,10.2502,10.2502,10.3111,10.3517,10.3585,0.0,0.0,10.5614,10.5005,10.5005,10.5817,10.5817,10.5817,10.5885,10.5817,10.5885,10.5885,0.0,10.6291,10.69,10.7576,10.8321,10.8997,10.8997,10.9065,10.9268,10.9877,11.0486,11.1162,11.1771,11.2515,11.3192,11.3192,11.3327,11.3598,11.4207,11.4477,0.0,0.0,0.0,11.5628,11.5492,11.5628,11.5492,11.4816,11.2583,11.0418,10.9403,10.9268,10.9606,11.0215,11.2109,11.3733,0.0,0.0,0.0,0.0,0.0,0.0,0.0,0.0,0.0,0.0,0.0,0.0,0.0,0.0,0.0,0.0,0.0,0.0,0.0,0.0,0.0,0.0,0.0,0.0,0.0,0.0,0.0,12.6994,12.8483,12.9227,12.9227,12.9227,12.9227,12.9227,12.9227,12.9227,12.9227,12.9227,12.9227,12.9227,12.9227,12.9227,12.9295,12.9904,13.0174,13.0445,13.173,13.2272,13.2475,0.0,0.0,0.0,0.0,0.0,0.0,0.0,0.0,0.0,0.0,0.0,10.2502,10.2502,10.2502,10.2705,10.3111,10.3382,10.399,10.4802,10.5479,10.6088,10.6426,10.6088,10.6088,10.6426,10.6426,10.6426,10.6426,10.5614,10.5208,10.5208,10.5208,10.5817,10.69,10.7712,10.8727,10.9809,11.0283,11.0689,11.1095,11.1906,11.2312,11.2718,11.2989,11.3327,11.3598,11.3598,11.3869,11.4274,11.5086,11.5628,11.6101,11.6845,0.0,0.0,0.0,11.6778,11.6034,11.4004,11.2177,11.0621,10.9471,10.9471,10.9877,11.0215,11.1703,11.3124,0.0,0.0,0.0,0.0,0.0,0.0,0.0,0.0,0.0,0.0,0.0,0.0,0.0,0.0,0.0,0.0,0.0,0.0,0.0,0.0,0.0,0.0,12.3814,12.4423,12.4694,12.5776,0.0,12.6994,12.8077,12.8821,12.9227,12.9227,12.9227,12.9227,12.9227,12.9227,12.9227,12.9227,12.9227,12.9227,12.9227,12.943,12.9836,13.0174,13.0783,13.1595,13.2272,13.2813,13.3219,0.0,0.0,0.0,0.0,0.0,0.0,0.0,0.0,0.0,0.0,0.0,10.2502,10.2502,0.0,0.0,0.0,10.3923,10.4667,10.602,10.6561,10.69,10.69,10.7103,10.717,10.717,10.7373,10.7509,10.7509,10.5953,10.5276,10.5276,10.5276,10.5885,10.717,10.8185,10.9403,11.0892,11.1636,11.2312,11.2786,11.3395,11.3733,11.3869,11.3666,11.3733,11.3869,11.3666,11.4072,11.4816,11.5628,11.6304,11.7116,11.8063,11.8402,0.0,0.0,0.0,11.6575,11.3801,11.2515,11.1636,11.035,11.0621,11.1095,11.1095,11.2312,11.3463,0.0,0.0,0.0,0.0,0.0,0.0,0.0,0.0,0.0,0.0,0.0,0.0,0.0,0.0,0.0,0.0,0.0,0.0,0.0,0.0,0.0,0.0,12.4288,12.4694,12.4694,12.5506,12.6318,12.6994,12.7941,12.8686,12.9227,12.9227,12.9227,12.9227,12.9227,12.9227,12.9227,12.9227,12.9295,12.9498,12.9498,12.9904,13.058,13.0783,13.1527,13.2475,13.2677,13.3219,13.3692,0.0,0.0,0.0,0.0,0.0,0.0,0.0,0.0,0.0,0.0,0.0,10.2502,10.2502,10.3111,10.3585,10.3585,10.487,10.602,10.6764,10.69,10.69,10.69,10.7576,0.0,10.7915,10.8659,10.9065,10.9065,10.7509,10.6764,10.6764,10.6764,10.717,10.805,10.9538,11.1027,11.238,11.3192,11.353,11.353,11.3598,11.4004,11.4613,11.3869,11.4004,11.4613,11.3869,11.4072,11.4816,11.5628,11.6304,11.7184,11.8672,11.9078,11.9281,0.0,0.0,0.0,11.5222,11.4004,11.3327,11.2515,11.2854,11.3395,11.3395,11.4613,11.5628,0.0,0.0,0.0,0.0,0.0,0.0,0.0,0.0,0.0,0.0,0.0,0.0,0.0,0.0,0.0,0.0,0.0,0.0,0.0,0.0,0.0,12.3611,12.4288,12.4694,12.4694,12.5506,12.6318,12.6994,12.8415,12.9227,12.9227,12.9227,12.9227,12.9227,12.9227,12.9227,12.9227,12.9227,12.9565,13.0174,13.0174,13.0715,13.1392,13.2136,13.2407,13.261,13.3422,13.3692,13.3692,0.0,0.0,0.0,0.0,0.0,0.0,0.0,0.0,0.0,0.0,0.0,0.0,0.0,10.4646,10.4857,10.5332,10.6086,10.6629,10.69,10.69,10.69,10.69,10.7644,10.805,10.805,10.8794,10.92,10.92,10.8118,10.7644,10.7644,10.7644,10.7982,10.8794,11.0283,11.1568,11.2583,11.3801,11.4274,11.4274,11.4816,11.5222,11.5289,11.4613,11.4207,11.4004,11.3733,11.3801,11.4274,11.5898,11.6981,11.7928,11.9417,11.989,11.9958,12.0228,11.989,11.9214,11.7928,11.7387,11.6981,11.6304,11.6304,11.6507,11.6507,11.6507,11.671,0.0,0.0,0.0,0.0,0.0,0.0,0.0,0.0,0.0,0.0,0.0,0.0,0.0,0.0,0.0,0.0,0.0,0.0,0.0,0.0,0.0,12.4288,12.4559,12.4694,12.4694,12.4964,12.5709,12.6994,12.8483,12.9227,12.9227,12.9227,12.9227,12.9227,12.9227,12.9227,12.9227,12.9701,13.0106,13.0309,13.0309,13.0986,13.2136,13.2407,13.2813,13.3286,13.3625,13.3692,13.3692,0.0,0.0,0.0,0.0,0.0,0.0,0.0,0.0,0.0,0.0,0.0,0.0,0.0,0.0,10.6267,10.7158,10.7502,10.7777,10.8048,10.7914,10.7779,10.7779,10.8321,10.8794,10.8794,10.9471,10.9877,10.9877,10.92,10.8794,10.8794,10.8794,10.92,11.0012,11.1501,11.238,11.2989,11.441,11.5367,11.5638,11.6179,11.6528,11.6537,11.579,11.484,0.0,0.0,0.0,0.0,0.0,11.7285,11.8439,11.9865,12.0394,12.0447,12.0567,12.0702,12.0567,12.0093,11.989,11.9822,11.9281,11.9214,11.9214,11.9214,11.8808,11.8469,0.0,0.0,0.0,0.0,0.0,0.0,0.0,0.0,0.0,0.0,0.0,0.0,0.0,0.0,0.0,0.0,0.0,0.0,0.0,0.0,0.0,12.4694,12.4694,12.4694,12.4694,12.5167,12.5979,12.6994,12.8483,12.9227,12.9227,12.9227,12.9227,12.9227,12.9227,12.9295,12.9565,13.0106,13.0377,13.0715,13.0918,13.1798,13.288,13.288,13.3219,13.3692,13.3692,13.3692,13.3692,0.0,0.0,0.0,0.0,0.0,0.0,0.0,0.0,0.0,0.0,0.0,0.0,0.0,0.0,0.0,10.8986,10.9122,10.9396,11.0215,10.9948,10.9678,10.9678,11.0152,11.0283,11.0283,11.1027,11.1365,11.1365,11.0689,11.0283,11.0418,11.0418,11.0756,11.1568,11.2989,11.3666,11.3801,11.5222,11.6596,11.7498,0.0,11.7855,11.8073,11.7253,11.6092,0.0,11.3905,11.3564,0.0,0.0,0.0,11.8415,11.9918,12.065,12.117,12.1396,12.1446,12.1446,0.0,0.0,0.0,12.1446,12.1514,12.1514,12.1514,12.1514,12.1243,0.0,0.0,0.0,0.0,0.0,0.0,0.0,0.0,0.0,0.0,0.0,0.0,0.0,0.0,0.0,0.0,0.0,0.0,0.0,0.0,0.0,12.4694,12.4694,12.4694,12.4694,12.6182,12.6994,12.6994,12.8483,12.9227,12.9227,12.9227,12.9227,12.9227,12.9227,12.9633,13.0309,13.0309,13.0783,13.1527,13.2204,13.3016,13.3692,13.3692,13.3692,13.3692,13.3692,13.3692,13.3692,0.0,0.0,0.0,0.0,0.0,10.7333,10.7415,10.7897,10.8449,0.0,0.0,0.0,0.0,0.0,0.0,10.9874,10.9874,11.0011,11.0215,11.0082,11.0082,11.0082,11.0358,11.0697,11.0697,11.1099,11.1365,11.1365,11.1162,11.1505,11.2259,11.2259,11.2806,11.3833,11.4787,11.5605,11.6151,11.6818,0.0,11.7566,11.84,11.8893,0.0,0.0,11.6843,0.0,0.0,11.411,0.0,0.0,11.6843,11.862,0.0,12.2446,12.3117,12.3717,12.3921,12.4058,12.4603,0.0,0.0,0.0,0.0,0.0,12.36,0.0,0.0,0.0,0.0,0.0,0.0,0.0,0.0,0.0,0.0,0.0,0.0,0.0,0.0,0.0,0.0,0.0,0.0,0.0,0.0,0.0,0.0,12.4491,12.4694,12.4694,12.4694,12.4694,12.6182,12.6994,12.6994,12.8483,12.9227,12.9227,12.9227,12.9227,12.9227,12.9768,13.0106,13.0377,13.1392,13.2001,13.2204,13.2407,13.3016,13.3692,13.3692,13.3692,13.3692,13.3692,13.3692,13.3692,0.0,0.0,10.685,10.7126,10.7609,10.8023,10.8299,10.8989,10.9609,0.0,0.0,0.0,0.0,0.0,0.0,11.1024,11.1093,11.1367,11.1984,11.1851,11.2056,11.233,11.2061,11.1993,11.1993,11.1854,11.199,11.199,11.2262,11.267,11.3288,11.3629,11.4313,11.5204,11.5682,11.6502,11.7458,11.7868,11.8135,0.0,11.9174,0.0,0.0,11.8636,11.7333,0.0,0.0,0.0,11.3287,11.4796,11.6991,0.0,0.0,12.3152,12.418,12.4633,12.4906,12.5043,12.5795,12.6,12.6,12.6,0.0,0.0,0.0,0.0,0.0,0.0,0.0,0.0,0.0,0.0,0.0,0.0,0.0,0.0,0.0,0.0,0.0,0.0,0.0,0.0,0.0,0.0,0.0,0.0,12.3882,12.4694,12.4694,12.4694,12.4694,12.4694,12.6182,12.6994,12.6994,12.8483,12.9227,12.9227,12.9227,12.9227,12.9227,12.9971,13.0512,13.0783,13.2001,13.2677,13.3016,13.3016,13.3286,13.3692,13.3692,13.3692,13.3692,13.3692,13.3692,13.3692,0.0,0.0,10.7195,10.7954,10.8023,10.8299,10.8989,10.9747,11.023,0.0,11.1127,0.0,0.0,0.0,11.1886,11.2645,11.2714,11.3403,11.4714,11.4516,11.4589,11.5276,11.4317,11.3838,11.3838,11.3085,11.2675,11.2675,11.3359,0.0,0.0,11.4658,11.5343,11.6095,11.6232,11.6984,11.8353,11.8846,11.9399,11.9949,11.988,11.9471,0.0,0.0,11.7818,0.0,11.5818,11.4438,11.2783,11.43,11.7266,0.0,0.0,12.324,12.4613,12.507,12.5194,12.5331,12.6015,12.6083,12.6083,12.6083,12.6152,0.0,12.5043,0.0,0.0,0.0,0.0,0.0,0.0,0.0,0.0,0.0,0.0,0.0,0.0,0.0,0.0,0.0,0.0,0.0,0.0,0.0,0.0,12.2461,12.3882,12.4897,12.4964,12.4964,12.4964,12.4964,12.6385,12.713,12.713,12.8483,12.9227,12.9227,12.9295,12.9295,12.9295,13.0174,13.0918,13.1595,13.2339,13.3016,13.3692,13.3692,13.3692,13.3692,13.3692,13.3625,13.3625,13.3625,13.3489,13.3286,11.0217,10.9496,10.895,10.9158,10.8977,10.9127,10.9816,11.0023,11.0506,11.1817,11.2714,0.0,0.0,11.3679,11.4093,11.4231,11.4783,11.5335,11.5611,11.5476,11.5476,11.5683,11.5275,11.4933,11.4933,11.4453,11.4247,11.4247,11.4384,0.0,0.0,11.5962,11.658,11.7612,11.8232,11.9197,12.0093,12.0713,12.0644,12.0161,11.9541,0.0,0.0,11.8301,11.768,11.6714,11.6025,11.4783,11.361,0.0,11.768,12.0784,0.0,0.0,12.5811,12.6569,12.6845,12.6845,12.6834,12.7051,12.7051,12.7051,12.6685,0.0,12.5494,0.0,0.0,0.0,0.0,0.0,0.0,0.0,0.0,0.0,0.0,0.0,0.0,0.0,0.0,0.0,0.0,0.0,0.0,0.0,0.0,12.2461,12.4491,12.5912,12.6521,12.6588,12.6588,12.6588,12.74,12.7874,12.7874,12.8821,12.9227,12.9227,12.9768,13.0106,13.0106,13.146,13.2136,13.2339,13.3083,13.3625,13.3692,13.3692,13.3692,13.3692,13.3692,13.3286,13.2677,13.2677,13.2407,13.1798,11.1458,11.0518,10.9914,10.9914,11.0016,11.0183,11.0599,11.1292,11.1927,11.2559,11.3258,11.3403,11.2989,11.3679,11.4024,11.361,11.43,11.499,11.5818,11.5818,11.6094,11.6921,11.6441,11.6098,11.6098,11.5618,11.5207,11.5207,11.5688,11.6168,0.0,11.7062,11.775,11.8715,11.8991,11.9887,12.0922,12.0991,12.0715,12.0301,11.9543,0.0,11.7473,11.7128,11.6507,11.5818,11.499,11.4024,11.3196,11.4714,11.699,0.0,0.0,12.3888,12.5613,12.6372,12.6854,12.7199,12.7199,12.7199,12.7199,12.7199,12.6983,0.0,0.0,0.0,0.0,0.0,0.0,0.0,0.0,0.0,0.0,0.0,0.0,0.0,0.0,0.0,0.0,0.0,0.0,0.0,0.0,0.0,12.3002,12.4085,12.5573,12.6588,12.6994,12.6994,12.6994,12.6994,12.7738,12.8144,12.8144,12.8821,12.9227,12.9227,12.9904,13.0309,13.0377,13.1798,13.2475,13.2475,13.288,13.3083,13.3083,13.2677,13.261,13.261,13.3016,13.261,13.2001,13.2001,13.173,13.1324,11.2465,11.1669,11.1037,11.1058,11.1377,11.1552,11.1762,11.2878,11.359,11.3349,11.3726,11.3535,11.2637,11.3258,11.3396,11.2637,11.3396,11.4501,11.5814,11.6021,11.6645,11.8025,11.7473,11.7266,11.7404,11.6645,11.63,11.6507,11.699,11.7197,11.7197,11.8025,11.8646,11.9198,11.9543,12.0301,12.1474,12.0991,12.0715,12.0508,0.0,11.8508,11.7128,11.63,11.568,11.499,11.4024,11.3265,11.2989,11.43,0.0,11.8508,12.0784,12.2992,12.4854,12.5682,12.6579,12.7199,12.7199,12.7199,12.7199,12.7199,12.7199,12.6992,0.0,0.0,0.0,0.0,0.0,0.0,0.0,0.0,0.0,0.0,0.0,0.0,0.0,0.0,0.0,0.0,0.0,0.0,0.0,0.0,0.0,12.6385,12.7062,12.7468,12.7603,12.7468,12.74,12.74,12.8009,12.8347,12.8347,12.8889,12.9227,12.9227,12.9904,13.0377,13.058,13.1866,13.2475,13.2475,13.2475,13.2407,13.2204,13.1595,13.1324,13.1324,13.2001,13.1798,13.1189,13.1189,13.1121,13.0918,11.4775,11.3913,11.3461,11.3713,11.3646,11.3502,11.4034,11.4123,11.4351,11.4748,11.4937,11.4549,11.2965,11.3449,11.3657,11.2826,0.0,0.0,11.6281,11.6841,11.7468,11.8094,11.8025,11.8301,11.8922,11.8232,11.8163,11.8784,11.8301,11.8025,11.8025,11.8715,11.9129,11.9267,12.0577,12.1336,12.1474,12.2095,12.2026,0.0,12.0577,11.9336,0.0,11.7128,11.6783,11.6507,11.4369,11.4024,11.4507,0.0,11.6231,11.8508,0.0,12.2578,12.4164,12.5613,12.6579,12.7199,12.7199,12.7199,12.7199,12.7199,12.7199,12.7199,12.7061,0.0,12.6165,0.0,0.0,0.0,0.0,0.0,0.0,0.0,0.0,0.0,0.0,0.0,0.0,0.0,0.0,0.0,0.0,0.0,0.0,12.8686,12.8889,12.9227,12.9904,12.9295,12.8956,12.8956,12.9024,12.9092,12.9092,12.9227,12.9227,12.9227,12.9904,13.058,13.1324,13.2136,13.2475,13.2475,13.2475,13.2136,13.1527,13.1392,13.0986,13.0512,13.1189,13.1121,13.0377,13.0377,12.9971,12.943,11.6435,11.5741,11.5315,11.542,11.5629,11.5793,11.642,11.6404,11.6278,11.6264,11.5223,11.3812,11.196,11.2099,11.1947,11.0888,0.0,0.0,0.0,0.0,11.6605,11.8078,11.7944,11.8568,11.9473,11.9197,11.9473,11.9887,11.9612,11.9405,11.9405,11.9818,12.0094,12.0577,12.1198,12.1681,12.2095,0.0,0.0,0.0,0.0,0.0,0.0,11.8094,11.6783,11.5611,11.5128,11.4783,11.4921,0.0,11.7335,0.0,0.0,12.1612,12.2716,12.3681,12.4923,12.5958,12.6372,12.651,12.6579,12.7061,12.7199,12.7199,12.7199,0.0,12.6923,0.0,0.0,0.0,0.0,0.0,0.0,0.0,12.883,0.0,0.0,0.0,12.6289,0.0,0.0,0.0,0.0,0.0,0.0,0.0,0.0,13.0918,13.0309,12.9971,12.9633,12.9227,12.9227,12.9227,12.9227,12.9227,12.9227,12.9227,12.9904,13.0715,13.1392,13.173,13.2136,13.2475,13.1595,13.0986,13.0715,13.0309,12.9904,12.9701,13.0039,12.9904,12.9701,12.9701,12.9498,12.9227,11.9058,11.8119,11.7564,11.7894,11.819,11.8553,11.8874,11.8661,11.8366,11.7798,0.0,0.0,11.2076,11.1727,0.0,11.0125,0.0,11.282,0.0,0.0,11.6187,11.805,11.8328,0.0,0.0,12.0439,12.0717,12.1267,12.0922,12.0855,12.0855,12.1062,12.1547,12.21,12.2584,12.2789,12.2996,0.0,0.0,12.1405,12.0508,12.0163,12.0301,11.8922,11.7128,11.5404,11.5887,11.5818,11.5611,11.7197,11.7887,0.0,11.9681,12.0715,12.1612,12.2371,12.3681,12.4992,12.5613,12.582,12.6165,12.6992,12.7406,12.7544,0.0,0.0,0.0,0.0,0.0,0.0,0.0,0.0,13.1559,13.0869,0.0,13.0359,12.9862,13.0053,12.9488,0.0,0.0,0.0,0.0,0.0,0.0,0.0,0.0,0.0,13.0715,13.0377,12.9971,12.9227,12.9227,12.9227,12.9227,12.9227,12.9227,12.9227,12.9701,13.0377,13.1121,13.1121,13.1392,13.1798,13.0783,13.0174,12.9971,12.943,12.9227,12.9227,12.9227,12.9227,12.9227,12.9227,12.9227,12.9227,12.3114,12.1573,12.0691,12.1712,12.1826,12.1794,12.1475,12.1005,12.0273,11.9218,0.0,0.0,0.0,0.0,0.0,0.0,0.0,11.4214,11.5271,0.0,11.7054,0.0,0.0,0.0,0.0,12.1964,12.2586,12.3681,12.2164,12.1615,12.2102,12.2795,12.3281,12.3836,12.4877,12.5013,12.4251,12.2996,12.2164,12.1405,11.9818,11.9681,12.0301,0.0,11.8232,11.6921,11.699,0.0,0.0,11.699,11.7473,0.0,0.0,0.0,12.1612,12.2371,12.3681,12.4923,12.4923,12.5475,12.6165,12.6992,0.0,0.0,0.0,0.0,13.008,0.0,13.1214,13.1702,13.1771,13.2033,13.2012,13.1319,13.095,0.0,0.0,13.1614,13.1307,0.0,0.0,0.0,0.0,0.0,0.0,0.0,0.0,0.0,13.1392,13.0715,12.9971,12.9227,12.9227,12.9227,12.9227,12.9227,12.9227,12.9227,12.9227,12.9633,13.0309,13.0309,13.0309,13.0377,13.0309,12.9904,12.9227,12.9227,12.9227,12.9227,12.9227,12.9227,12.9227,12.9227,12.9227,12.9227,12.4582,12.4336,12.365,12.2938,12.3304,12.3715,12.4021,12.3135,12.173,0.0,0.0,0.0,0.0,0.0,11.2303,0.0,0.0,11.4418,11.5668,11.6344,0.0,0.0,0.0,12.0313,0.0,0.0,12.3133,12.4461,12.3975,12.4184,12.5156,12.5366,12.5573,12.5916,12.6202,12.6133,0.0,0.0,0.0,0.0,0.0,11.9405,11.9612,0.0,0.0,11.837,11.7887,11.768,0.0,11.8301,11.8577,11.8922,11.9129,11.9612,12.0025,12.0301,12.1129,0.0,0.0,0.0,12.4785,12.6096,0.0,0.0,0.0,0.0,0.0,0.0,13.0518,13.1214,13.1702,13.2667,13.3432,13.3224,13.3422,13.3826,0.0,13.5477,0.0,0.0,0.0,0.0,0.0,0.0,0.0,0.0,0.0,0.0,0.0,13.2204,13.1392,13.0715,13.0174,12.9904,12.9904,12.943,12.9227,12.9227,12.9227,12.9565,13.0309,12.9768,12.9836,13.0309,12.9768,12.943,12.9227,12.9227,12.9227,12.9227,12.9227,12.9227,12.9227,12.9227,12.9227,12.9227,12.5757,12.6418,12.6197,12.517,12.539,12.5657,12.5483,12.4343,0.0,0.0,11.7789,0.0,0.0,0.0,11.3649,0.0,11.4782,11.5651,11.664,11.7289,0.0,11.9617,11.9974,0.0,0.0,0.0,0.0,12.6052,12.6052,12.6468,12.7294,12.7575,12.785,12.8319,12.7997,12.7727,12.724,12.4879,12.342,0.0,0.0,12.0302,0.0,0.0,11.9957,0.0,0.0,11.8508,11.8577,11.8991,11.9405,11.9612,11.9612,11.9818,12.0025,12.0025,12.037,12.106,12.2302,12.2992,0.0,12.5613,12.6992,0.0,12.8762,0.0,12.9254,0.0,13.0532,13.1021,13.2417,13.3395,13.4233,13.4939,13.5428,13.5988,0.0,13.805,0.0,0.0,0.0,0.0,13.6515,0.0,0.0,0.0,0.0,0.0,0.0,0.0,13.3016,13.2204,13.1527,13.1054,13.1054,13.0106,12.9565,12.9565,12.9295,12.943,12.9904,12.943,12.9498,12.9904,12.943,12.9227,12.9227,12.9227,12.9227,12.9227,12.9227,12.9227,12.9227,12.9227,12.9227,12.9227,12.6932,12.7813,12.8326,12.8326,12.818,12.7592,12.6051,12.4896,12.3203,0.0,11.8539,11.7146,11.6942,11.642,11.6375,11.7275,0.0,0.0,11.8511,11.8657,0.0,0.0,12.1391,12.2728,12.503,0.0,0.0,0.0,12.8075,12.8204,12.8802,12.9584,13.0139,13.0663,13.0534,13.0069,12.8963,12.6538,12.4944,12.3834,12.3067,12.237,12.1743,12.244,0.0,11.9474,11.9267,11.9267,11.9267,11.9267,11.9749,12.0579,12.0579,12.0853,12.1474,12.1474,12.1474,12.1612,12.2302,12.2578,12.313,12.5337,0.0,0.0,0.0,0.0,12.983,0.0,13.1027,13.1238,13.3485,13.4046,13.4893,13.6657,13.7081,13.7221,13.7563,13.9234,13.982,0.0,0.0,13.7684,13.8512,13.7769,0.0,0.0,0.0,13.6399,0.0,0.0,0.0,13.3895,13.3083,13.261,13.261,13.1121,13.0377,13.0377,12.9701,12.9295,12.9295,12.9295,12.9227,12.9227,12.9227,12.9227,12.9227,12.9227,12.9227,12.9227,12.9227,12.9227,12.9227,12.9227,12.9227,12.9227,12.8914,13.0676,13.1483,13.0896,12.9795,12.8694,12.7592,0.0,0.0,0.0,11.9741,11.8401,11.752,11.7427,11.7914,11.8718,11.9669,0.0,0.0,0.0,0.0,12.1582,12.18,12.2562,12.3721,12.4009,0.0,12.7622,12.7743,12.8796,13.0956,13.1747,13.2588,13.3601,13.338,13.2937,13.2346,12.9682,12.7349,12.5352,12.4581,12.409,0.0,0.0,12.3467,12.2354,12.133,12.085,12.085,12.085,12.0989,12.1198,12.1198,12.1131,12.1063,12.1063,12.0925,12.0784,12.1612,12.2164,12.2923,12.4095,12.5626,12.6815,0.0,0.0,0.0,0.0,0.0,13.0114,13.1308,13.3767,13.6161,13.7569,13.9251,14.0586,14.0392,14.0335,0.0,13.8962,0.0,13.8369,13.9363,13.8921,13.8701,13.9187,0.0,0.0,0.0,0.0,0.0,13.6128,13.491,13.4166,13.4166,13.2677,13.1933,13.1933,13.1189,13.0512,12.9971,12.9971,12.9701,12.9227,12.9227,12.9227,12.9227,12.9227,12.9227,12.9227,12.9227,12.9227,12.9227,12.9227,12.9227,12.9227,12.9868,13.1777,13.2805,13.2291,13.119,12.9575,12.7372,0.0,0.0,12.1158,0.0,0.0,0.0,11.8717,11.9106,11.9912,12.0889,0.0,0.0,0.0,0.0,12.297,12.2866,12.3386,12.4482,12.4192,0.0,12.7447,0.0,12.9256,13.1877,13.3037,13.4314,13.552,13.5285,13.4926,13.449,13.1845,12.9783,12.8191,12.7353,0.0,0.0,12.6374,12.5948,12.5169,12.4362,12.3424,12.2557,12.2494,12.2767,12.3117,12.2849,12.2649,12.2377,12.217,12.1824,12.1548,12.2379,12.2448,12.2934,12.3901,12.5154,12.6063,12.6411,12.6893,12.737,0.0,12.8202,12.9259,0.0,13.3269,13.615,13.8744,14.0618,14.173,14.1695,0.0,0.0,0.0,13.8821,0.0,13.9316,13.904,13.8989,13.9317,13.8746,13.8679,0.0,0.0,0.0,13.7481,13.606,13.5316,13.5316,13.3828,13.3219,13.3489,13.2407,13.1527,13.0783,13.0377,12.9904,12.9227,12.9227,12.9227,12.9227,12.9227,12.9227,12.9227,12.9227,12.9227,12.9227,12.9227,12.9227,12.9227,13.0382,13.2071,13.3172,13.2878,13.2071,0.0,0.0,12.5096,0.0,12.0324,0.0,11.9811,0.0,11.9884,12.0178,0.0,0.0,12.238,0.0,12.3188,12.3823,12.4136,12.421,12.4665,12.5773,12.5116,0.0,0.0,0.0,12.9715,13.2124,13.3876,13.5555,13.7015,13.6786,13.6437,13.5937,13.3308,13.2107,13.1437,13.0331,12.9469,12.8989,12.8559,12.7936,12.7482,12.7482,12.6203,12.4504,12.4176,12.4728,12.5363,12.484,12.4645,12.4581,12.4036,12.3412,12.3063,12.3761,12.3482,12.3273,12.4668,12.5291,12.5837,12.6738,12.7047,12.7153,12.7862,12.8075,12.8582,0.0,13.2689,13.5624,14.0089,14.1252,14.1668,0.0,0.0,0.0,0.0,0.0,0.0,13.9064,13.8645,13.8489,13.8963,13.9317,13.9565,0.0,0.0,0.0,13.8293,13.6805,0.0,13.5993,0.0,13.4369,13.5113,13.3489,13.2407,13.1527,13.0783,12.9971,12.9227,12.9227,12.9227,12.9227,12.9227,12.9227,12.9227,12.9227,12.9227,12.9227,12.9227,12.9227,12.9227,13.1777,13.3832,13.4493,0.0,0.0,12.9575,0.0,12.561,12.4582,12.2013,12.1059,0.0,12.0691,12.1279,12.1719,12.1866,12.3188,0.0,0.0,0.0,0.0,12.4483,12.4336,12.4483,12.485,12.463,12.5363,0.0,0.0,12.9954,13.1819,13.4826,13.6733,13.776,13.831,13.7753,13.6524,13.523,13.3934,13.302,13.1455,13.0371,12.9691,12.8925,12.8635,12.8418,12.8418,12.7766,12.6785,12.6834,12.6906,12.6806,12.6683,12.6382,12.5878,12.5948,12.548,12.5152,12.5293,12.5222,12.5152,12.5505,12.5834,12.6288,12.6738,12.704,12.7214,12.7357,12.7682,12.8216,12.9043,0.0,0.0,13.9635,0.0,0.0,0.0,0.0,0.0,0.0,0.0,13.8282,13.8341,13.7632,13.7706,13.8825,13.9169,13.956,14.0685,0.0,13.8949,0.0,13.7617,0.0,0.0,0.0,13.5925,13.6602,13.5113,13.3692,13.2272,13.1527,13.0512,12.9227,12.9227,12.9227,12.9227,12.9227,12.9227,12.9227,12.9227,12.9227,12.9227,12.9227,12.9227,12.9227,13.1703,0.0,0.0,0.0,0.0,0.0,0.0,12.6197,0.0,12.238,12.1793,12.1719,12.2086,12.2527,12.2674,12.2674,12.3775,12.4509,0.0,12.5317,12.5463,12.5096,12.5096,0.0,12.5096,12.4729,12.5317,12.6932,0.0,12.9868,13.2364,13.4787,13.6622,13.7797,13.8164,13.8274,13.7793,13.5847,0.0,13.4275,13.2122,13.1101,13.0701,12.979,12.9389,12.9389,12.9389,12.9095,12.8719,12.8304,12.8188,12.8188,12.7766,12.7482,12.7242,12.7121,12.7163,12.7448,12.7448,12.7448,12.7448,12.7448,12.7214,12.7362,12.741,12.7838,12.8188,12.8072,12.8367,12.894,12.9735,13.1827,0.0,0.0,0.0,0.0,0.0,0.0,0.0,0.0,0.0,13.7636,0.0,0.0,13.798,13.9337,13.9916,14.057,0.0,0.0,13.9937,0.0,0.0,0.0,0.0,0.0,0.0,13.6399,13.5316,13.3963,13.2475,13.173,13.058,12.9227,12.9227,12.9227,12.9227,12.9227,12.9227,12.9227,12.9227,12.9227,12.9227,12.9227,12.9227,12.9227,0.0,13.1777,0.0,0.0,13.0896,0.0,0.0,12.6418,12.4656,12.26,12.238,12.26,12.3188,12.3481,12.3628,12.3775,12.4509,12.5096,12.5317,12.5904,12.6197,12.6197,12.6197,12.6197,12.6197,12.561,12.5904,0.0,0.0,13.0162,13.2731,13.4934,13.6696,13.8017,13.765,13.787,13.8311,0.0,13.4791,13.4713,13.2373,13.142,13.141,13.054,13.0215,13.0215,13.0215,13.0215,13.0109,12.9389,12.9168,12.9279,12.8832,12.8605,12.8491,12.8405,12.8838,12.9415,12.9559,12.9632,12.9632,12.9632,12.9243,12.9039,12.8895,12.9347,12.9497,12.9129,12.9226,12.9559,13.0309,13.1509,0.0,0.0,0.0,0.0,0.0,0.0,0.0,0.0,13.8705,13.754,13.8324,0.0,13.9195,14.0265,14.0803,14.1435,14.1988,0.0,0.0,0.0,0.0,13.7481,13.6128,0.0,13.5722,0.0,13.4707,13.3625,13.2204,13.1527,13.0445,12.9227,12.9227,12.9227,12.9227,12.9227,12.9227,12.9227,12.9227,12.9227,12.9227,12.9227,12.9227,12.9227,0.0,0.0,0.0,0.0,0.0,0.0,0.0,12.517,12.4289,12.3334,12.3188,12.3188,12.3334,12.3995,12.4656,12.539,12.6197,12.7005,12.7666,12.7813,12.7886,12.7886,12.7886,12.7886,12.7886,12.7813,12.7813,0.0,0.0,13.1483,13.1924,13.5815,13.8017,13.8825,13.7356,13.6769,0.0,13.4934,13.3832,13.3025,13.2144,13.119,13.0602,13.0529,13.0529,13.0529,13.0529,13.0529,13.0352,13.0425,13.0215,13.0003,12.993,12.9788,12.9717,13.0445,13.0737,13.0956,13.1611,13.183,13.183,13.183,13.1757,13.1649,13.1138,13.11,13.088,13.0076,12.9644,12.9202,12.9235,13.0654,13.2366,0.0,0.0,0.0,0.0,0.0,13.9878,14.0023,13.9337,13.905,13.9771,14.0761,14.1456,14.2252,14.1397,14.1458,14.2761,14.1541,0.0,14.0889,0.0,13.7684,13.6872,13.5587,0.0,13.491,13.3422,13.2272,13.1527,13.0715,12.9971,12.9227,12.9227,12.9227,12.9227,12.9227,12.9227,12.9227,12.9227,12.9227,12.9227,12.9227,12.9227,12.9227,0.0,0.0,0.0,0.0,0.0,0.0,0.0,12.6124,12.583,12.5537,12.4582,12.4436,12.539,12.5684,12.6271,12.7078,12.7372,12.7813,12.8106,12.8106,12.8106,12.8106,12.8106,12.8106,12.8106,12.8106,12.8326,0.0,0.0,0.0,13.2511,13.5081,13.6475,13.6769,13.5081,13.464,13.5007,13.3392,13.2511,13.2071,13.1263,13.0823,13.0529,13.0529,13.0529,13.0529,13.0529,13.0529,13.0529,13.0529,13.0352,13.0247,13.0247,13.0614,13.1021,13.1314,13.2119,13.2925,13.3218,13.3291,13.3291,13.3291,13.2925,13.2485,13.2299,13.2226,13.2153,13.1786,13.1573,13.1066,13.1028,13.1903,13.2996,0.0,0.0,0.0,0.0,0.0,13.8109,13.9291,13.9584,14.0151,14.1323,14.2436,14.3354,14.3308,14.2946,14.2824,14.3352,14.3036,0.0,14.1636,0.0,13.8979,13.7008,13.5519,13.4301,13.3422,13.2339,13.1527,13.0715,13.0377,12.9904,12.9227,12.9227,12.9227,12.9227,12.9227,12.9227,12.9227,12.9227,12.9227,12.9227,12.9227,12.9227,12.9227,12.6418,0.0,12.7372,0.0,12.7078,12.6932,12.6932,12.7078,12.7299,12.7299,12.6271,12.5977,12.7078,12.7299,12.7592,12.84,12.8473,12.862,12.8767,12.8767,12.8767,12.8767,12.8767,0.0,12.8767,12.8767,12.9061,12.9721,13.1263,0.0,13.2878,13.442,13.5227,0.0,13.3392,13.2878,13.3319,13.1924,13.1263,13.1263,13.0969,13.0896,13.0896,13.1116,13.119,13.119,13.119,13.119,13.119,13.119,13.119,13.119,13.0896,13.119,13.1777,13.2291,13.3172,13.42,13.442,13.4493,13.4493,13.4493,13.4126,13.3612,13.3319,13.3319,13.3172,13.2952,13.2666,13.2632,13.2416,13.3074,13.3622,13.4279,0.0,0.0,0.0,13.6828,13.7703,13.932,14.0555,14.1498,14.2568,14.4003,14.467,0.0,0.0,14.3971,14.4001,14.4087,0.0,0.0,0.0,0.0,0.0,13.5993,13.4234,13.2475,13.1527,13.0715,12.9971,12.9971,12.9701,12.9227,12.9227,12.9227,12.9227,12.9227,12.9227,12.9227,12.9227,12.9227,12.9227,12.9227,12.9227,12.9227,12.561,12.5684,12.5684,12.5684,12.6418,12.6932,12.6932,12.7592,12.8106,12.8106,12.8106,12.8106,12.8106,12.8106,12.84,12.9207,12.9281,12.9648,13.0382,13.0529,13.0529,0.0,0.0,13.0529,13.0529,13.0529,13.0529,13.0529,0.0,0.0,13.2878,13.3686,13.4567,13.5301,13.2805,13.1703,13.1703,13.0896,13.0529,13.0602,13.141,13.1703,13.1777,13.2584,13.2878,13.2878,13.2878,13.2878,13.2878,13.2878,13.2878,13.2731,13.1924,13.1703,13.1997,13.3612,13.4126,13.4273,13.5227,13.5374,13.5374,13.5374,13.5374,13.5081,13.4273,13.4126,13.3906,13.3098,13.2878,13.2952,13.2952,13.3539,13.4126,13.4126,0.0,0.0,0.0,13.8017,13.9338,14.0073,14.1933,14.3354,14.3281,14.4875,0.0,0.0,0.0,0.0,0.0,0.0,0.0,14.397,14.2628,0.0,13.9173,13.7008,13.4707,13.2475,13.0986,12.9904,12.9227,12.9227,12.9227,12.9227,12.9227,12.9227,12.9227,12.9227,12.9227,12.9227,12.9227,12.9227,12.9227,12.9227,12.9227,12.9227,12.7299,12.7299,12.7299,12.7299,12.7519,12.7666,12.7666,12.84,12.8914,12.8914,12.9428,12.9721,12.9721,12.9207,12.9207,0.0,13.0088,13.0235,0.0,13.0529,13.0529,13.0529,13.0529,13.0529,13.0529,13.0529,13.0529,13.0529,0.0,0.0,0.0,13.2584,13.2584,13.2805,13.1483,13.0896,13.0896,13.0602,13.0823,13.1263,13.1557,13.1997,13.2511,13.2805,13.2878,13.2878,13.2878,13.2878,13.2878,13.2878,13.2878,13.3098,13.3906,13.3832,13.3612,13.4713,13.5374,13.5961,13.6769,13.6989,13.6989,13.6989,13.6989,13.6989,13.6696,13.6622,13.6402,13.5594,13.5374,13.5301,13.4713,13.4787,13.5007,13.5007,13.4934,0.0,13.5668,13.7209,13.8898,14.0807,14.2927,14.4306,0.0,14.5336,0.0,0.0,0.0,0.0,0.0,0.0,0.0,0.0,14.1544,0.0,13.7684,13.5519,13.3489,13.173,13.0309,12.943,12.9227,12.9227,12.9227,12.9227,12.9227,12.9227,12.9227,12.9227,12.9227,12.9227,12.9227,12.9227,12.9227,12.9227,12.9227,12.9227,12.8106,12.8106,12.8106,12.8106,12.8326,12.862,12.862,12.9207,12.9795,12.9795,13.0235,13.0529,13.0529,13.0309,0.0,13.0529,13.0823,13.0969,13.0969,13.119,13.1263,13.0969,13.0969,13.0969,13.0969,0.0,0.0,13.141,13.2217,13.3025,13.3832,13.3025,13.2364,13.2071,13.163,13.119,13.0969,13.1263,13.1703,13.2217,13.2511,13.2878,13.3392,13.3686,13.3832,13.3832,13.3832,13.3832,13.3832,13.3832,13.3979,13.4493,13.5521,13.5668,13.5594,13.6108,13.6696,13.7209,13.765,13.7797,13.7797,13.7797,13.7797,13.7797,13.7797,13.7797,13.7577,13.6769,13.6622,13.6402,13.5521,13.5374,13.5374,13.5374,13.4934,13.4934,13.5741,13.7209,13.8971,14.11,14.3074,0.0,0.0,14.4188,0.0,0.0,0.0,0.0,0.0,0.0,0.0,14.1166,14.0587,0.0,13.6602,13.491,13.3219,13.1392,12.9904,12.9227,12.9227,12.9227,12.9362,12.9565,12.9295,12.9362,12.9565,12.9295,12.9227,12.9227,12.9227,12.9227,12.9227,12.9227,12.9227,12.9227,12.8253,12.8253,0.0,0.0,12.8914,0.0,12.9428,13.0088,13.0602,13.0602,13.0602,13.0676,13.0676,13.1336,13.1483,13.0676,0.0,0.0,0.0,13.2511,13.2584,13.1777,13.1777,13.1777,13.1777,13.1777,13.2217,13.2878,13.3612,13.442,13.5227,13.442,13.3612,13.2878,13.2878,13.2511,13.1777,13.2584,13.2878,13.3025,13.3832,13.4126,13.4273,13.5081,13.5374,13.5374,13.5521,13.5521,13.5521,13.5521,13.6108,13.6696,13.6696,13.7283,13.787,13.787,13.787,13.787,13.7944,13.7944,13.7944,13.7944,13.7944,13.7944,13.7944,13.7944,13.7723,13.6916,13.6696,13.6402,13.5594,13.5374,13.5374,13.5374,13.5374,13.5668,13.6622,13.8017,13.9632,14.1321,0.0,0.0,0.0,14.2268,14.1598,0.0,0.0,0.0,0.0,0.0,14.122,13.9649,13.9386,13.7963,13.5587,13.4775,13.3286,13.1189,12.9836,12.9227,12.9295,12.9295,12.9701,13.0309,12.9701,12.9701,13.0309,12.9633,12.9295,12.9295,12.9295,12.9227,12.9227,12.9295,12.9295,12.9295,0.0,0.0,12.9868,12.9868,13.0088,13.0235,13.0235,13.0896,13.141,13.141,13.1997,13.2291,13.2291,13.2511,13.2511,13.2291,13.2511,13.2584,13.2584,13.2805,13.2805,13.2584,13.2584,13.2584,13.2584,13.2584,13.2731,13.2878,13.3098,13.3319,13.3539,13.3319,13.3098,13.2878,13.2878,13.2805,13.2584,13.2805,13.3319,13.3832,13.3979,13.4493,13.5081,13.5301,13.5374,13.5521,13.6108,13.6329,13.6402,13.6989,13.7356,13.7577,13.8237,13.8604,13.8678,13.8678,13.8678,13.8825,13.9485,13.9559,13.9559,13.9559,13.9559,13.9559,13.9559,13.9559,13.9192,13.7797,13.7503,13.7063,13.5668,13.5374,13.5374,13.5374,13.5374,13.5888,13.7283,13.8384,13.9779,14.2128,14.2715,14.2569,14.1835,14.1061,14.0215,0.0,0.0,0.0,0.0,13.7139,13.6422,13.5388,13.4659,13.3532,13.2089,13.1015,12.9971,12.8889,12.9092,12.9498,12.9971,12.9971,13.0377,13.1121,13.0986,13.0986,13.1121,13.0986,13.0512,12.9971,12.9971,12.9701,12.9295,12.9768,12.9971,13.0106,13.163,13.163,13.163,13.163,13.163,13.163,13.163,13.1997,13.2217,13.2217,13.2584,13.2878,13.2878,13.3245,13.3392,13.3392,13.3392,13.3392,13.3392,13.3832,13.3906,13.3465,13.3392,13.3392,13.3392,13.3392,13.3832,13.4567,13.4567,13.4787,13.5081,13.4787,13.442,13.3979,13.3979,13.3832,13.3465,13.3906,13.4273,13.4713,13.4713,13.5007,13.5374,13.5815,13.5888,13.6108,13.6916,13.7063,13.7209,13.765,13.8017,13.8384,13.8898,13.9265,13.9485,13.9485,13.9485,13.9632,14.0073,14.0219,14.0219,14.0219,14.0219,14.0219,14.0219,14.0219,13.9779,13.8604,13.809,13.7356,13.6182,13.5888,13.5888,13.5888,13.6329,13.6916,13.8164,13.8971,13.9999,14.1321,14.1467,14.1027,13.9926,13.8971,13.8054,13.721,13.6617,0.0,13.5304,13.4164,13.3413,13.3398,13.2546,13.1488,12.9941,12.9051,12.8483,12.8144,12.9227,12.9904,13.0309,13.058,13.1189,13.1933,13.1527,13.1595,13.1933,13.1527,13.1189,13.0783,13.0783,13.058,13.0309,13.0715,13.0783,13.0918,13.2878,13.2878,13.2878,13.2878,13.2878,13.2878,13.2878,13.3098,13.3319,13.3319,13.3539,13.3612,13.3612,13.42,13.4713,13.4713,13.4493,13.442,13.4273,13.5007,13.5081,13.4273,13.4273,13.4273,13.4273,13.442,13.5227,13.6622,13.6696,13.7063,13.7797,13.7063,13.6402,13.5815,13.5815,13.5374,13.4713,13.5374,13.5815,13.5815,13.5815,13.5815,13.5815,13.6475,13.6769,13.6916,13.7723,13.8017,13.8017,13.809,13.8604,13.9192,13.9192,13.9632,14.0219,14.0219,14.0219,14.0219,14.0219,14.0219,14.0219,14.0219,14.0219,14.0219,14.0219,14.0219,13.9999,13.9192,13.8458,13.7723,13.6916,13.6769,13.6769,13.6769,13.7356,13.809,13.8898,13.9632,14.0073,14.0219,14.0073,13.9412,13.787,13.7063,13.6329,13.5521,13.5158,13.4421,13.3118,13.2148,13.1822,13.2342,13.1446,13.0106,12.8445,12.8035,12.8009,12.8144,12.9565,13.0377,13.0512,13.1189,13.2001,13.2677,13.2136,13.2272,13.2813,13.2339,13.1933,13.173,13.173,13.1595,13.1392,13.1527,13.1595,13.1595,13.3025,13.2878,13.2878,13.2878,13.2878,13.2878,13.2878,13.4126,13.5007,13.5007,13.6182,13.6989,13.6989,13.7209,13.7209,13.7209,13.6622,13.5888,13.5227,13.5301,13.5301,13.5227,13.5227,13.5227,13.5227,13.5888,13.6329,13.6622,13.7283,13.765,13.7797,13.765,13.7503,13.7356,13.7356,13.7356,13.7209,13.7356,13.7356,13.7356,13.7356,13.7356,13.7356,13.7577,13.7577,13.7723,13.8531,13.8825,13.8898,13.9559,13.9926,13.9999,13.9999,14.0073,14.0219,14.0219,14.0219,14.0219,14.0219,14.0219,14.0219,14.0219,14.0219,14.0219,14.0219,14.0219,13.9999,13.9192,13.8898,13.8604,13.7797,13.7577,13.7577,13.7577,13.765,13.809,13.8898,13.9118,13.9412,14.0073,13.9632,13.8825,13.787,13.7063,13.6329,13.5521,13.5158,13.4533,13.3922,13.2903,13.1933,13.0863,12.8774,12.7497,12.6813,12.7018,12.7468,12.8144,12.9565,13.058,13.1324,13.2001,13.2813,13.3489,13.4098,13.4301,13.4504,13.4978,13.4504,13.3286,13.3286,13.2542,13.1527,13.2136,13.2339,13.2407,13.5081,13.4934,13.4934,13.4934,13.4934,13.5007,13.5521,13.6182,13.6696,13.6696,13.7283,13.7797,13.7797,13.7797,13.7797,13.7797,13.7503,13.7063,13.6696,13.5888,13.5374,13.5374,13.5374,13.5594,13.6035,13.6402,13.6989,13.787,13.8311,13.8678,13.9118,13.8604,13.8384,13.8384,13.8017,13.7797,13.7797,13.7797,13.7797,13.7797,13.7797,13.7797,13.7797,13.8311,13.8384,13.8604,13.9412,13.9632,13.9706,14.0073,14.0219,14.0219,14.0219,14.0219,14.0219,14.0219,14.0219,14.0219,14.0219,14.0219,14.0219,14.0219,14.0219,14.0219,14.0219,14.0219,14.0073,13.9706,13.9265,13.8898,13.8531,13.8384,13.8384,13.8384,13.8825,13.9192,13.9559,13.9632,13.9632,13.9559,13.9192,13.8531,13.7283,13.6769,13.6329,13.5521,13.534,13.4756,13.3965,13.3382,13.2219,13.0423,12.8221,12.7029,12.7025,12.7153,12.7696,12.8686,13.0174,13.1324,13.2001,13.2813,13.3286,13.3692,13.4098,13.4166,13.4301,13.4978,13.491,13.4301,13.4301,13.3895,13.3219,13.3219,13.3083,13.3219,13.6989,13.6916,13.6916,13.6916,13.6916,13.7063,13.765,13.8017,13.809,13.809,13.8164,13.8384,13.8384,13.8384,13.8384,13.8384,13.8164,13.809,13.809,13.6696,13.5961,13.5961,13.5961,13.6182,13.6916,13.7063,13.7797,13.8971,13.9192,13.9632,14.0219,13.9559,13.9265,13.9265,13.8604,13.8384,13.8384,13.8384,13.8384,13.8384,13.8384,13.8384,13.8384,13.8971,13.9265,13.9412,13.9999,14.0219,14.0219,14.0219,14.0219,14.0219,14.0219,14.0219,14.0219,14.0219,14.0219,14.0219,14.0219,14.0219,14.0219,14.0219,14.0219,14.0219,14.0219,14.0219,14.0219,14.0219,13.9706,13.9265,13.9265,13.9265,13.9265,13.9265,13.9779,14.0219,14.0219,14.0219,13.9999,13.9412,13.9118,13.8531,13.7283,13.6989,13.6475,13.5741,13.5668,13.5195,13.4267,13.3777,13.2831,13.1031,12.8642,12.7603,12.806,12.7894,12.8422,12.9593,13.0783,13.1798,13.2542,13.3286,13.3692,13.3692,13.3895,13.3963,13.4031,13.4775,13.4978,13.4775,13.4978,13.4978,13.4775,13.4369,13.4234,13.4234,13.787,13.765,13.765,13.765,13.765,13.7723,13.7797,13.8384,13.8898,13.8898,13.9559,13.9999,13.9999,13.9999,13.9999,13.9999,13.9338,13.8898,13.8898,13.809,13.7577,13.7577,13.7577,13.765,13.765,13.8384,13.8898,13.8971,13.9706,14.0073,14.0219,14.0073,14.0073,14.0073,13.9999,13.9999,13.9999,13.9999,13.9999,13.9999,13.9999,13.9999,13.9999,14.0073,14.0073,14.0073,14.0219,14.0219,14.0219,14.0219,14.0219,14.0219,14.0219,14.0219,14.0219,14.0219,14.0219,14.0219,14.0219,14.0219,14.0219,14.0219,14.0219,14.0219,14.0219,14.0219,14.0219,14.0219,14.0219,14.0073,14.0073,14.0073,14.0073,14.0073,14.0219,14.0219,14.0219,14.0219,14.0219,14.0073,13.9485,13.8971,13.8825,13.809,13.7356,13.6622,13.6475,13.6,13.4939,13.4533,13.3907,13.3045,12.9835,12.8579,12.9338,12.8801,12.9329,13.0893,13.1218,13.1798,13.2542,13.3286,13.3692,13.3692,13.4369,13.4707,13.4775,13.5519,13.5384,13.491,13.5587,13.5384,13.491,13.5519,13.5722,13.5722,13.8678,13.8531,13.8531,13.8531,13.8531,13.8678,13.9192,13.9485,13.9706,13.9706,13.9999,14.0219,14.0219,14.0219,14.0219,14.0219,13.9926,13.9706,13.9706,13.9485,13.8825,13.7797,13.7797,13.8017,13.8531,13.8825,13.9485,14.0513,14.0807,14.088,14.088,14.088,14.066,14.0219,14.0219,14.0219,14.0219,14.0219,14.0219,14.0219,14.0219,14.0219,14.0219,14.0219,14.0219,14.0219,14.0219,14.0219,14.0219,14.0219,14.0219,14.0219,14.0219,14.0219,14.0219,14.0219,14.0219,14.0219,14.0219,14.0219,14.0219,14.0219,14.0219,14.0219,14.0219,14.0219,14.0219,14.0219,14.0219,14.0219,14.0219,14.0219,14.0219,14.0219,14.0219,14.0219,14.0219,14.0219,14.0219,14.0219,13.9926,13.9485,13.9045,13.8678,13.8164,13.7356,13.7283,13.6807,13.5671,13.485,13.4178,13.3565,13.2341,13.1513,13.0843,13.0634,13.0941,13.1709,13.2225,13.2875,13.3286,13.3625,13.3692,13.3692,13.4031,13.4098,13.4166,13.491,13.5113,13.4775,13.5113,13.5316,13.5519,13.5316,13.5519,13.5925,13.9485,13.9412,13.9412,13.9412,13.9412,13.9559,14.0073,14.0219,14.0219,14.0219,14.0219,14.0219,14.0219,14.0219,14.0219,14.0219,14.0219,14.0219,14.0219,14.0219,13.9706,13.8604,13.8751,13.9192,13.9706,13.9999,14.0733,14.1835,14.1835,14.1835,14.1835,14.1541,14.11,14.0586,14.0293,14.0219,14.0219,14.0219,14.0293,14.0586,14.0586,14.0733,14.0954,14.0954,14.0807,14.0586,14.0586,14.0366,14.0219,14.0219,14.0219,14.0219,14.0219,14.0219,14.0219,14.0219,14.0219,14.0219,14.0219,14.0219,14.0219,14.0219,14.0219,14.0219,14.0219,14.0219,14.0219,14.0219,14.0219,14.0219,14.0219,14.0219,14.0219,14.0219,14.0219,14.0219,14.0219,14.0219,14.0219,14.0219,14.0219,13.9999,13.9412,13.9412,13.8971,13.8164,13.8164,13.7687,13.666,13.5838,13.5212,13.4901,13.4865,13.4388,13.3196,13.2358,13.2322,13.2945,13.3097,13.338,13.386,13.376,13.3692,13.3692,13.3692,13.3692,13.3692,13.4234,13.4504,13.4504,13.4707,13.5113,13.5519,13.5181,13.5519,13.5925,14.0219,14.0219,14.0219,14.0219,14.0219,14.0219,14.0219,14.0219,14.0219,14.0219,14.0219,14.0219,14.0219,14.0219,14.0219,14.0219,14.0219,14.0219,14.0219,14.0219,14.0219,14.0219,14.1027,14.1394,14.1394,14.2202,14.2569,14.2569,14.2569,14.2569,14.2569,14.1835,14.1394,14.1394,14.0586,14.0219,14.0219,14.0219,14.066,14.1394,14.1394,14.1908,14.2569,14.2569,14.2128,14.1394,14.1394,14.088,14.0219,14.0219,14.0219,14.0219,14.0219,14.0219,14.0219,14.0219,14.0219,14.0219,14.0219,14.0219,14.0219,14.0219,14.0219,14.0219,14.0219,14.0219,14.0219,14.0219,14.0219,14.0219,14.0219,14.0219,14.0219,14.0219,14.0219,14.0219,14.0219,14.0219,14.0219,14.0219,14.0219,14.0219,14.0219,14.0219,13.9926,13.9118,13.8971,13.8678,13.787,13.7577,13.7421,13.7454,13.7282,13.6927,13.63,13.3999,13.3459,13.45,13.3627,13.3545,13.4293,13.386,13.3692,13.3692,13.3692,13.3692,13.3692,13.3692,13.3692,13.3828,13.4504,13.4775,13.491,13.5587,13.5925,13.5925,14.1908,14.1908,14.1688,14.11,14.1467,14.1467,14.0366,14.066,14.0807,14.0293,14.066,14.1027,14.1027,14.1541,14.1908,14.1908,14.1394,14.0807,14.0219,14.0219,14.0513,14.1027,14.1321,14.1394,14.1394,14.2202,14.2862,14.3376,14.3376,14.3376,14.3376,14.3229,14.2789,14.2202,14.1981,14.1908,14.1908,14.1908,14.1981,14.2202,14.2202,14.2422,14.2569,14.2569,14.2128,14.1394,14.1394,14.088,14.0219,14.0219,14.0219,14.0219,14.0219,14.0219,14.0219,14.0219,14.0219,14.0219,14.0219,14.0219,14.0219,14.0219,14.0219,14.0219,14.0219,14.0219,14.0219,14.0219,14.0219,14.0219,14.0219,14.0219,14.0219,14.0219,14.0219,14.0219,14.0219,14.0219,14.0219,14.0219,14.0219,14.0219,14.0219,14.0219,14.0073,13.9926,13.9338,13.8898,13.8678,13.8494,13.8232,13.7879,13.8402,13.8563,13.8173,13.6793,13.5657,13.4906,13.514,13.507,13.4293,13.4195,13.4028,13.3692,13.3692,13.3692,13.3692,13.3692,13.3692,13.3692,13.3895,13.4301,13.4775,13.4978,13.5519,13.5925,14.2569,14.2569,14.2422,14.1981,14.2275,14.2275,14.1321,14.1614,14.1688,14.1174,14.1614,14.1908,14.1908,14.2275,14.2569,14.2569,14.2202,14.1688,14.1174,14.11,14.1394,14.1908,14.2202,14.2275,14.2275,14.3083,14.3817,14.4257,14.4257,14.4257,14.4257,14.389,14.3523,14.3083,14.2715,14.2569,14.2569,14.2569,14.2789,14.3083,14.3083,14.3303,14.3523,14.3523,14.3009,14.2275,14.2275,14.1614,14.066,14.066,14.0513,14.0219,14.0219,14.0219,14.0219,14.0219,14.0219,14.0219,14.0219,14.0219,14.0219,14.0219,14.0219,14.0219,14.0219,14.0219,14.0219,14.0219,14.0219,14.0219,14.0219,14.0219,14.0219,14.0219,14.0219,14.0219,14.0219,14.0219,14.0219,14.0219,14.0219,14.0219,14.0219,14.0219,14.0219,14.0219,13.9706,13.9485,13.9485,13.9779,13.9702,13.9247,14.0118,14.0526,14.0146,13.9744,13.842,13.6408,13.6585,13.6167,13.5045,13.4787,13.4293,13.3793,13.3692,13.3692,13.3692,13.3692,13.3692,13.3692,13.3692,13.3963,13.4369,13.4369,13.464,13.5046,14.2789,14.2789,14.2789,14.2715,14.2789,14.2789,14.2569,14.2715,14.2715,14.2569,14.2715,14.2715,14.2715,14.2789,14.2789,14.2789,14.2715,14.2715,14.2569,14.2569,14.2569,14.2715,14.3376,14.3817,14.389,14.4624,14.4991,14.4991,14.4991,14.4991,14.4991,14.4257,14.389,14.389,14.3083,14.2789,14.2789,14.2789,14.3229,14.389,14.389,14.4331,14.4991,14.4991,14.4477,14.3817,14.3817,14.2789,14.1394,14.1321,14.0807,14.0219,14.0219,14.0219,14.0219,14.0219,14.0219,14.0219,14.0219,14.0219,14.0219,14.0219,14.0219,14.0219,14.0219,14.0219,14.0219,14.0219,14.0219,14.0219,14.0219,14.0219,14.0219,14.0219,14.0219,14.0219,14.0219,14.0219,14.0219,14.0219,14.0219,14.0219,14.0219,14.0219,14.0219,14.0219,14.0219,14.0219,14.0293,14.1027,14.1355,14.1013,14.2243,14.2568,14.1882,14.2302,14.1356,13.8758,13.8015,13.7033,13.6393,13.5437,13.4719,13.4293,13.386,13.3692,13.3692,13.3692,13.3692,13.3692,13.3692,13.3692,13.3692,13.3692,13.3692,13.3692,14.4477,14.4477,14.4331,14.3596,14.411,14.411,14.2789,14.3083,14.3303,14.2715,14.3083,14.3523,14.3523,14.411,14.4477,14.4477,14.389,14.3303,14.2569,14.2569,14.2862,14.3523,14.367,14.411,14.4698,14.4918,14.4991,14.4991,14.4991,14.4991,14.4991,14.4844,14.4698,14.4698,14.4624,14.4477,14.4477,14.4477,14.4624,14.4698,14.4698,14.4844,14.4991,14.4991,14.4477,14.3817,14.3817,14.2789,14.1321,14.066,14.0293,14.0219,14.0219,14.0219,14.0219,14.0219,14.0219,14.0219,14.0219,14.0219,14.0219,14.0219,14.0219,14.0219,14.0219,14.0219,14.0219,14.0219,14.0219,14.0219,14.0219,14.0219,14.0219,14.0219,14.0219,14.0219,14.0219,14.0219,14.0219,14.0219,14.0219,14.0219,14.0219,14.0219,14.0219,14.0219,14.0219,14.0513,14.11,14.1321,14.1761,14.2162,14.2958,14.3164,14.2928,14.3247,14.2278,14.0262,13.9556,13.8322,13.7033,13.585,13.4951,13.4293,13.386,13.3692,13.3692,13.3692,13.3692,13.3692,13.3692,13.3692,13.3692,13.3692,13.3692,13.3692,14.4991,14.4991,14.4918,14.4404,14.4698,14.4698,14.389,14.411,14.4184,14.3817,14.411,14.4404,14.4404,14.4698,14.4991,14.4991,14.4624,14.4184,14.3817,14.3743,14.389,14.4404,14.4404,14.4624,14.4991,14.4991,14.4991,14.4991,14.4991,14.4991,14.4991,14.4991,14.4991,14.4991,14.4991,14.4991,14.4991,14.4991,14.4991,14.4991,14.4991,14.4991,14.4991,14.4991,14.4698,14.4404,14.4404,14.3303,14.1835,14.0586,14.0219,14.0219,14.0219,14.0219,14.0219,14.0219,14.0219,14.0219,14.0219,14.0219,14.0219,14.0219,14.0219,14.0219,14.0219,14.0219,14.0219,14.0219,14.0219,14.0219,14.0219,14.0219,14.0219,14.0219,14.0219,14.0219,14.0219,14.0219,14.0219,14.0219,14.0219,14.0219,14.0219,14.0219,14.0219,14.0219,14.0586,14.1027,14.1394,14.2128,14.2715,14.3156,14.3849,14.41,14.41,14.4188,14.3733,14.2535,14.1356,13.9981,13.8322,13.7187,13.594,13.4951,13.4361,13.386,13.3692,13.3692,13.3692,13.3692,13.3692,13.3692,13.3692,13.3692,13.3692,13.3692,14.4991,14.4991,14.4991,14.4991,14.4991,14.4991,14.4991,14.4991,14.4991,14.4991,14.4991,14.4991,14.4991,14.4991,14.4991,14.4991,14.4991,14.4991,14.4991,14.4991,14.4991,14.4991,14.4991,14.4991,14.4991,14.4991,14.4991,14.4991,14.4991,14.4991,14.4991,14.4991,14.4991,14.4991,14.4991,14.4991,14.4991,14.4991,14.4991,14.4991,14.4991,14.4991,14.4991,14.4991,14.4991,14.4991,14.4991,14.3964,14.2422,14.088,14.0293,14.0219,14.0219,14.0219,14.0219,14.0219,14.0219,14.0219,14.0219,14.0219,14.0219,14.0219,14.0219,14.0219,14.0219,14.0219,14.0219,14.0219,14.0219,14.0219,14.0219,14.0219,14.0219,14.0219,14.0219,14.0219,14.0219,14.0219,14.0219,14.0219,14.0219,14.0219,14.0219,14.0293,14.0366,14.0366,14.1174,14.1688,14.1835,14.3083,14.389,14.3964,14.4698,14.4991,14.4991,14.4991,14.4876,14.4643,14.3114,14.1561,13.991,13.8687,13.7187,13.553,13.4787,13.4127,13.3692,13.3692,13.3692,13.3692,13.3692,13.3692,13.3692,13.3692,13.3692,13.3692,14.4991,14.4991,14.4991,14.4991,14.4991,14.4991,14.4991,14.4991,14.4991,14.4991,14.4991,14.4991,14.4991,14.4991,14.4991,14.4991,14.4991,14.4991,14.4991,14.4991,14.4991,14.4991,14.4991,14.4991,14.4991,14.4991,14.4991,14.4991,14.4991,14.4991,14.4991,14.4991,14.4991,14.4991,14.4991,14.4991,14.4991,14.4991,14.4991,14.4991,14.4991,14.4991,14.4991,14.4991,14.4991,14.4991,14.4991,14.3964,14.2495,14.1541,14.0807,14.0219,14.0219,14.0219,14.0219,14.0219,14.0219,14.0219,14.0219,14.0219,14.0219,14.0219,14.0219,14.0219,14.0219,14.0219,14.0219,14.0219,14.0219,14.0219,14.0219,14.0219,14.0219,14.0219,14.0219,14.0219,14.0219,14.0219,14.0219,14.0219,14.0219,14.0219,14.0219,14.0807,14.1247,14.1247,14.1981,14.2715,14.3376,14.367,14.411,14.4771,14.4918,14.4991,14.4991,14.4991,14.4991,14.4876,14.4334,14.3042,14.1015,13.9557,13.7876,13.6008,13.5207,13.4458,13.3692,13.3692,13.3692,13.3692,13.3692,13.3692,13.3692,13.3692,13.3692,13.3692,14.4991,14.4991,14.4991,14.4991,14.4991,14.4991,14.4991,14.4991,14.4991,14.4991,14.4991,14.4991,14.4991,14.4991,14.4991,14.4991,14.4991,14.4991,14.4991,14.4991,14.4991,14.4991,14.4991,14.4991,14.4991,14.4991,14.4991,14.4991,14.4991,14.4991,14.4991,14.4991,14.4991,14.4991,14.4991,14.4991,14.4991,14.4991,14.4991,14.4991,14.4991,14.4991,14.4991,14.4991,14.4991,14.4918,14.4037,14.3229,14.2422,14.1174,14.0513,14.0219,14.0219,14.0219,14.0219,14.0219,14.0219,14.0219,14.0219,14.0219,14.0219,14.0219,14.0219,14.0219,14.0219,14.0219,14.0219,14.0219,14.0219,14.0219,14.0219,14.0219,14.0219,14.0219,14.0219,14.0219,14.0219,14.0219,14.0219,14.0219,14.0586,14.088,14.088,14.1614,14.2128,14.2128,14.2789,14.3376,14.3817,14.4184,14.4624,14.4991,14.4991,14.4991,14.4991,14.4991,14.4991,14.4991,14.4949,14.3854,14.2148,14.0743,13.8839,13.6964,13.585,13.4787,13.396,13.386,13.3692,13.3692,13.3692,13.3692,13.3692,13.3692,13.3692,13.3692]},{"header":{"parameterUnit":"m.s-1","parameterCategory":1,"la1":30.6,"la2":28.766,"lo1":-90.7593,"lo2":-88.6598,"dx":0.0162,"dy":0.0183,"nx":116,"ny":114,"refTime":"2022-12-19T06:00:00:Z","depth":0,"parameterNumber":3,"parameterNumberName":"V-component_of_WINDS"},"data":[0.0,0.0,0.0,0.0,0.0,0.0,0.0,0.0,0.0,0.0,0.0,0.0,0.0,0.0,0.0,0.0,0.0,0.0,0.0,0.0,0.0,0.0,0.0,0.0,0.0,0.0,0.0,0.0,0.0,0.0,0.0,0.0,0.0,0.0,0.0,0.0,0.0,0.0,0.0,0.0,0.0,0.0,0.0,0.0,0.0,0.0,0.0,0.0,0.0,0.0,0.0,0.0,0.0,0.0,0.0,0.0,0.0,0.0,0.0,0.0,0.0,0.0,0.0,0.0,0.0,0.0,0.0,0.0,0.0,0.0,0.0,0.0,0.0,0.0,0.0,0.0,0.0,0.0,0.0,0.0,0.0,0.0,0.0,0.0,0.0,0.0,0.0,0.0,0.0,0.0,0.0,0.0,0.0,0.0,0.0,0.0,0.0,0.0,0.0,0.0,0.0,0.0,0.0,0.0,0.0,0.0,0.0,0.0,0.0,0.0,0.0,0.0,0.0,0.0,0.0,0.0,0.0,0.0,0.0,0.0,0.0,0.0,0.0,0.0,0.0,0.0,0.0,0.0,0.0,0.0,0.0,0.0,0.0,0.0,0.0,0.0,0.0,0.0,0.0,0.0,0.0,0.0,0.0,0.0,0.0,0.0,0.0,0.0,0.0,0.0,0.0,0.0,0.0,0.0,0.0,0.0,0.0,0.0,0.0,0.0,0.0,0.0,0.0,0.0,0.0,0.0,0.0,0.0,0.0,0.0,0.0,0.0,0.0,0.0,0.0,0.0,0.0,0.0,0.0,0.0,0.0,0.0,0.0,0.0,0.0,0.0,0.0,0.0,0.0,0.0,0.0,0.0,0.0,0.0,0.0,0.0,0.0,0.0,0.0,0.0,0.0,0.0,0.0,0.0,0.0,0.0,0.0,0.0,0.0,0.0,0.0,0.0,0.0,0.0,0.0,0.0,0.0,0.0,0.0,0.0,0.0,0.0,0.0,0.0,0.0,0.0,0.0,0.0,0.0,0.0,0.0,0.0,0.0,0.0,0.0,0.0,0.0,0.0,0.0,0.0,0.0,0.0,0.0,0.0,0.0,0.0,0.0,0.0,0.0,0.0,0.0,0.0,0.0,0.0,0.0,0.0,0.0,0.0,0.0,0.0,0.0,0.0,0.0,0.0,0.0,0.0,0.0,0.0,0.0,0.0,0.0,0.0,0.0,0.0,0.0,0.0,0.0,0.0,0.0,0.0,0.0,0.0,0.0,0.0,0.0,0.0,0.0,0.0,0.0,0.0,0.0,0.0,0.0,0.0,0.0,0.0,0.0,0.0,0.0,0.0,0.0,0.0,0.0,0.0,0.0,0.0,0.0,0.0,0.0,0.0,0.0,0.0,0.0,0.0,0.0,0.0,0.0,0.0,0.0,0.0,0.0,0.0,0.0,0.0,0.0,0.0,0.0,0.0,0.0,0.0,0.0,0.0,0.0,0.0,0.0,0.0,0.0,0.0,0.0,0.0,0.0,0.0,0.0,0.0,0.0,0.0,0.0,0.0,0.0,0.0,0.0,0.0,0.0,0.0,0.0,0.0,0.0,0.0,0.0,0.0,0.0,0.0,0.0,0.0,0.0,0.0,0.0,0.0,0.0,0.0,0.0,0.0,0.0,0.0,0.0,0.0,0.0,0.0,0.0,0.0,0.0,0.0,0.0,0.0,0.0,0.0,0.0,0.0,0.0,0.0,0.0,0.0,0.0,0.0,0.0,0.0,0.0,0.0,0.0,0.0,0.0,0.0,0.0,0.0,0.0,0.0,0.0,0.0,0.0,0.0,0.0,0.0,0.0,0.0,0.0,0.0,0.0,0.0,0.0,0.0,0.0,0.0,0.0,0.0,0.0,0.0,0.0,0.0,0.0,0.0,0.0,0.0,0.0,0.0,0.0,0.0,0.0,0.0,0.0,0.0,0.0,0.0,0.0,0.0,0.0,0.0,0.0,0.0,0.0,0.0,0.0,0.0,0.0,0.0,0.0,0.0,0.0,0.0,0.0,0.0,0.0,0.0,0.0,0.0,0.0,0.0,0.0,0.0,0.0,0.0,0.0,0.0,0.0,0.0,0.0,0.0,0.0,0.0,0.0,0.0,0.0,0.0,0.0,0.0,0.0,0.0,0.0,0.0,0.0,0.0,0.0,0.0,0.0,0.0,0.0,0.0,0.0,0.0,0.0,0.0,0.0,0.0,0.0,0.0,0.0,0.0,0.0,0.0,0.0,0.0,0.0,0.0,0.0,0.0,0.0,0.0,0.0,0.0,0.0,0.0,0.0,0.0,0.0,0.0,0.0,0.0,0.0,0.0,0.0,0.0,0.0,0.0,0.0,0.0,0.0,0.0,0.0,0.0,0.0,0.0,0.0,0.0,0.0,0.0,0.0,0.0,0.0,0.0,0.0,0.0,0.0,0.0,0.0,0.0,0.0,0.0,0.0,0.0,0.0,0.0,0.0,0.0,0.0,0.0,0.0,0.0,0.0,0.0,0.0,0.0,0.0,0.0,0.0,0.0,0.0,0.0,0.0,0.0,0.0,0.0,0.0,0.0,0.0,0.0,0.0,0.0,0.0,0.0,0.0,0.0,0.0,0.0,0.0,0.0,0.0,0.0,0.0,0.0,0.0,0.0,0.0,0.0,0.0,0.0,0.0,0.0,0.0,0.0,0.0,0.0,0.0,0.0,0.0,0.0,0.0,0.0,0.0,0.0,0.0,0.0,0.0,0.0,0.0,0.0,0.0,0.0,0.0,0.0,0.0,0.0,0.0,0.0,0.0,0.0,0.0,0.0,0.0,0.0,0.0,0.0,0.0,0.0,0.0,0.0,0.0,0.0,0.0,0.0,0.0,0.0,0.0,0.0,0.0,0.0,0.0,0.0,0.0,0.0,0.0,0.0,0.0,0.0,0.0,0.0,0.0,0.0,0.0,0.0,0.0,0.0,0.0,0.0,0.0,0.0,0.0,0.0,0.0,0.0,0.0,0.0,0.0,0.0,0.0,0.0,0.0,0.0,0.0,0.0,0.0,0.0,0.0,0.0,0.0,0.0,0.0,0.0,0.0,0.0,0.0,0.0,0.0,0.0,0.0,0.0,0.0,0.0,0.0,0.0,0.0,0.0,0.0,0.0,0.0,0.0,0.0,0.0,0.0,0.0,0.0,0.0,0.0,0.0,0.0,0.0,0.0,0.0,0.0,0.0,0.0,0.0,0.0,0.0,0.0,0.0,0.0,0.0,0.0,0.0,0.0,0.0,0.0,0.0,0.0,0.0,0.0,0.0,0.0,0.0,0.0,0.0,0.0,0.0,0.0,0.0,0.0,0.0,0.0,0.0,0.0,0.0,0.0,0.0,0.0,0.0,0.0,0.0,0.0,0.0,0.0,0.0,0.0,0.0,0.0,0.0,0.0,0.0,0.0,0.0,0.0,0.0,0.0,0.0,0.0,0.0,0.0,0.0,0.0,0.0,0.0,0.0,0.0,0.0,0.0,0.0,0.0,0.0,0.0,0.0,0.0,0.0,0.0,0.0,0.0,0.0,0.0,0.0,0.0,0.0,0.0,0.0,0.0,0.0,0.0,0.0,0.0,0.0,0.0,0.0,0.0,0.0,0.0,0.0,0.0,0.0,0.0,0.0,0.0,0.0,0.0,0.0,0.0,0.0,0.0,0.0,0.0,0.0,0.0,0.0,0.0,0.0,0.0,0.0,0.0,0.0,0.0,0.0,0.0,0.0,0.0,0.0,0.0,0.0,0.0,0.0,0.0,0.0,0.0,0.0,0.0,0.0,0.0,0.0,0.0,0.0,0.0,0.0,0.0,0.0,0.0,0.0,0.0,0.0,0.0,0.0,0.0,0.0,0.0,0.0,0.0,0.0,0.0,0.0,0.0,0.0,0.0,0.0,0.0,0.0,0.0,0.0,0.0,0.0,0.0,0.0,0.0,0.0,0.0,0.0,0.0,0.0,0.0,0.0,0.0,0.0,0.0,0.0,0.0,0.0,0.0,0.0,0.0,0.0,0.0,0.0,0.0,0.0,0.0,0.0,0.0,0.0,0.0,0.0,0.0,0.0,0.0,0.0,0.0,0.0,0.0,0.0,0.0,0.0,0.0,0.0,0.0,0.0,0.0,0.0,0.0,0.0,0.0,0.0,0.0,0.0,0.0,0.0,0.0,0.0,0.0,0.0,0.0,0.0,0.0,0.0,0.0,0.0,0.0,0.0,0.0,0.0,0.0,0.0,0.0,0.0,0.0,0.0,0.0,0.0,0.0,0.0,0.0,0.0,0.0,0.0,0.0,0.0,0.0,0.0,0.0,0.0,0.0,0.0,0.0,0.0,0.0,0.0,0.0,0.0,0.0,0.0,0.0,0.0,0.0,0.0,0.0,0.0,0.0,0.0,0.0,0.0,0.0,0.0,0.0,0.0,0.0,0.0,0.0,0.0,0.0,0.0,0.0,0.0,0.0,0.0,0.0,0.0,0.0,0.0,0.0,0.0,0.0,0.0,0.0,0.0,0.0,0.0,0.0,0.0,0.0,0.0,0.0,0.0,0.0,0.0,0.0,0.0,0.0,0.0,0.0,0.0,0.0,0.0,0.0,0.0,0.0,0.0,0.0,0.0,0.0,0.0,0.0,0.0,0.0,0.0,0.0,0.0,0.0,0.0,0.0,0.0,0.0,0.0,0.0,0.0,0.0,0.0,0.0,0.0,0.0,0.0,0.0,0.0,0.0,0.0,0.0,0.0,0.0,0.0,0.0,0.0,0.0,0.0,0.0,0.0,0.0,0.0,0.0,0.0,0.0,0.0,0.0,0.0,0.0,0.0,0.0,0.0,0.0,0.0,0.0,0.0,0.0,0.0,0.0,0.0,0.0,0.0,0.0,0.0,0.0,0.0,0.0,0.0,0.0,0.0,0.0,0.0,0.0,0.0,0.0,0.0,0.0,0.0,0.0,0.0,0.0,0.0,0.0,0.0,0.0,0.0,0.0,0.0,0.0,0.0,0.0,0.0,0.0,0.0,0.0,0.0,0.0,0.0,0.0,0.0,0.0,0.0,0.0,0.0,0.0,0.0,0.0,0.0,0.0,0.0,0.0,0.0,0.0,0.0,0.0,0.0,0.0,0.0,0.0,0.0,0.0,0.0,0.0,0.0,0.0,0.0,0.0,0.0,0.0,0.0,0.0,0.0,0.0,0.0,0.0,0.0,0.0,0.0,0.0,0.0,0.0,0.0,0.0,0.0,0.0,0.0,0.0,0.0,0.0,0.0,0.0,0.0,0.0,0.0,0.0,0.0,0.0,0.0,0.0,0.0,0.0,0.0,0.0,0.0,0.0,0.0,0.0,0.0,0.0,0.0,0.0,0.0,0.0,0.0,0.0,0.0,0.0,0.0,0.0,0.0,0.0,0.0,0.0,0.0,0.0,0.0,0.0,0.0,0.0,0.0,0.0,0.0,0.0,0.0,0.0,0.0,0.0,0.0,0.0,0.0,0.0,0.0,0.0,0.0,0.0,0.0,0.0,0.0,0.0,0.0,0.0,0.0,0.0,0.0,0.0,0.0,0.0,0.0,0.0,0.0,0.0,0.0,0.0,0.0,0.0,0.0,0.0,0.0,0.0,0.0,0.0,0.0,0.0,0.0,0.0,0.0,0.0,0.0,0.0,0.0,0.0,0.0,0.0,0.0,0.0,0.0,0.0,0.0,0.0,0.0,0.0,0.0,0.0,0.0,0.0,0.0,0.0,0.0,0.0,0.0,0.0,0.0,0.0,0.0,0.0,0.0,0.0,0.0,0.0,0.0,0.0,0.0,0.0,0.0,0.0,0.0,0.0,0.0,0.0,0.0,0.0,0.0,0.0,0.0,0.0,0.0,0.0,0.0,0.0,0.0,0.0,0.0,0.0,0.0,0.0,0.0,0.0,0.0,0.0,0.0,0.0,0.0,0.0,0.0,0.0,0.0,0.0,0.0,0.0,0.0,0.0,0.0,0.0,0.0,0.0,0.0,0.0,0.0,0.0,0.0,0.0,0.0,0.0,0.0,0.0,0.0,0.0,0.0,0.0,0.0,0.0,0.0,0.0,0.0,0.0,0.0,-6.5976,0.0,0.0,0.0,0.0,0.0,0.0,0.0,0.0,0.0,0.0,0.0,0.0,0.0,0.0,0.0,0.0,0.0,0.0,0.0,0.0,0.0,0.0,0.0,0.0,-4.8828,-4.9101,-4.9766,-4.9844,0.0,0.0,0.0,0.0,0.0,0.0,0.0,0.0,0.0,-5.0898,-5.1094,-5.1328,-5.1641,-5.2031,-5.2031,-5.168,-5.1094,0.0,0.0,0.0,0.0,0.0,0.0,0.0,0.0,0.0,0.0,0.0,0.0,0.0,0.0,0.0,0.0,0.0,0.0,0.0,0.0,0.0,0.0,0.0,0.0,0.0,0.0,0.0,0.0,0.0,0.0,0.0,0.0,0.0,0.0,0.0,0.0,0.0,0.0,0.0,0.0,0.0,0.0,0.0,0.0,0.0,0.0,0.0,0.0,0.0,0.0,0.0,0.0,0.0,0.0,0.0,0.0,0.0,0.0,0.0,0.0,0.0,0.0,0.0,0.0,0.0,0.0,0.0,0.0,0.0,0.0,0.0,-6.7265,0.0,0.0,0.0,0.0,0.0,0.0,0.0,0.0,0.0,0.0,0.0,0.0,0.0,0.0,0.0,0.0,0.0,0.0,0.0,0.0,0.0,-4.875,-4.957,-4.9687,-4.9961,-5.0469,-5.0508,-5.0586,-5.0742,-5.0664,0.0,0.0,0.0,0.0,-5.125,-5.1601,-5.1992,-5.2422,-5.25,-5.2969,-5.3828,-5.418,-5.3828,-5.2851,-5.2461,0.0,0.0,0.0,0.0,0.0,0.0,0.0,0.0,0.0,0.0,0.0,0.0,0.0,0.0,0.0,0.0,0.0,0.0,0.0,0.0,0.0,0.0,0.0,0.0,0.0,0.0,0.0,0.0,0.0,0.0,0.0,0.0,0.0,0.0,0.0,0.0,0.0,0.0,0.0,0.0,0.0,0.0,0.0,0.0,0.0,0.0,0.0,0.0,0.0,0.0,0.0,0.0,0.0,0.0,0.0,0.0,0.0,0.0,0.0,0.0,0.0,0.0,0.0,0.0,0.0,-7.0859,-7.1289,-7.1484,-7.1367,-6.9609,-6.8984,-6.9219,0.0,0.0,0.0,0.0,0.0,0.0,0.0,0.0,0.0,0.0,0.0,0.0,0.0,0.0,0.0,0.0,0.0,0.0,0.0,0.0,-4.9531,-5.0039,-5.043,-5.0976,-5.1758,-5.1836,-5.2148,-5.2891,-5.2578,0.0,0.0,0.0,0.0,-5.3008,-5.3086,-5.332,-5.3789,-5.4141,-5.4765,-5.5586,-5.5664,-5.5781,-5.5898,-5.4023,-5.3164,-5.3086,0.0,0.0,0.0,0.0,0.0,0.0,0.0,0.0,0.0,0.0,0.0,0.0,0.0,0.0,0.0,0.0,0.0,0.0,0.0,0.0,0.0,0.0,0.0,0.0,0.0,0.0,0.0,0.0,0.0,0.0,0.0,0.0,0.0,0.0,0.0,0.0,0.0,0.0,0.0,0.0,0.0,0.0,-6.168,0.0,0.0,0.0,0.0,0.0,0.0,0.0,0.0,0.0,0.0,0.0,0.0,0.0,0.0,-6.8281,-6.8828,-6.9336,-6.9844,-7.0742,-7.1172,-7.1289,-7.1719,-7.1914,-7.1875,-7.1601,0.0,-7.1015,-7.0976,0.0,0.0,0.0,0.0,0.0,0.0,0.0,0.0,0.0,0.0,0.0,0.0,0.0,0.0,0.0,0.0,0.0,0.0,0.0,0.0,0.0,-5.1641,-5.2305,-5.3437,-5.332,-5.3437,-5.4062,-5.3711,0.0,0.0,0.0,-5.4258,-5.4453,-5.4922,-5.5273,-5.5469,-5.6133,-5.664,-5.7031,-5.7539,-5.7851,-5.7969,-5.6797,-5.5586,-5.4414,-5.3984,0.0,0.0,0.0,0.0,0.0,0.0,0.0,0.0,0.0,0.0,0.0,0.0,0.0,0.0,0.0,0.0,0.0,0.0,0.0,0.0,0.0,0.0,0.0,0.0,0.0,0.0,0.0,0.0,0.0,0.0,0.0,0.0,0.0,0.0,0.0,0.0,0.0,0.0,0.0,-6.0547,-6.2695,-6.4023,-6.5312,-6.6055,0.0,0.0,0.0,0.0,0.0,0.0,0.0,0.0,0.0,-6.8594,-6.9062,-6.9336,-6.9531,-7.0195,-7.0742,-7.1172,-7.1836,-7.2226,-7.2461,-7.293,-7.2969,-7.2734,-7.2969,-7.2969,-7.2812,-7.2305,-7.2109,-7.207,0.0,0.0,0.0,0.0,0.0,0.0,0.0,0.0,0.0,0.0,0.0,0.0,0.0,0.0,0.0,0.0,0.0,0.0,-5.2461,-5.3164,-5.4023,-5.5234,-5.5039,-5.5039,-5.5469,-5.5,-5.4687,-5.4687,-5.5312,-5.5703,-5.5781,-5.664,-5.707,-5.707,-5.793,-5.8437,-5.8555,-5.9297,-5.9726,-5.9805,-5.9492,-5.8125,-5.6094,-5.5664,-5.5234,-5.4844,0.0,0.0,0.0,0.0,0.0,0.0,0.0,0.0,0.0,0.0,0.0,0.0,0.0,0.0,0.0,0.0,0.0,0.0,0.0,0.0,0.0,0.0,0.0,0.0,0.0,0.0,0.0,0.0,0.0,0.0,0.0,0.0,0.0,0.0,0.0,0.0,0.0,-6.2344,0.0,-6.6055,-6.7265,-6.8008,0.0,0.0,0.0,0.0,0.0,0.0,0.0,-6.9062,-6.9492,-7.0234,-7.0664,-7.0898,-7.0898,-7.1523,-7.1992,-7.2344,-7.2812,-7.3203,-7.3476,-7.3906,-7.3945,-7.3672,-7.3984,-7.414,-7.4062,-7.332,-7.3086,-7.3164,-7.2695,-7.2109,0.0,-7.1406,-7.1172,-7.1015,0.0,0.0,0.0,0.0,0.0,0.0,0.0,0.0,0.0,0.0,0.0,-5.25,-5.3789,-5.5039,-5.6133,-5.6992,-5.707,-5.7226,-5.7695,-5.6914,-5.6445,-5.6445,-5.6484,-5.6719,-5.7109,-5.7969,-5.8437,-5.8437,-5.9297,-5.9922,-6.0312,-6.0781,-6.1211,-6.1601,-6.1562,-6.039,-5.8359,-5.789,-5.7461,-5.7031,-5.7031,0.0,0.0,0.0,0.0,0.0,0.0,0.0,0.0,0.0,0.0,0.0,0.0,0.0,0.0,0.0,0.0,0.0,0.0,0.0,0.0,0.0,0.0,0.0,0.0,0.0,0.0,0.0,0.0,0.0,0.0,0.0,0.0,0.0,0.0,0.0,0.0,0.0,0.0,-6.7851,-6.8828,0.0,0.0,0.0,0.0,0.0,-6.9453,-7.0078,-7.0547,-7.1367,-7.2031,-7.25,-7.293,-7.3164,-7.3164,-7.3203,-7.3203,-7.3242,-7.3672,-7.3906,-7.3945,-7.4375,-7.4531,-7.4531,-7.4531,-7.4531,-7.4531,-7.4101,-7.414,-7.4492,-7.4023,-7.3867,-7.375,-7.332,-7.3203,-7.3164,0.0,0.0,0.0,-4.8867,-4.9101,-4.9336,-4.9492,-5.0234,-5.1016,-5.1758,-5.2969,-5.4258,-5.5547,-5.6562,-5.7656,-5.8789,-5.8672,-5.8555,-5.8711,-5.8437,-5.8125,-5.7851,-5.8359,-5.8828,-5.9297,-5.9883,-6.0156,-6.0156,-6.1328,-6.1953,-6.2109,-6.2812,-6.3242,-6.3398,-6.3398,-6.2969,-6.2187,-6.0625,-5.9531,-5.8867,-5.8867,-5.8476,0.0,0.0,0.0,0.0,0.0,0.0,0.0,0.0,0.0,0.0,0.0,0.0,0.0,0.0,0.0,0.0,0.0,0.0,0.0,0.0,0.0,0.0,0.0,0.0,0.0,0.0,0.0,0.0,0.0,0.0,0.0,0.0,0.0,0.0,0.0,0.0,0.0,-6.918,-6.9922,0.0,0.0,-7.0664,-7.0625,-7.0508,-7.0742,-7.125,-7.1953,-7.2265,-7.2617,-7.3086,-7.3242,-7.332,-7.332,-7.332,-7.3437,-7.375,-7.3906,-7.4101,-7.4375,-7.4531,-7.4609,-7.4609,-7.4609,-7.4609,-7.4609,-7.4414,-7.4492,-7.4609,-7.4414,-7.4219,-7.3984,-7.4062,-7.3945,-7.3789,0.0,-4.9219,0.0,-4.9101,-4.9453,-4.9805,-4.9922,-5.0781,-5.168,-5.2422,-5.3906,-5.543,-5.6875,-5.793,-5.8984,-6.0156,-6.0,-5.9805,-5.9805,-5.9687,-5.9531,-5.9414,-6.0078,-6.0547,-6.0859,-6.1445,-6.1719,-6.1719,-6.3047,-6.375,-6.3906,-6.4609,-6.5,-6.5195,-6.5195,-6.5195,-6.5078,-6.3515,-6.2187,-6.1094,-6.0976,-6.039,-5.9531,0.0,0.0,0.0,0.0,0.0,0.0,0.0,0.0,0.0,0.0,0.0,0.0,0.0,0.0,0.0,0.0,0.0,0.0,0.0,0.0,0.0,0.0,0.0,0.0,0.0,0.0,0.0,0.0,0.0,0.0,0.0,0.0,0.0,0.0,0.0,-6.8203,-6.9883,-7.0469,-7.0898,-7.1328,-7.1484,-7.1601,-7.1601,-7.1875,-7.2344,-7.3086,-7.3086,-7.332,-7.3711,-7.375,-7.375,-7.375,-7.375,-7.3906,-7.418,-7.418,-7.4297,-7.4609,-7.4609,-7.4609,-7.4609,-7.4414,-7.4375,-7.4375,-7.4258,-7.418,-7.418,-7.4492,-7.4414,-7.4219,-7.4492,-7.4414,-7.418,-4.9726,-4.9883,-5.0039,-4.9609,-4.9922,-5.0351,-5.0742,-5.1211,-5.1953,-5.3242,-5.457,-5.6015,-5.7734,-5.9062,-6.0195,-6.1015,-6.1094,-6.1094,-6.1094,-6.0742,-6.0664,-6.1133,-6.1562,-6.1758,-6.1758,-6.2617,-6.3086,-6.3086,-6.4375,-6.5234,-6.5664,-6.6094,-6.6523,-6.6914,-6.6914,-6.6914,-6.6875,-6.6445,-6.5351,-6.3789,-6.3281,-6.2539,-6.164,0.0,0.0,0.0,0.0,0.0,0.0,0.0,0.0,0.0,0.0,0.0,0.0,0.0,0.0,0.0,0.0,0.0,0.0,0.0,0.0,0.0,0.0,0.0,0.0,0.0,0.0,0.0,0.0,0.0,0.0,0.0,0.0,0.0,-6.6406,-6.7773,-6.918,-7.0039,-7.0508,-7.0937,-7.1367,-7.1758,-7.207,-7.207,-7.2851,-7.3555,-7.3984,-7.3984,-7.418,-7.4609,-7.4609,-7.4609,-7.4609,-7.4609,-7.4609,-7.4609,-7.4609,-7.4609,-7.4609,-7.4609,-7.457,-7.4531,-7.414,-7.3945,-7.3906,-7.3476,-7.332,-7.3398,-7.4258,-7.4531,-7.4531,-7.4531,-7.4531,-7.4531,-5.0117,-5.0078,-5.0156,-5.0,-5.0351,-5.0781,-5.1211,-5.2148,-5.3281,-5.4609,-5.6172,-5.7695,-5.9101,-6.0156,-6.0976,-6.1484,-6.1562,-6.1562,-6.1562,-6.1719,-6.2031,-6.2461,-6.293,-6.3164,-6.3164,-6.3984,-6.457,-6.4883,-6.5859,-6.6562,-6.6992,-6.7422,-6.7734,-6.7851,-6.7851,-6.7851,-6.7851,-6.7734,-6.7383,-6.6797,-6.4765,-6.3437,-6.2617,0.0,0.0,0.0,0.0,0.0,0.0,0.0,0.0,0.0,0.0,0.0,0.0,0.0,0.0,0.0,0.0,0.0,0.0,0.0,0.0,0.0,0.0,0.0,0.0,0.0,0.0,0.0,0.0,0.0,0.0,0.0,0.0,-6.8008,-6.8086,-6.9062,-7.0039,-7.0898,-7.1367,-7.1836,-7.2305,-7.2695,-7.3086,-7.3398,-7.3672,-7.3984,-7.4414,-7.4414,-7.4492,-7.4609,-7.4609,-7.4609,-7.4609,-7.4609,-7.4609,-7.4609,-7.4609,-7.4414,-7.414,-7.414,-7.3945,-7.3672,-7.3555,-7.3476,-7.3476,-7.3359,-7.332,-7.332,-7.3555,-7.3672,-7.3672,-7.3672,-7.3867,-7.414,-5.0508,-5.0586,-5.0664,-5.0469,-5.0781,-5.1211,-5.1641,-5.2656,-5.3828,-5.5117,-5.6797,-5.8359,-5.9687,-6.0586,-6.125,-6.168,-6.1875,-6.1992,-6.1992,-6.2578,-6.3125,-6.3555,0.0,-6.4297,-6.4492,-6.5312,-6.5859,-6.6133,-6.6992,-6.7734,-6.832,-6.8594,-6.8945,-6.9219,-6.9219,-6.9219,-6.9219,-6.9062,-6.8867,-6.8555,-6.668,-6.5312,-6.4297,-6.3867,-6.332,-6.2812,-6.2812,-6.2812,-6.2812,-6.2812,0.0,0.0,0.0,0.0,0.0,0.0,0.0,0.0,0.0,0.0,0.0,0.0,0.0,0.0,0.0,0.0,0.0,0.0,0.0,0.0,0.0,0.0,0.0,0.0,-6.8125,-6.9453,-7.0078,-7.0547,-7.1055,-7.1601,-7.2187,-7.2617,-7.293,-7.332,-7.3672,-7.3945,-7.414,-7.4297,-7.4609,-7.4414,-7.4297,-7.4297,-7.414,-7.4062,-7.4062,-7.4062,-7.4062,-7.4062,-7.4062,-7.3945,-7.3672,-7.3672,-7.3555,0.0,-7.3125,-7.3047,-7.3047,-7.2851,-7.2734,0.0,0.0,0.0,0.0,0.0,-7.3476,-7.3672,-5.0976,-5.1172,-5.1328,-5.0937,-5.1172,-5.1601,-5.207,-5.2891,-5.3906,-5.5273,-5.6914,-5.8437,-5.9765,-6.0625,-6.125,-6.168,-6.2109,-6.2422,-6.25,-6.3281,-6.3984,-6.4375,-6.4844,-6.5273,-6.5703,-6.6562,-6.7031,-6.7109,-6.789,-6.875,-6.9531,-6.957,-6.9961,-7.0703,-7.0703,-7.0703,-7.0703,-7.0312,-6.9922,-6.9531,-6.875,-6.7617,-6.6328,-6.5898,-6.5234,-6.4609,-6.4531,-6.4531,-6.4531,-6.4492,0.0,0.0,0.0,0.0,0.0,0.0,0.0,0.0,0.0,0.0,0.0,0.0,0.0,0.0,0.0,0.0,0.0,0.0,0.0,0.0,0.0,0.0,0.0,0.0,-6.9726,-7.1055,-7.1953,-7.2148,-7.2226,-7.2148,-7.2851,-7.3398,-7.3398,-7.375,-7.3984,-7.3984,-7.4258,-7.4453,0.0,0.0,0.0,0.0,0.0,-7.332,-7.332,-7.332,-7.332,-7.332,-7.332,-7.332,-7.3242,-7.3242,-7.3203,-7.3164,-7.2773,-7.2617,-7.2578,-7.2187,-7.1992,-7.207,-7.2851,-7.3164,-7.3203,-7.3203,-7.3242,0.0,-5.1406,-5.1367,-5.1406,-5.1328,-5.1367,-5.168,-5.2461,-5.332,-5.4492,-5.6133,-5.7539,-5.8867,-6.0156,-6.0781,-6.125,-6.168,-6.2109,-6.2656,-6.3398,-6.3906,-6.4375,-6.4805,-6.5586,-6.6172,-6.664,-6.75,-6.8086,-6.8437,-6.8945,-6.9453,-6.9961,-7.0312,-7.0547,-7.0703,-7.0703,-7.0703,-7.0703,-7.0625,-7.0547,-7.043,-7.0312,-6.9062,-6.7187,-6.6797,-6.6523,-6.6328,-6.5976,-6.5859,-6.582,-6.5469,-6.5351,-6.5469,-6.625,-6.6523,0.0,0.0,0.0,0.0,0.0,0.0,0.0,0.0,0.0,0.0,0.0,0.0,0.0,0.0,0.0,0.0,0.0,0.0,0.0,-6.9062,-7.039,-7.1523,-7.2461,-7.3164,-7.3437,-7.3086,-7.3515,-7.3828,-7.3828,-7.3906,-7.3984,-7.3984,-7.3711,-7.3555,-7.3555,-7.3476,0.0,-7.3437,-7.3359,-7.332,-7.332,-7.332,-7.332,-7.332,0.0,0.0,-7.2812,-7.2812,-7.2617,-7.2226,-7.2187,-7.2109,-7.2109,-7.2031,-7.1992,-7.1992,-7.2187,-7.2226,-7.2305,-7.2695,-7.2812,-7.2851,-5.1523,-5.1445,-5.1445,-5.1445,-5.1445,-5.1719,-5.2578,-5.3476,-5.457,-5.6055,-5.7578,-5.8945,-6.0,-6.0703,-6.125,-6.168,-6.2305,-6.3047,-6.3945,-6.418,-6.4609,-6.5234,-6.5859,-6.6523,-6.7148,-6.8047,-6.8711,-6.914,-6.957,-7.0078,-7.0742,-7.0976,-7.1133,-7.1367,-7.1367,-7.1367,-7.1367,-7.1367,-7.125,-7.1055,-7.1055,-7.0273,-6.9062,-6.8437,-6.789,-6.75,-6.7265,-6.7187,-6.7148,-6.6953,-6.6914,-6.6992,-6.7656,-6.7695,-6.7617,0.0,0.0,0.0,0.0,0.0,0.0,0.0,0.0,0.0,0.0,0.0,0.0,0.0,0.0,-6.8242,0.0,0.0,-6.9726,-7.0586,-7.164,-7.2656,-7.3515,-7.4023,-7.414,-7.3672,-7.4023,-7.418,-7.3984,-7.3984,-7.3867,-7.3672,-7.3437,-7.332,-7.332,-7.3125,-7.2969,-7.2969,-7.2812,-7.2617,-7.2617,-7.2617,-7.2617,-7.2617,-7.2617,-7.2578,-7.2344,-7.2344,-7.2226,-7.1992,-7.1992,-7.1992,-7.1992,-7.1992,-7.1992,-7.1992,-7.1992,-7.1992,-7.1992,-7.2265,-7.2344,-7.2383,-5.1641,-5.1484,-5.1445,-5.1445,-5.1445,-5.168,-5.2461,-5.332,-5.4375,-5.5625,-5.7187,-5.8555,-5.957,-6.039,-6.1133,-6.1875,-6.2617,-6.3398,0.0,-6.4297,-6.4726,-6.5547,-6.6055,-6.6758,-6.7617,-6.8476,-6.9101,-6.9453,-6.9961,-7.0547,-7.125,-7.1406,-7.164,-7.1992,-7.1992,-7.1992,-7.1992,-7.1992,-7.1836,-7.1484,-7.1484,-7.125,-7.0781,-7.0,-6.9219,-6.8555,-6.8359,-6.832,-6.8281,-6.8203,-6.8203,-6.8242,-6.8711,-6.8594,-6.8359,-6.8633,-6.7617,0.0,0.0,0.0,0.0,0.0,0.0,0.0,0.0,0.0,-6.9297,-6.9648,-6.9844,-7.0039,-7.039,-7.082,-7.1367,-7.2109,-7.2969,-7.3828,-7.4609,-7.4726,-7.4531,-7.414,-7.4297,-7.4375,-7.4023,-7.3789,-7.3555,-7.3086,-7.2969,-7.293,-7.293,-7.2617,-7.2461,-7.2578,-7.2187,-7.1992,-7.1992,-7.1992,-7.1992,-7.1992,-7.1992,-7.1992,-7.1992,-7.1992,-7.1992,-7.1992,-7.1992,-7.1992,-7.1992,-7.1992,-7.1992,-7.1992,-7.1992,-7.1992,-7.1992,-7.1992,-7.1992,-7.1992,-5.2109,-5.168,-5.1445,-5.1445,-5.1445,-5.1601,-5.207,-5.2891,-5.3906,-5.5195,-5.6211,-5.7422,-5.9062,-5.9687,-6.0742,-6.2695,-6.2969,-6.3398,-6.4258,-6.4297,-6.4726,-6.5547,-6.6367,-6.7226,-6.8086,-6.8945,-6.9375,-6.9453,-7.0273,-7.0703,-7.082,-7.1601,-7.1953,-7.1992,-7.1992,-7.1992,-7.1992,-7.1992,-7.1992,-7.1953,-7.1953,-7.164,-7.125,-7.0781,-7.0273,-6.9805,-6.8984,-6.875,-6.8711,-6.832,-6.8203,-6.8242,-6.8711,-6.875,-6.8711,-6.8359,-6.7539,-6.6523,-6.5351,-6.4961,-6.5039,-6.5859,-6.707,-6.8086,0.0,0.0,-7.0547,-7.0547,-7.1172,-7.1719,-7.1758,-7.2148,-7.2617,-7.3086,-7.3906,-7.4609,-7.5117,-7.5156,-7.5,-7.4609,-7.4258,-7.4023,-7.3984,-7.3281,-7.2617,-7.2187,-7.1836,-7.1601,-7.1601,-7.1523,-7.1719,-7.207,-7.1992,-7.1992,-7.1992,-7.1992,-7.1992,-7.1992,-7.1992,-7.1992,-7.1992,-7.1992,-7.1992,-7.1992,-7.1992,-7.1992,-7.1992,-7.1992,-7.1992,-7.1992,-7.1992,-7.1992,-7.1992,-7.1992,-7.1992,-7.207,-5.2226,-5.1953,-5.1719,-5.1484,-5.1445,-5.1562,-5.2031,-5.2812,-5.3633,-5.4453,-5.5742,-5.6953,-5.793,-5.9297,-6.0742,-6.2109,-6.2734,-6.3281,-6.3906,-6.418,-6.4726,-6.5547,-6.6172,-6.7031,-6.8203,-6.875,-6.9336,-6.9805,-7.0195,-7.0625,-7.1133,-7.1484,-7.1758,-7.1992,-7.1992,-7.1992,-7.1992,-7.1992,-7.1992,-7.1992,-7.1992,-7.1758,-7.1328,-7.0898,-7.0625,-7.039,-6.9805,-6.9726,0.0,-6.9726,-6.9687,-6.9687,-6.9844,-6.957,-6.914,-6.8984,-6.7969,-6.668,-6.5859,-6.5859,-6.6289,-6.7148,-6.8359,-6.9414,-6.9922,-7.0781,-7.1601,-7.2109,-7.25,-7.2851,-7.3086,-7.3515,-7.3945,0.0,-7.4922,-7.539,-7.5586,-7.539,-7.5039,-7.4648,-7.4023,-7.3515,-7.3281,-7.2656,-7.2109,-7.164,-7.1484,-7.1367,-7.1367,-7.1601,-7.1836,-7.1992,-7.1992,-7.1992,-7.1992,-7.1992,-7.1992,-7.1992,-7.1992,-7.1992,-7.1992,-7.1992,-7.1992,-7.1992,-7.1992,-7.1992,-7.1992,-7.1992,-7.1992,-7.1992,-7.1992,-7.1992,-7.1992,-7.1992,-7.1992,-7.1992,-5.2539,-5.2226,-5.1992,-5.168,-5.1523,-5.1523,-5.1875,-5.2617,-5.3359,-5.3789,-5.5156,-5.6367,-5.7109,-5.8945,-6.0508,-6.1484,-6.2226,-6.293,-6.3437,-6.3906,-6.4492,-6.5195,-6.5859,-6.6719,-6.7773,-6.8359,-6.8984,-6.9726,-6.9844,-7.0273,-7.1015,-7.125,-7.1523,-7.1836,-7.1953,-7.1992,-7.1992,-7.1992,-7.1953,-7.1836,-7.1836,-7.1601,-7.1133,-7.082,-7.0898,-7.1015,-7.043,-7.0547,-7.0898,-7.1015,-7.1055,-7.1055,-7.1055,-7.0664,-7.0078,-6.9883,-6.8594,-6.7148,-6.668,-6.6992,-6.7617,-6.8359,-6.957,-7.0781,-7.1406,-7.207,-7.2734,-7.3359,-7.3672,-7.3945,-7.4258,-7.4648,-7.5,-7.5156,-7.5586,-7.582,-7.5703,-7.5351,-7.4883,-7.4492,-7.3672,-7.2969,-7.2539,-7.2187,-7.1836,-7.1406,-7.1367,-7.1367,-7.1367,-7.164,-7.1875,-7.1992,-7.1992,-7.1992,-7.1992,-7.1992,-7.1992,-7.1992,-7.1992,-7.1992,-7.1992,-7.1992,-7.1992,-7.1992,-7.1992,-7.1992,-7.1992,-7.1992,-7.1992,-7.1992,-7.1992,-7.1992,-7.1992,-7.1992,-7.1992,-7.1992,-5.332,-5.2656,-5.207,-5.207,-5.1719,-5.1445,-5.1445,-5.2187,-5.2891,-5.332,-5.418,-5.5351,-5.7031,-5.8437,-5.9726,-6.0976,-6.1484,-6.2109,-6.2969,-6.3437,-6.3906,-6.4336,-6.5547,-6.6445,-6.6914,-6.7773,-6.8398,-6.8867,-6.9297,-6.9687,-7.0156,-7.0976,-7.1367,-7.1406,-7.1836,-7.1992,-7.1992,-7.1992,-7.1758,-7.1367,-7.1367,-7.1133,-7.0742,-7.0703,-7.125,-7.1836,-7.1015,-7.0976,-7.1406,-7.1836,-7.1953,-7.1953,-7.1953,-7.1953,-7.1758,-7.0937,-6.9453,-6.8086,-6.7617,-6.8086,-6.8867,-6.9297,-7.0664,-7.1953,-7.1992,-7.2969,-7.3906,-7.3945,-7.4609,-7.5156,-7.5156,-7.5508,-7.5703,-7.5273,-7.5586,-7.5742,-7.5273,-7.4883,-7.4492,-7.4023,-7.3203,-7.25,0.0,-7.1992,-7.1836,-7.1406,-7.1367,-7.1367,-7.1367,-7.1367,-7.1601,-7.1992,-7.1992,-7.1992,-7.1992,-7.1992,-7.1992,-7.1992,-7.1992,-7.1992,-7.1992,-7.1992,-7.1992,-7.1992,-7.1992,-7.1992,-7.1992,-7.1992,-7.1992,-7.1992,-7.1992,-7.1992,-7.1992,-7.1992,-7.1992,-7.207,-5.3398,-5.2891,-5.2422,-5.2148,-5.1719,-5.1445,-5.1445,-5.2148,-5.2851,-5.332,-5.4141,0.0,0.0,0.0,0.0,0.0,-6.043,-6.125,-6.2109,-6.2578,-6.3281,-6.4258,-6.5,-6.5976,-6.7265,-6.789,-6.8515,-6.9219,-6.9375,-6.9687,-7.0078,-7.039,-7.0664,-7.0937,-7.1055,-7.1133,-7.1133,-7.1133,-7.125,-7.1367,-7.1367,-7.1289,-7.1133,-7.1133,-7.1484,-7.1992,0.0,-7.2305,-7.2695,-7.2812,-7.2851,-7.2851,-7.2851,-7.2695,-7.2226,-7.1055,-7.0312,-6.9805,-6.9336,-6.9844,-7.0625,-7.1015,-7.1992,-7.2851,-7.2851,-7.3437,-7.3984,-7.3984,-7.4648,-7.5234,-7.5234,-7.5586,-7.582,-7.5703,-7.5508,-7.5273,-7.4883,-7.4414,-7.3906,-7.3203,-7.2851,0.0,0.0,0.0,0.0,-7.1367,-7.1367,-7.1367,-7.1367,-7.164,-7.1836,-7.1992,-7.1992,-7.1992,-7.1992,-7.1992,-7.1992,-7.1992,-7.1992,-7.1992,-7.1992,-7.1992,-7.1992,-7.1992,-7.1992,-7.1992,-7.1992,-7.1719,-7.1601,-7.1523,-7.125,-7.1133,-7.1133,-7.1133,-7.1133,-7.125,-5.3203,-5.2773,-5.2383,-5.2148,-5.1719,0.0,0.0,0.0,0.0,0.0,0.0,0.0,0.0,0.0,0.0,0.0,0.0,-6.0273,-6.0976,-6.1719,-6.2578,-6.3555,-6.4492,-6.5586,-6.7031,-6.7773,-6.8594,-6.9453,-6.9453,-6.9687,-7.0078,-7.0078,-7.0312,-7.0703,-7.0898,-7.1015,-7.1172,-7.1172,-7.125,-7.1367,-7.1367,-7.1367,-7.1367,-7.1523,-7.1953,0.0,-7.2969,-7.3437,-7.3789,-7.3789,-7.3672,-7.3555,-7.3555,-7.3281,-7.2695,-7.1523,-7.1172,-7.1055,-7.0664,-7.1055,-7.1719,-7.2109,-7.293,-7.3515,-7.3359,-7.3672,-7.3984,-7.3984,-7.4648,-7.5273,-7.539,-7.5937,-7.6211,-7.5937,-7.5508,-7.5039,-7.4414,-7.3867,-7.332,-7.2734,-7.2539,-7.2344,0.0,0.0,0.0,-7.1601,-7.1601,-7.1601,-7.1601,-7.1836,-7.1992,-7.1992,-7.1992,-7.1992,-7.1992,-7.1992,-7.1992,-7.1992,-7.1992,-7.1992,-7.1992,-7.1992,-7.1992,-7.1992,-7.1836,-7.1758,-7.1719,-7.1328,-7.1133,-7.1133,-7.082,-7.0703,-7.0703,-7.0703,-7.0703,-7.0781,-5.2812,-5.2383,-5.207,0.0,0.0,0.0,0.0,0.0,0.0,0.0,0.0,0.0,0.0,0.0,0.0,0.0,0.0,0.0,-5.9765,-6.0898,-6.1836,-6.2344,-6.4023,-6.5351,-6.6211,-6.7539,-6.8633,-6.9492,-6.9531,-6.9765,-7.0156,-7.0156,-7.0312,-7.0742,-7.1133,-7.1562,-7.1953,-7.1953,-7.1719,-7.1406,-7.1406,-7.1445,-7.1523,-7.1914,-7.2578,-7.3398,-7.3789,-7.4219,-7.4609,-7.4609,-7.4258,-7.3906,-7.3906,-7.3633,-7.3125,-7.2305,-7.207,-7.1992,-7.1601,-7.1758,-7.2226,-7.2656,-7.3398,-7.3906,-7.3437,-7.3672,-7.3984,-7.3984,-7.4648,-7.539,-7.582,0.0,-7.6875,-7.5976,-7.5469,-7.4883,-7.4023,-7.3164,-7.2656,0.0,0.0,0.0,0.0,0.0,0.0,-7.1992,0.0,-7.1992,-7.1992,-7.1992,-7.1992,-7.1992,-7.1992,-7.1953,-7.1953,-7.1953,-7.1992,-7.1992,-7.1992,-7.1953,-7.1953,-7.1953,-7.1953,-7.1875,-7.1484,-7.1328,-7.1328,-7.0859,-7.0664,-7.0664,-7.0664,-7.0664,-7.0664,-7.0664,-7.0664,-7.0664,0.0,0.0,0.0,0.0,0.0,0.0,0.0,0.0,0.0,0.0,0.0,0.0,0.0,0.0,0.0,0.0,0.0,0.0,-5.9297,-5.9922,-6.0898,-6.2305,-6.375,-6.5195,-6.668,-6.8008,-6.9062,-6.9922,-7.0273,-7.043,-7.0547,-7.0547,-7.0625,-7.0703,-7.082,-7.0937,-7.1055,-7.1055,-7.1367,-7.1836,-7.1836,-7.2226,-7.2851,-7.293,-7.332,-7.3789,-7.3555,-7.3945,-7.4531,-7.4258,-7.3633,-7.3047,-7.3047,-7.293,-7.2851,-7.2969,-7.2969,-7.2969,-7.2851,-7.3164,-7.3515,-7.3633,-7.4023,-7.4297,-7.3906,-7.414,-7.4375,-7.4023,-7.4883,-7.5742,-7.5859,-7.6328,0.0,-7.5976,-7.5,0.0,-7.3164,-7.2539,0.0,-7.1758,0.0,-7.1992,-7.1992,-7.1992,0.0,0.0,-7.1992,-7.1992,-7.1992,-7.1992,-7.1992,-7.1992,-7.1719,-7.1523,-7.1523,-7.1523,-7.1719,-7.1992,-7.168,-7.1523,-7.1523,-7.1172,-7.1055,-7.1055,-7.0937,-7.0898,-7.0859,-7.043,-7.0273,-7.0195,-6.9922,-6.9765,-6.9765,-6.9765,-6.9765,-6.9765,0.0,0.0,0.0,0.0,0.0,0.0,0.0,0.0,0.0,0.0,0.0,0.0,0.0,0.0,0.0,0.0,0.0,0.0,0.0,-5.9062,-6.0117,-6.1484,-6.293,-6.4531,-6.6289,-6.7539,-6.875,-6.9805,-7.0039,-7.0351,-7.0703,-7.0547,-7.0664,-7.1015,-7.1015,-7.1133,-7.1289,-7.1289,-7.1523,0.0,0.0,-7.2422,-7.3047,-7.3047,-7.332,-7.3672,-7.3398,-7.3515,-7.3672,-7.3047,-7.2617,-7.2383,-7.2383,-7.2383,-7.2461,-7.293,-7.3164,-7.3359,-7.3555,-7.3789,-7.3984,-7.3984,-7.4297,-7.4414,-7.3828,-7.414,-7.4531,-7.4297,-7.5117,-7.5937,-7.6094,-7.6523,-7.6601,0.0,0.0,0.0,-7.3086,-7.2578,-7.2109,0.0,-7.1836,-7.1992,-7.1992,-7.1992,-7.1992,0.0,-7.1992,-7.1914,-7.1719,-7.1719,-7.164,-7.1406,-7.1211,-7.1094,-7.1094,-7.1094,-7.1211,-7.1406,-7.1172,-7.1094,-7.1055,-7.082,-7.0703,-7.0703,0.0,-7.043,-7.043,-6.9961,-6.9805,-6.9805,-6.957,-6.957,-6.9726,-6.9726,-6.9844,-7.0,0.0,0.0,0.0,0.0,0.0,0.0,0.0,0.0,0.0,-5.332,-5.3359,-5.3516,-5.3984,-5.4414,0.0,0.0,0.0,0.0,0.0,0.0,-5.9414,-6.0234,-6.1875,-6.3555,-6.5234,-6.6562,-6.7851,-6.9101,-6.9258,-6.9726,-7.0469,-7.0156,-7.039,-7.1133,-7.1133,-7.1328,-7.164,-7.1719,-7.1758,-7.1836,-7.1875,-7.2187,-7.2578,0.0,-7.2812,-7.3164,-7.3164,-7.2851,-7.2344,-7.1601,-7.1601,-7.1836,-7.1836,-7.1836,-7.1953,-7.2578,-7.3047,-7.3437,-7.3906,-7.4023,-7.4023,-7.3984,-7.4297,-7.4414,-7.3672,-7.414,-7.4687,-7.4765,-7.539,-7.6055,-7.6445,-7.6914,-7.6914,-7.6055,0.0,-7.4765,-7.3437,-7.293,-7.25,-7.1992,-7.1953,-7.1992,-7.1992,-7.1953,-7.1914,-7.1914,-7.1875,-7.1719,-7.1367,-7.1328,-7.1094,-7.0664,-7.0664,-7.0664,-7.0664,-7.0664,-7.0664,-7.0703,-7.0664,-7.0664,-7.0664,-7.0586,-7.0547,-7.0547,0.0,0.0,-6.9961,-6.9687,-6.9492,-6.957,-6.9609,-6.9844,-7.0156,-7.0156,-7.043,-7.0703,0.0,0.0,0.0,0.0,0.0,0.0,0.0,0.0,0.0,0.0,-5.3359,-5.3516,-5.3984,-5.4414,0.0,0.0,0.0,0.0,0.0,0.0,0.0,-5.9375,-6.0703,-6.207,-6.3437,-6.5078,-6.6406,-6.7305,-6.8398,-6.8984,-6.914,-6.9453,-6.9609,-6.9805,-6.9805,-6.9805,-6.9922,-7.0273,-7.0625,-7.0976,-7.1328,-7.1719,-7.2109,-7.2109,0.0,0.0,-7.2226,-7.1719,-7.1055,-7.1289,-7.1172,-7.0937,-7.0937,-7.0937,-7.125,-7.2734,-7.3281,-7.3476,-7.4258,-7.4492,-7.4414,-7.4062,-7.4297,-7.4531,-7.4414,-7.4765,-7.5234,-7.5586,-7.6055,-7.6406,-7.6484,-7.6914,-7.6914,-7.6055,-7.5508,-7.4648,-7.3047,-7.2734,-7.2383,-7.1601,-7.1758,-7.1992,-7.1992,-7.168,-7.1484,0.0,0.0,0.0,0.0,-7.1015,-7.0664,-7.0195,-7.0195,-7.0195,-7.0195,-7.0195,-7.039,-7.0703,-7.039,-7.0195,-7.0195,-6.9844,-6.9687,-6.9687,0.0,0.0,-6.957,-6.9844,-6.9961,-7.0039,-7.0351,-7.0547,-7.0625,-7.0625,-7.0664,-7.0703,0.0,0.0,0.0,0.0,0.0,0.0,0.0,-5.3398,-5.3476,-5.3672,-5.3711,-5.3789,-5.4023,-5.4219,-5.4414,0.0,0.0,0.0,0.0,0.0,0.0,-5.8125,-5.9414,-6.0703,-6.1992,-6.3281,-6.4453,-6.5547,0.0,-6.6797,-6.75,-6.789,-6.8242,-6.8437,-6.8711,-6.8828,-6.8828,-6.8984,-6.9219,-6.9414,-6.9648,-6.9805,-7.0039,-7.0039,0.0,0.0,-7.0273,-7.0078,-6.9805,-7.0234,-7.0234,-7.0195,-7.0859,-7.0898,-7.1055,-7.2812,-7.332,-7.3476,-7.4375,-7.4609,-7.4414,-7.3789,-7.414,-7.4531,-7.4297,-7.4961,-7.5703,-7.6094,-7.6562,-7.6836,-7.6836,-7.7031,-7.6953,-7.6328,-7.6015,-7.5351,-7.3906,-7.3515,-7.3047,-7.2187,-7.1836,-7.164,-7.164,-7.1289,-7.1015,-7.1015,0.0,0.0,0.0,-7.0312,-6.9961,-6.9726,-6.9726,-6.9726,-6.9726,-6.9726,-6.9844,-7.0078,-6.9844,-6.9726,-6.9726,-6.957,-6.957,-6.9805,0.0,0.0,-7.0117,-7.0312,-7.043,-7.043,-7.0664,-7.0859,-7.1055,-7.1055,-7.1172,-7.1367,0.0,0.0,0.0,0.0,0.0,0.0,0.0,-5.4023,-5.4023,-5.4023,-5.4023,-5.4023,-5.4023,-5.4023,-5.418,0.0,0.0,0.0,0.0,0.0,0.0,0.0,0.0,0.0,0.0,0.0,0.0,0.0,-6.3672,0.0,0.0,0.0,0.0,0.0,-6.7148,-6.7383,-6.7383,-6.7422,-6.75,0.0,0.0,-6.7617,-6.7617,0.0,0.0,0.0,0.0,-6.8359,-6.8594,-6.8945,-6.918,-6.9531,-7.0625,-7.0859,-7.1055,-7.2695,-7.3242,-7.3476,-7.4258,-7.4531,-7.4375,-7.3555,-7.3945,-7.4492,-7.4062,-7.4961,-7.5976,-7.6406,-7.6836,-7.7187,-7.7187,-7.7187,-7.7031,-7.6562,-7.6484,-7.6055,-7.4765,-7.414,-7.3515,-7.2617,-7.1758,-7.125,-7.125,-7.0859,-7.0586,0.0,0.0,0.0,0.0,0.0,-6.9375,-6.9336,-6.9375,-6.9375,-6.9336,-6.9375,-6.9453,-6.9453,-6.9453,-6.9453,-6.9453,-6.957,-6.9805,-7.0078,0.0,0.0,0.0,-7.082,-7.0859,-7.0898,-7.0937,-7.1172,-7.1484,-7.1484,-7.1719,-7.1992,0.0,0.0,0.0,0.0,0.0,0.0,0.0,-5.4023,-5.4023,-5.4023,-5.4023,-5.4023,-5.4023,-5.4023,-5.4062,0.0,0.0,0.0,0.0,0.0,0.0,0.0,0.0,0.0,0.0,0.0,0.0,0.0,0.0,0.0,0.0,0.0,0.0,0.0,0.0,-6.4648,-6.4726,-6.5078,0.0,0.0,0.0,0.0,0.0,0.0,0.0,0.0,0.0,-6.6953,-6.7617,-6.7656,-6.8203,-6.8984,-6.9453,-7.0156,-7.1015,-7.2344,-7.3047,-7.3437,-7.3906,-7.4297,-7.4375,-7.3555,-7.3945,-7.4492,-7.4062,-7.4961,-7.5976,-7.6406,-7.6836,-7.7187,-7.7187,-7.7187,-7.7031,-7.6562,-7.6484,-7.6055,-7.4765,-7.3906,-7.3047,-7.2187,-7.1289,-7.0781,-7.0781,-7.039,-7.0156,0.0,0.0,0.0,0.0,0.0,-6.9258,-6.8867,-6.9258,-6.9258,-6.8867,-6.9258,-6.9453,-6.9453,-6.9453,-6.9453,-6.9453,-6.9844,-7.0039,-7.0117,0.0,0.0,0.0,-7.1133,-7.1328,-7.1367,-7.1719,-7.1875,-7.1953,-7.1953,-7.1953,-7.1992,0.0,0.0,0.0,0.0,0.0,0.0,-5.4023,-5.4023,-5.4023,-5.4023,-5.4023,-5.4023,-5.4023,-5.4023,-5.4023,-5.4023,0.0,0.0,0.0,0.0,0.0,0.0,0.0,0.0,0.0,0.0,0.0,0.0,0.0,0.0,0.0,0.0,0.0,0.0,0.0,0.0,-6.2773,-6.293,0.0,0.0,0.0,0.0,0.0,0.0,0.0,0.0,0.0,0.0,-6.5742,-6.6758,-6.75,-6.8203,-6.918,-6.9883,-7.0547,-7.1601,-7.2187,-7.2695,-7.3398,-7.3906,-7.4062,-7.3476,-7.3945,-7.4531,-7.4375,-7.5117,-7.6055,-7.6797,-7.707,-7.7187,-7.7187,-7.7187,-7.7148,-7.6953,-7.668,-7.6211,-7.5469,-7.4414,-7.3476,-7.2851,-7.1562,-7.0703,-7.0703,-7.0078,0.0,0.0,0.0,0.0,0.0,0.0,0.0,-6.8828,-6.875,-6.8711,-6.8828,-6.8984,-6.9219,-6.9453,-6.9453,-6.9453,-6.9453,-6.9922,-7.0195,-7.0508,0.0,0.0,0.0,-7.164,-7.1758,-7.1758,-7.1953,-7.1992,-7.1992,-7.1992,-7.1992,-7.1992,0.0,0.0,0.0,0.0,0.0,-5.4023,-5.4023,-5.4023,-5.4023,-5.4023,-5.4023,-5.4023,-5.4023,-5.4141,-5.4219,-5.4219,-5.4101,0.0,0.0,0.0,0.0,0.0,0.0,0.0,0.0,0.0,0.0,0.0,0.0,0.0,0.0,0.0,0.0,0.0,0.0,0.0,0.0,0.0,0.0,0.0,0.0,0.0,0.0,0.0,0.0,0.0,0.0,0.0,0.0,0.0,0.0,-6.7656,-6.875,-6.9453,-7.0078,-7.0898,-7.1484,-7.1992,-7.2734,-7.332,-7.3672,-7.3398,-7.3945,-7.4609,-7.4609,-7.5234,-7.6094,-7.6836,-7.707,-7.7187,-7.7187,-7.7187,-7.7148,-7.7031,-7.6601,-7.6094,-7.5586,-7.4492,-7.3555,-7.2969,-7.164,-7.0664,-7.0547,0.0,0.0,0.0,0.0,0.0,0.0,0.0,0.0,-6.8633,-6.8476,-6.8515,-6.8828,-6.8945,-6.914,-6.9453,-6.9453,-6.9453,-6.9453,-7.0039,-7.043,0.0,0.0,0.0,0.0,-7.1992,-7.1992,-7.1992,-7.1992,-7.1992,-7.1992,-7.1992,-7.1992,-7.1992,0.0,0.0,0.0,0.0,0.0,0.0,-5.4023,-5.4023,-5.4023,-5.4023,-5.4023,-5.4023,-5.4023,-5.4414,-5.4687,-5.4687,-5.4297,0.0,0.0,0.0,0.0,0.0,0.0,0.0,0.0,0.0,0.0,0.0,0.0,0.0,0.0,0.0,0.0,0.0,0.0,0.0,0.0,0.0,0.0,0.0,0.0,0.0,0.0,0.0,0.0,0.0,0.0,0.0,0.0,0.0,0.0,0.0,0.0,-6.875,-6.9609,-7.0469,-7.1015,-7.1484,-7.1875,-7.2617,-7.332,-7.332,-7.3945,-7.4609,-7.4609,-7.5234,-7.5976,-7.6445,-7.6836,-7.7187,-7.7187,-7.7187,-7.7031,-7.6562,-7.6172,-7.5586,-7.4726,-7.3828,-7.2969,-7.2109,-7.125,-7.0547,-7.0156,0.0,0.0,0.0,0.0,0.0,0.0,0.0,0.0,-6.8203,-6.8594,-6.8828,-6.8828,-6.9219,-6.9453,-6.9453,-6.9453,-6.9453,-6.9453,-7.0312,0.0,0.0,0.0,0.0,0.0,-7.1992,-7.1992,-7.1992,-7.1992,-7.1992,-7.1992,-7.1992,-7.1992,-7.207,0.0,0.0,0.0,0.0,0.0,0.0,0.0,-5.4023,-5.4023,-5.4023,-5.4023,-5.4141,-5.4453,-5.4609,-5.4805,-5.5078,-5.5,0.0,0.0,0.0,0.0,0.0,0.0,0.0,0.0,0.0,0.0,0.0,-5.7656,-5.8086,-5.8515,-5.9101,-5.9375,-5.9414,0.0,0.0,0.0,0.0,0.0,0.0,0.0,0.0,0.0,0.0,0.0,0.0,0.0,0.0,0.0,0.0,0.0,0.0,0.0,0.0,0.0,-7.0039,-7.039,-7.0664,-7.1367,-7.2226,-7.2969,-7.3242,-7.3945,-7.4648,-7.4961,-7.5469,-7.6094,-7.6836,-7.707,-7.707,-7.6797,-7.6719,-7.6484,-7.5742,-7.5273,-7.4805,-7.4258,-7.3906,-7.3555,-7.2969,-7.1875,-7.0898,0.0,0.0,0.0,0.0,0.0,0.0,0.0,0.0,0.0,0.0,-6.832,-6.8515,-6.8828,-6.8945,-6.914,-6.9453,-6.9453,-6.9453,-6.9492,0.0,0.0,0.0,0.0,0.0,0.0,-7.1992,-7.1992,-7.1992,-7.1992,-7.1992,-7.2031,-7.2344,-7.2461,-7.2539,0.0,0.0,0.0,0.0,0.0,0.0,0.0,-5.4023,-5.4023,-5.4023,-5.4023,-5.418,-5.4648,-5.4844,-5.5078,-5.5508,-5.5703,0.0,0.0,0.0,0.0,0.0,0.0,0.0,0.0,0.0,0.0,0.0,0.0,-5.8086,-5.8515,-5.8984,-5.918,-5.918,-5.918,-5.9297,0.0,0.0,0.0,0.0,0.0,0.0,-6.1719,0.0,0.0,0.0,0.0,0.0,0.0,0.0,0.0,0.0,0.0,0.0,0.0,0.0,-6.9961,-7.0273,-7.1133,-7.1992,-7.2812,-7.3203,-7.3945,-7.4765,-7.5351,-7.5703,-7.6094,-7.6797,-7.6914,-7.6797,-7.6328,-7.625,-7.5976,-7.5117,-7.4648,-7.414,-7.3555,-7.3633,-7.3515,-7.289,-7.1836,0.0,0.0,0.0,0.0,0.0,0.0,0.0,0.0,0.0,0.0,0.0,0.0,-6.8633,-6.9062,-6.9062,-6.918,-6.9453,-6.9453,-6.9492,-6.9726,0.0,0.0,0.0,0.0,0.0,0.0,-7.1992,-7.1992,-7.1992,-7.1992,-7.2109,-7.2305,-7.2578,-7.2812,-7.2969,0.0,0.0,0.0,0.0,0.0,0.0,0.0,-5.4023,-5.4023,-5.4023,-5.4023,-5.4219,-5.4687,-5.5078,-5.5508,-5.5937,-5.6367,0.0,0.0,0.0,0.0,0.0,0.0,0.0,0.0,0.0,0.0,-5.7265,-5.7656,-5.8086,-5.8594,-5.8984,-5.918,-5.918,-5.918,-5.9414,0.0,0.0,0.0,0.0,0.0,0.0,0.0,0.0,0.0,0.0,0.0,0.0,0.0,0.0,0.0,0.0,0.0,0.0,0.0,0.0,0.0,0.0,0.0,-7.1992,-7.2734,-7.3203,-7.3945,-7.4765,-7.5625,-7.582,0.0,-7.6328,-7.6406,-7.6289,-7.582,-7.5742,-7.5508,-7.4648,-7.418,-7.3672,-7.2812,-7.3047,-7.2969,-7.2187,-7.1367,0.0,0.0,0.0,0.0,0.0,0.0,0.0,0.0,0.0,0.0,0.0,0.0,-6.9062,-6.9453,-6.9453,-6.9453,-6.9453,-6.9453,-6.9687,-7.0078,0.0,0.0,0.0,0.0,0.0,0.0,-7.1992,-7.1992,-7.207,-7.207,-7.2344,-7.2734,-7.2773,-7.3047,-7.3437,0.0,0.0,0.0,0.0,0.0,0.0,0.0,0.0,0.0,0.0,-5.4023,-5.4336,-5.5078,-5.5234,-5.5625,0.0,0.0,0.0,0.0,0.0,0.0,0.0,0.0,0.0,0.0,0.0,0.0,-5.7695,-5.7812,-5.8281,-5.9023,-5.914,-5.918,-5.918,-5.918,-5.957,0.0,0.0,0.0,0.0,0.0,0.0,0.0,0.0,0.0,0.0,-6.1719,-6.2305,0.0,0.0,0.0,0.0,0.0,0.0,0.0,0.0,-6.9961,-7.0664,-7.125,0.0,-7.2344,-7.3125,-7.3711,-7.4336,0.0,-7.539,-7.539,-7.5508,-7.5508,-7.5273,-7.4531,-7.4648,-7.4609,-7.3789,-7.3789,-7.3672,-7.2812,-7.2773,-7.2851,-7.2969,-7.2226,-7.1367,0.0,0.0,0.0,0.0,0.0,0.0,0.0,0.0,0.0,0.0,0.0,0.0,-6.9453,-6.9453,-6.9453,-6.9453,-6.9453,-6.9687,0.0,0.0,0.0,0.0,0.0,0.0,-7.1992,-7.1992,-7.2226,-7.2539,-7.2539,-7.2812,-7.3203,-7.3555,-7.375,-7.3867,0.0,0.0,0.0,0.0,0.0,0.0,0.0,0.0,0.0,0.0,-5.4219,-5.457,-5.5234,-5.5469,-5.5859,0.0,0.0,0.0,0.0,0.0,0.0,0.0,0.0,0.0,0.0,0.0,0.0,0.0,-5.7969,-5.832,-5.918,-5.918,-5.918,-5.918,-5.957,-6.0039,0.0,0.0,0.0,0.0,-6.1719,0.0,0.0,0.0,0.0,0.0,-6.1719,-6.2305,0.0,-6.3047,-6.3906,-6.5039,0.0,0.0,0.0,0.0,-6.9609,-7.0273,-7.0898,-7.1719,-7.2461,-7.293,-7.332,-7.3828,-7.4492,-7.4805,-7.4883,-7.4687,-7.4805,-7.4726,-7.4101,-7.414,-7.4062,-7.3437,-7.3515,-7.3359,-7.25,-7.2031,-7.1953,-7.2383,-7.1836,0.0,0.0,0.0,0.0,0.0,0.0,0.0,0.0,0.0,0.0,0.0,0.0,0.0,0.0,-6.9453,-6.9453,-6.9453,-6.9453,-6.9805,0.0,0.0,0.0,0.0,0.0,0.0,-7.2344,-7.2344,-7.2578,-7.2969,-7.2969,-7.3242,-7.3672,-7.3906,-7.4101,-7.4297,0.0,0.0,0.0,0.0,0.0,0.0,0.0,0.0,0.0,0.0,0.0,0.0,0.0,0.0,0.0,0.0,0.0,0.0,0.0,0.0,0.0,0.0,0.0,0.0,0.0,0.0,0.0,-5.8515,-5.8125,-5.8398,-5.918,-5.918,-5.9219,-5.9297,-6.0078,-6.0508,0.0,0.0,0.0,0.0,-6.1719,0.0,0.0,0.0,0.0,0.0,0.0,0.0,0.0,-6.3047,-6.3828,-6.4922,-6.543,0.0,0.0,0.0,0.0,0.0,-7.043,-7.1484,-7.2422,-7.2578,-7.2851,-7.3242,-7.375,-7.414,-7.4297,-7.3867,-7.4062,-7.418,-7.3828,-7.3789,-7.3672,-7.3281,-7.3086,-7.2734,-7.1992,-7.125,-7.0898,-7.1328,-7.1015,0.0,0.0,0.0,0.0,0.0,0.0,0.0,0.0,0.0,0.0,0.0,0.0,0.0,0.0,0.0,-6.9453,-6.9453,-6.9453,-6.9922,-7.0703,-7.0703,0.0,0.0,0.0,0.0,-7.2812,-7.2812,-7.3047,-7.3437,-7.3437,-7.3672,-7.4062,-7.4062,-7.4297,-7.4609,0.0,0.0,0.0,0.0,0.0,0.0,0.0,0.0,0.0,0.0,0.0,0.0,0.0,0.0,0.0,0.0,0.0,0.0,0.0,0.0,0.0,0.0,0.0,0.0,0.0,0.0,0.0,-5.8515,-5.8476,-5.8711,-5.918,-5.918,-5.9375,-5.9765,-6.0195,-6.0625,-6.1015,-6.1484,0.0,0.0,0.0,0.0,0.0,0.0,0.0,0.0,0.0,0.0,0.0,-6.3047,-6.3672,-6.4531,-6.5351,0.0,0.0,0.0,0.0,0.0,-7.0039,-7.0586,-7.1172,-7.1914,-7.2148,-7.2383,-7.3203,-7.3476,-7.3398,-7.2969,-7.293,-7.2969,-7.293,-7.289,-7.2851,-7.2812,-7.2187,-7.1601,-7.1484,-7.1015,-7.0898,-7.1328,0.0,0.0,0.0,0.0,0.0,0.0,0.0,0.0,0.0,0.0,0.0,0.0,0.0,0.0,0.0,0.0,0.0,-6.9453,-6.9453,-6.9922,-7.0703,-7.0703,-7.1406,0.0,0.0,-7.2812,-7.3203,-7.3203,-7.3476,-7.3867,-7.3867,-7.414,-7.4492,-7.4492,-7.4531,-7.4609,0.0,0.0,0.0,0.0,0.0,0.0,0.0,0.0,0.0,0.0,0.0,0.0,0.0,0.0,0.0,0.0,0.0,0.0,0.0,0.0,0.0,0.0,0.0,0.0,0.0,0.0,0.0,0.0,-5.8633,-5.8867,-5.9531,-5.9765,-5.9844,-5.9805,-6.0508,-6.0898,-6.1094,-6.1523,-6.1719,-6.1719,0.0,0.0,0.0,0.0,0.0,0.0,0.0,0.0,0.0,0.0,-6.3594,-6.4492,-6.5312,0.0,0.0,0.0,0.0,0.0,-6.957,-6.9922,-7.0234,-7.1055,-7.1484,-7.1758,-7.2187,-7.2617,-7.2851,-7.2383,-7.25,-7.2695,-7.2695,-7.2695,-7.2539,-7.207,-7.1055,-7.0273,-7.0039,-6.9805,-6.9844,0.0,0.0,0.0,0.0,0.0,0.0,0.0,0.0,0.0,0.0,0.0,0.0,0.0,0.0,0.0,0.0,0.0,-6.9453,-6.9453,-6.9687,-7.0117,-7.0742,-7.1172,-7.1875,0.0,0.0,-7.3281,-7.3672,-7.3672,-7.3906,-7.4297,-7.4297,-7.4414,-7.4609,-7.4609,-7.4609,-7.4609,0.0,0.0,0.0,0.0,0.0,0.0,0.0,0.0,0.0,0.0,0.0,0.0,0.0,0.0,0.0,0.0,0.0,0.0,0.0,0.0,0.0,0.0,0.0,0.0,0.0,0.0,-5.8555,-5.9336,-5.8984,-5.9219,-5.9961,-6.0273,-6.0312,-6.0156,-6.0781,-6.1133,-6.125,-6.1601,-6.1719,-6.1719,0.0,0.0,0.0,0.0,0.0,0.0,0.0,0.0,0.0,0.0,0.0,0.0,0.0,0.0,0.0,-6.7656,-6.8203,-6.8359,-6.9219,-6.9492,-6.9726,-7.043,-7.082,-7.1133,-7.1328,-7.1836,-7.2109,-7.1758,-7.207,-7.2422,-7.25,-7.2461,-7.2109,-7.1211,-7.0078,0.0,0.0,0.0,0.0,0.0,0.0,0.0,0.0,0.0,0.0,0.0,0.0,0.0,0.0,0.0,0.0,0.0,0.0,0.0,0.0,0.0,-6.9609,-6.9609,-6.9922,-7.043,-7.1055,-7.1719,-7.2344,-7.2969,-7.332,-7.3711,-7.414,-7.414,-7.4297,-7.4609,-7.4609,-7.4609,-7.4609,-7.4609,-7.4609,-7.4609,0.0,0.0,0.0,0.0,0.0,0.0,0.0,0.0,0.0,0.0,0.0,0.0,0.0,0.0,0.0,0.0,0.0,0.0,0.0,0.0,0.0,0.0,0.0,0.0,0.0,-5.9101,-5.9297,-5.9765,-5.9765,-5.9922,-6.039,-6.043,-6.0625,-6.0976,-6.1094,-6.1328,-6.168,-6.1719,-6.1719,-6.1719,-6.1719,0.0,0.0,0.0,0.0,0.0,0.0,0.0,0.0,0.0,0.0,0.0,0.0,0.0,-6.5937,-6.7656,-6.8203,-6.8359,-6.9219,-6.9726,-7.0039,-7.0156,-7.0156,-7.039,-7.1211,-7.1133,-7.082,-7.082,-7.1133,-7.1601,-7.1992,-7.1719,-7.1211,-7.0312,-6.9453,0.0,0.0,0.0,0.0,0.0,0.0,0.0,0.0,0.0,0.0,0.0,0.0,0.0,0.0,0.0,0.0,0.0,0.0,0.0,0.0,0.0,-7.0039,-7.0039,-7.0078,-7.0742,-7.1875,-7.1992,-7.2695,-7.3867,-7.3906,-7.414,-7.4531,-7.4531,-7.457,-7.4609,-7.4609,-7.4609,-7.4609,-7.4609,-7.4609,-7.4609,0.0,0.0,0.0,0.0,0.0,0.0,0.0,0.0,0.0,0.0,0.0,0.0,-5.7617,0.0,0.0,0.0,0.0,0.0,0.0,0.0,0.0,0.0,0.0,-5.9023,-5.918,-5.9414,-5.9648,-5.9805,-6.0351,-6.0547,-6.043,-6.0976,-6.1211,-6.1094,-6.1367,-6.1562,-6.1719,-6.1719,-6.1719,-6.1719,-6.1719,-6.1719,0.0,0.0,0.0,0.0,0.0,0.0,0.0,0.0,-6.3594,-6.4492,-6.5312,-6.5586,-6.5937,-6.7656,-6.8203,-6.8359,-6.9219,-6.9726,-7.0156,-7.043,-7.0273,-7.0156,-7.0508,-7.043,-7.0312,-7.0312,-7.0664,-7.1172,-7.1875,-7.164,-7.1094,-7.0195,-6.9375,0.0,0.0,0.0,0.0,0.0,0.0,0.0,0.0,0.0,0.0,0.0,0.0,0.0,0.0,0.0,0.0,0.0,0.0,0.0,0.0,0.0,-7.0742,-7.1289,-7.1289,-7.1523,-7.1992,-7.2851,-7.3515,-7.3984,-7.4258,-7.4414,-7.4609,-7.4609,-7.4609,-7.4609,-7.4609,-7.4609,-7.4609,-7.4609,-7.4609,-7.4609,0.0,0.0,0.0,0.0,0.0,0.0,0.0,0.0,0.0,0.0,0.0,0.0,0.0,-5.7812,0.0,0.0,0.0,0.0,0.0,0.0,0.0,0.0,0.0,-5.918,-5.918,-5.9765,-6.0,-6.0,-6.0859,-6.1133,-6.0859,-6.1445,-6.1562,-6.1328,-6.1601,-6.1719,-6.1719,-6.1719,-6.1719,-6.1719,-6.1719,-6.1719,0.0,0.0,0.0,0.0,0.0,0.0,0.0,0.0,-6.3594,-6.4492,-6.5312,-6.5586,-6.5937,-6.7656,-6.8203,-6.8359,-6.9219,-6.9726,-7.0156,-7.043,-7.0312,-7.0039,-6.9726,-6.957,-6.9492,-6.9492,-6.9922,-7.0586,-7.1406,-7.125,-7.0742,-7.0039,-6.9297,0.0,0.0,0.0,0.0,0.0,0.0,0.0,0.0,0.0,0.0,0.0,0.0,0.0,0.0,0.0,0.0,0.0,0.0,0.0,0.0,0.0,-7.1484,-7.2226,-7.25,-7.2617,-7.2656,-7.3555,-7.4023,-7.418,-7.4492,-7.4609,-7.4609,-7.4609,-7.4609,-7.4609,-7.4609,-7.4609,-7.4609,-7.4609,-7.4609,-7.4609,0.0,0.0,0.0,0.0,0.0,0.0,0.0,0.0,-5.918,-5.918,-5.918,0.0,0.0,0.0,0.0,0.0,-5.7226,-5.7226,-5.7226,-5.7617,0.0,0.0,0.0,-5.918,-5.918,-6.0,-6.043,-6.043,-6.1289,-6.1719,-6.1719,-6.1719,-6.1719,-6.1719,-6.1719,-6.1719,-6.1719,-6.1719,-6.1719,-6.1719,-6.1719,-6.1719,-6.1719,0.0,0.0,0.0,0.0,0.0,0.0,0.0,-6.3594,-6.4492,-6.5312,-6.5586,-6.5937,-6.7656,-6.8203,-6.8359,-6.9219,-6.9726,-7.0078,-7.0078,-7.0078,-6.9844,-6.8984,-6.8476,-6.8203,-6.8203,-6.8867,-6.9726,-7.0547,-7.039,-6.9961,-6.9492,0.0,0.0,0.0,0.0,0.0,0.0,0.0,0.0,0.0,0.0,0.0,0.0,0.0,0.0,0.0,0.0,0.0,0.0,0.0,0.0,0.0,0.0,-7.2226,-7.2695,-7.3555,-7.3984,-7.3984,-7.3984,-7.418,-7.4609,-7.4609,-7.4609,-7.4609,-7.4609,-7.4609,-7.4609,-7.4609,-7.4609,-7.4609,-7.4609,-7.4609,-7.4609,0.0,0.0,0.0,0.0,0.0,0.0,0.0,0.0,-5.918,-5.918,-5.918,0.0,0.0,0.0,0.0,0.0,0.0,-5.7656,-5.7656,-5.8086,-5.8398,-5.8515,0.0,0.0,-5.918,-6.0,-6.0742,-6.1328,-6.1601,-6.1719,-6.1719,-6.1719,-6.1719,-6.1719,0.0,-6.1719,-6.1719,-6.1719,-6.1719,-6.1719,-6.1719,-6.1719,-6.1719,0.0,0.0,0.0,0.0,0.0,0.0,0.0,0.0,0.0,-6.4961,-6.5117,-6.539,-6.6875,-6.7461,-6.789,-6.875,-6.9336,-6.9609,-6.9609,-6.9414,-6.9062,-6.8476,-6.8008,-6.7734,-6.7734,-6.8867,-6.9961,-7.0195,-7.043,-7.039,0.0,0.0,0.0,0.0,0.0,0.0,0.0,0.0,0.0,0.0,0.0,0.0,0.0,0.0,0.0,0.0,0.0,0.0,0.0,0.0,0.0,0.0,0.0,0.0,-7.3633,-7.3867,-7.3984,-7.3984,-7.4258,-7.4492,-7.4609,-7.4609,-7.4609,-7.4609,-7.4609,-7.4609,-7.4609,-7.4609,-7.4609,-7.4609,-7.4609,-7.4609,-7.4609,0.0,0.0,0.0,0.0,0.0,0.0,0.0,0.0,-5.918,-5.918,-5.918,-5.918,0.0,0.0,0.0,-5.8555,-5.832,-5.8125,-5.8125,-5.8359,-5.8594,-5.8789,-5.9062,-5.9336,-5.9687,-6.0156,-6.0859,-6.1719,-6.1719,-6.1719,-6.1719,-6.1719,-6.1719,-6.1719,-6.1719,-6.1719,-6.1719,-6.1719,-6.1719,-6.1719,-6.1719,-6.1719,-6.1719,0.0,0.0,0.0,0.0,0.0,0.0,0.0,0.0,0.0,-6.4883,-6.5039,-6.539,-6.6328,-6.6914,-6.7383,-6.8125,-6.8476,-6.8633,-6.8633,-6.8359,-6.789,-6.7265,-6.7226,-6.7187,-6.7031,-6.8086,-6.9101,-6.9297,-6.9687,0.0,0.0,0.0,0.0,0.0,0.0,0.0,0.0,0.0,0.0,0.0,0.0,0.0,0.0,0.0,0.0,0.0,0.0,0.0,0.0,0.0,0.0,0.0,0.0,0.0,-7.3984,-7.414,-7.4219,-7.4258,-7.4492,-7.4609,-7.4609,-7.4609,-7.4609,-7.4609,-7.4609,-7.4609,-7.4609,-7.4609,-7.4609,-7.4609,-7.4609,-7.4609,-7.4609,0.0,0.0,0.0,0.0,0.0,0.0,0.0,-5.918,-5.918,-5.918,-5.918,-5.918,0.0,0.0,0.0,-5.8633,-5.8594,-5.8594,-5.8594,-5.8594,-5.875,-5.918,-5.918,-5.957,-6.043,-6.043,-6.0859,-6.164,-6.1719,-6.1719,-6.1719,-6.1719,-6.1719,-6.1719,-6.1719,-6.1719,-6.1719,-6.1719,-6.1719,-6.1719,-6.1758,-6.1758,-6.1758,-6.1836,0.0,0.0,0.0,0.0,0.0,0.0,0.0,0.0,-6.4922,-6.5234,-6.5586,-6.5976,-6.6445,-6.6914,-6.7305,-6.7422,-6.7422,-6.7383,-6.7031,-6.6484,-6.5703,-6.6172,-6.668,-6.6289,-6.6875,-6.7617,-6.8125,0.0,0.0,0.0,0.0,0.0,0.0,0.0,0.0,0.0,0.0,0.0,0.0,0.0,0.0,0.0,0.0,0.0,0.0,0.0,0.0,0.0,0.0,0.0,0.0,0.0,0.0,0.0,-7.4414,-7.4609,-7.4609,-7.4609,-7.4609,-7.4609,-7.4609,-7.4609,-7.4609,-7.4609,-7.4609,-7.4609,-7.4609,-7.4609,-7.4609,-7.4648,-7.4648,-7.4726,0.0,0.0,0.0,0.0,0.0,0.0,-5.918,-5.918,-5.918,-5.918,-5.918,-5.918,-5.918,-5.918,0.0,-5.9062,-5.9062,-5.9062,-5.9062,-5.9062,-5.9062,-5.918,-5.918,-5.957,-6.043,-6.043,-6.0664,-6.1211,-6.1562,-6.1719,-6.1719,-6.1719,-6.1719,-6.1719,-6.1719,-6.1719,-6.1719,-6.1719,-6.1719,-6.1758,-6.207,-6.2226,-6.2265,-6.2617,-6.2812,0.0,0.0,0.0,0.0,0.0,0.0,0.0,-6.4922,-6.5,-6.5117,-6.5156,-6.5742,-6.6445,-6.6875,-6.6992,-6.6914,-6.6562,-6.5937,-6.5312,-6.5117,-6.5742,-6.6211,-6.582,-6.668,-6.7617,0.0,0.0,0.0,0.0,0.0,0.0,0.0,0.0,0.0,0.0,0.0,0.0,0.0,0.0,0.0,0.0,0.0,0.0,0.0,0.0,0.0,0.0,0.0,0.0,0.0,-7.3711,-7.414,0.0,-7.4531,-7.4609,-7.4609,-7.4609,-7.4609,-7.4609,-7.4609,-7.4609,-7.4609,-7.4609,-7.4609,-7.4609,-7.4609,-7.4609,-7.4648,-7.4961,-7.5117,-7.5156,0.0,0.0,0.0,0.0,0.0,0.0,0.0,0.0,-5.918,-5.918,-5.918,-5.918,-5.918,-5.918,0.0,0.0,-5.918,-5.9258,-5.9453,-5.9492,-5.957,-5.9765,-5.9805,-6.0078,-6.0742,-6.0742,-6.0976,-6.1367,-6.1406,-6.1523,-6.1719,-6.1719,-6.1719,-6.1719,-6.1719,-6.1836,-6.2031,-6.2031,-6.2148,-6.2344,-6.2578,-6.2695,-6.2695,-6.293,-6.3164,-6.332,-6.332,0.0,0.0,0.0,0.0,0.0,0.0,0.0,-6.5508,-6.5312,-6.5703,-6.6211,-6.625,-6.6094,-6.5742,-6.4883,-6.4648,-6.4609,-6.4375,-6.5312,-6.6094,-6.5703,-6.6445,0.0,0.0,0.0,0.0,0.0,0.0,0.0,0.0,0.0,0.0,0.0,0.0,0.0,0.0,0.0,0.0,0.0,0.0,0.0,0.0,0.0,0.0,0.0,0.0,0.0,-7.332,-7.3945,-7.4375,-7.4609,-7.4609,-7.4609,-7.4609,-7.4609,-7.4609,-7.4609,-7.4609,-7.4609,-7.4609,-7.4609,-7.4609,-7.4609,-7.4609,-7.4726,-7.4922,-7.5156,-7.5351,-7.5586,0.0,0.0,0.0,0.0,0.0,0.0,0.0,0.0,0.0,-5.918,-5.918,-5.918,-5.918,-5.918,-5.918,0.0,0.0,0.0,-5.9805,-5.9883,-6.0117,-6.0547,-6.0508,-6.0625,-6.1094,-6.1094,-6.125,-6.1601,-6.125,-6.125,-6.1601,-6.1601,-6.164,-6.1719,-6.1797,-6.207,-6.2461,-6.2461,-6.2695,-6.3047,-6.3086,-6.3203,-6.3281,-6.332,-6.3633,-6.4023,-6.4023,-6.4492,-6.5039,-6.5117,0.0,0.0,0.0,0.0,-6.6289,-6.5937,-6.6055,-6.6211,-6.582,-6.5234,-6.4453,-6.332,-6.3555,-6.4023,-6.375,-6.4961,-6.5976,-6.5664,0.0,0.0,0.0,0.0,0.0,0.0,0.0,0.0,0.0,0.0,0.0,0.0,0.0,0.0,0.0,0.0,0.0,0.0,0.0,0.0,0.0,0.0,0.0,0.0,0.0,0.0,-7.332,-7.418,-7.4609,-7.4609,-7.4609,-7.4609,-7.4609,-7.4609,-7.4609,-7.4609,-7.4609,-7.4609,-7.4609,-7.4609,-7.4609,-7.4609,-7.4648,-7.4922,-7.5234,-7.539,-7.5703,-7.6055,0.0,0.0,0.0,0.0,0.0,0.0,0.0,0.0,0.0,0.0,-5.918,-5.918,-5.918,-5.918,-5.918,-5.918,-5.9531,-5.9765,-5.9805,0.0,0.0,-6.0976,-6.0625,-6.0625,-6.1094,-6.1094,-6.1094,-6.1133,-6.1094,-6.1133,-6.1133,0.0,-6.1367,-6.1719,-6.2109,-6.2539,-6.293,-6.293,-6.2969,-6.3086,-6.3437,-6.3789,-6.418,-6.4531,-6.4961,-6.5351,-6.5351,-6.543,-6.5586,-6.5937,-6.6094,0.0,0.0,0.0,-6.6758,-6.668,-6.6758,-6.668,-6.6289,-6.5,-6.375,-6.3164,-6.3086,-6.3281,-6.3633,-6.4726,-6.5664,0.0,0.0,0.0,0.0,0.0,0.0,0.0,0.0,0.0,0.0,0.0,0.0,0.0,0.0,0.0,0.0,0.0,0.0,0.0,0.0,0.0,0.0,0.0,0.0,0.0,0.0,0.0,-7.332,-7.418,-7.4609,-7.4609,-7.4609,-7.4609,-7.4609,-7.4609,-7.4609,-7.4609,-7.4609,-7.4609,-7.4609,-7.4609,-7.4609,-7.4648,-7.5,-7.5156,-7.5312,-7.6055,-7.6367,-7.6484,0.0,0.0,0.0,0.0,0.0,0.0,0.0,0.0,0.0,0.0,0.0,-5.918,-5.918,-5.918,-5.9297,-5.9531,-5.9687,-6.0039,-6.0508,-6.0898,-6.125,-6.1445,-6.125,-6.125,-6.1445,-6.1445,-6.1445,-6.1445,-6.0976,-6.0742,-6.0742,-6.0742,-6.1094,-6.1719,-6.2187,-6.2773,-6.3398,-6.3672,-6.3906,-6.414,-6.4609,-6.4844,-6.5078,-6.5234,-6.543,-6.5586,-6.5586,-6.5742,-6.5976,-6.6445,-6.6758,-6.7031,-6.7461,0.0,0.0,0.0,-6.7422,-6.6992,-6.582,-6.4765,-6.3867,-6.3203,-6.3203,-6.3437,-6.3633,-6.4492,-6.5312,0.0,0.0,0.0,0.0,0.0,0.0,0.0,0.0,0.0,0.0,0.0,0.0,0.0,0.0,0.0,0.0,0.0,0.0,0.0,0.0,0.0,0.0,-7.1484,-7.1836,-7.1992,-7.2617,0.0,-7.332,-7.3945,-7.4375,-7.4609,-7.4609,-7.4609,-7.4609,-7.4609,-7.4609,-7.4609,-7.4609,-7.4609,-7.4609,-7.4609,-7.4726,-7.4961,-7.5156,-7.5508,-7.5976,-7.6367,-7.668,-7.6914,0.0,0.0,0.0,0.0,0.0,0.0,0.0,0.0,0.0,0.0,0.0,-5.918,-5.918,0.0,0.0,0.0,-6.0,-6.043,-6.1211,-6.1523,-6.1719,-6.1719,-6.1836,-6.1875,-6.1875,-6.1992,-6.207,-6.207,-6.1172,-6.0781,-6.0781,-6.0781,-6.1133,-6.1875,-6.2461,-6.3164,-6.4023,-6.4453,-6.4844,-6.5117,-6.5469,-6.5664,-6.5742,-6.5625,-6.5664,-6.5742,-6.5625,-6.5859,-6.6289,-6.6758,-6.7148,-6.7617,-6.8164,-6.8359,0.0,0.0,0.0,-6.7305,-6.5703,-6.4961,-6.4453,-6.3711,-6.3867,-6.414,-6.414,-6.4844,-6.5508,0.0,0.0,0.0,0.0,0.0,0.0,0.0,0.0,0.0,0.0,0.0,0.0,0.0,0.0,0.0,0.0,0.0,0.0,0.0,0.0,0.0,0.0,-7.1758,-7.1992,-7.1992,-7.2461,-7.293,-7.332,-7.3867,-7.4297,-7.4609,-7.4609,-7.4609,-7.4609,-7.4609,-7.4609,-7.4609,-7.4609,-7.4648,-7.4765,-7.4765,-7.5,-7.539,-7.5508,-7.5937,-7.6484,-7.6601,-7.6914,-7.7187,0.0,0.0,0.0,0.0,0.0,0.0,0.0,0.0,0.0,0.0,0.0,-5.918,-5.918,-5.9531,-5.9805,-5.9805,-6.0547,-6.1211,-6.164,-6.1719,-6.1719,-6.1719,-6.2109,0.0,-6.2305,-6.2734,-6.2969,-6.2969,-6.207,-6.164,-6.164,-6.164,-6.1875,-6.2383,-6.3242,-6.4101,-6.4883,-6.5351,-6.5547,-6.5547,-6.5586,-6.582,-6.6172,-6.5742,-6.582,-6.6172,-6.5742,-6.5859,-6.6289,-6.6758,-6.7148,-6.7656,-6.8515,-6.875,-6.8867,0.0,0.0,0.0,-6.6523,-6.582,-6.543,-6.4961,-6.5156,-6.5469,-6.5469,-6.6172,-6.6758,0.0,0.0,0.0,0.0,0.0,0.0,0.0,0.0,0.0,0.0,0.0,0.0,0.0,0.0,0.0,0.0,0.0,0.0,0.0,0.0,0.0,-7.1367,-7.1758,-7.1992,-7.1992,-7.2461,-7.293,-7.332,-7.414,-7.4609,-7.4609,-7.4609,-7.4609,-7.4609,-7.4609,-7.4609,-7.4609,-7.4609,-7.4805,-7.5156,-7.5156,-7.5469,-7.5859,-7.6289,-7.6445,-7.6562,-7.7031,-7.7187,-7.7187,0.0,0.0,0.0,0.0,0.0,0.0,0.0,0.0,0.0,0.0,0.0,0.0,0.0,-5.9206,-5.9627,-5.9898,-6.094,-6.1562,-6.1719,-6.1719,-6.1719,-6.1719,-6.2148,-6.2383,-6.2383,-6.2812,-6.3047,-6.3047,-6.2422,-6.2148,-6.2148,-6.2148,-6.2344,-6.2812,-6.3672,-6.4414,-6.5,-6.5703,-6.5976,-6.5976,-6.6289,-6.6523,-6.6562,-6.6172,-6.5937,-6.582,-6.5664,-6.5703,-6.5976,-6.6914,-6.7539,-6.8086,-6.8945,-6.9219,-6.9258,-6.9414,-6.9219,-6.8828,-6.8086,-6.7773,-6.7539,-6.7148,-6.7148,-6.7265,-6.7265,-6.7265,-6.7383,0.0,0.0,0.0,0.0,0.0,0.0,0.0,0.0,0.0,0.0,0.0,0.0,0.0,0.0,0.0,0.0,0.0,0.0,0.0,0.0,0.0,-7.1758,-7.1914,-7.1992,-7.1992,-7.2148,-7.2578,-7.332,-7.418,-7.4609,-7.4609,-7.4609,-7.4609,-7.4609,-7.4609,-7.4609,-7.4609,-7.4883,-7.5117,-7.5234,-7.5234,-7.5625,-7.6289,-7.6445,-7.668,-7.6953,-7.7148,-7.7187,-7.7187,0.0,0.0,0.0,0.0,0.0,0.0,0.0,0.0,0.0,0.0,0.0,0.0,0.0,0.0,-5.9512,-6.0319,-6.0822,-6.1288,-6.1442,-6.1678,-6.1913,-6.1913,-6.2539,-6.2812,-6.2812,-6.3203,-6.3437,-6.3437,-6.3047,-6.2812,-6.2812,-6.2812,-6.3047,-6.3515,-6.4375,-6.4883,-6.5234,-6.6055,-6.6272,-6.6427,-6.6739,-6.6601,-6.627,-6.5845,-6.5304,0.0,0.0,0.0,0.0,0.0,-6.6695,-6.7351,-6.8162,-6.8811,-6.919,-6.9609,-6.9687,-6.9609,-6.9336,-6.9219,-6.918,-6.8867,-6.8828,-6.8828,-6.8828,-6.8594,-6.8398,0.0,0.0,0.0,0.0,0.0,0.0,0.0,0.0,0.0,0.0,0.0,0.0,0.0,0.0,0.0,0.0,0.0,0.0,0.0,0.0,0.0,-7.1992,-7.1992,-7.1992,-7.1992,-7.2265,-7.2734,-7.332,-7.418,-7.4609,-7.4609,-7.4609,-7.4609,-7.4609,-7.4609,-7.4648,-7.4805,-7.5117,-7.5273,-7.5469,-7.5586,-7.6094,-7.6719,-7.6719,-7.6914,-7.7187,-7.7187,-7.7187,-7.7187,0.0,0.0,0.0,0.0,0.0,0.0,0.0,0.0,0.0,0.0,0.0,0.0,0.0,0.0,0.0,-6.0412,-6.0487,-6.0639,-6.1093,-6.1574,-6.2053,-6.2053,-6.2957,-6.3672,-6.3672,-6.4101,-6.4297,-6.4297,-6.3906,-6.3672,-6.375,-6.375,-6.3945,-6.4414,-6.5234,-6.5625,-6.5703,-6.6523,-6.664,-6.6477,0.0,-6.6002,-6.5449,-6.4995,-6.4351,0.0,-6.3139,-6.2949,0.0,0.0,0.0,-6.5639,-6.6472,-6.7567,-6.8554,-6.9735,-7.0117,-7.0117,0.0,0.0,0.0,-7.0117,-7.0156,-7.0156,-7.0156,-7.0156,-7.0,0.0,0.0,0.0,0.0,0.0,0.0,0.0,0.0,0.0,0.0,0.0,0.0,0.0,0.0,0.0,0.0,0.0,0.0,0.0,0.0,0.0,-7.1992,-7.1992,-7.1992,-7.1992,-7.2851,-7.332,-7.332,-7.418,-7.4609,-7.4609,-7.4609,-7.4609,-7.4609,-7.4609,-7.4844,-7.5234,-7.5234,-7.5508,-7.5937,-7.6328,-7.6797,-7.7187,-7.7187,-7.7187,-7.7187,-7.7187,-7.7187,-7.7187,0.0,0.0,0.0,0.0,0.0,-5.707,-5.7415,-5.7672,-5.7967,0.0,0.0,0.0,0.0,0.0,0.0,-6.0904,-6.0904,-6.098,-6.1093,-6.1334,-6.1334,-6.1334,-6.2438,-6.2949,-6.2949,-6.382,-6.4297,-6.4297,-6.418,-6.4054,-6.3837,-6.3837,-6.3823,-6.375,-6.4284,-6.4742,-6.5048,-6.6092,0.0,-6.6515,-6.6307,-6.5904,0.0,0.0,-6.4767,0.0,0.0,-6.3252,0.0,0.0,-6.4767,-6.5752,0.0,-6.7873,-6.8596,-6.9285,-6.9399,-6.9476,-6.9781,0.0,0.0,0.0,0.0,0.0,-7.0286,0.0,0.0,0.0,0.0,0.0,0.0,0.0,0.0,0.0,0.0,0.0,0.0,0.0,0.0,0.0,0.0,0.0,0.0,0.0,0.0,0.0,0.0,-7.1875,-7.1992,-7.1992,-7.1992,-7.1992,-7.2851,-7.332,-7.332,-7.418,-7.4609,-7.4609,-7.4609,-7.4609,-7.4609,-7.4922,-7.5117,-7.5273,-7.5859,-7.6211,-7.6328,-7.6445,-7.6797,-7.7187,-7.7187,-7.7187,-7.7187,-7.7187,-7.7187,-7.7187,0.0,0.0,-5.6813,-5.696,-5.7217,-5.7437,-5.7583,-5.795,-5.828,0.0,0.0,0.0,0.0,0.0,0.0,-6.0595,-6.0633,-6.0782,-6.1119,-6.1364,-6.1476,-6.1627,-6.2436,-6.2719,-6.2719,-6.3284,-6.3361,-6.3361,-6.3515,-6.3746,-6.3444,-6.3635,-6.3691,-6.3858,-6.4123,-6.4578,-6.5108,-6.5336,-6.5821,0.0,-6.572,0.0,0.0,-6.475,-6.4039,0.0,0.0,0.0,-6.183,-6.2654,-6.3852,0.0,0.0,-6.7564,-6.8127,-6.9085,-6.9237,-6.9312,-6.9729,-6.9843,-6.9843,-6.9843,0.0,0.0,0.0,0.0,0.0,0.0,0.0,0.0,0.0,0.0,0.0,0.0,0.0,0.0,0.0,0.0,0.0,0.0,0.0,0.0,0.0,0.0,0.0,0.0,-7.1523,-7.1992,-7.1992,-7.1992,-7.1992,-7.1992,-7.2851,-7.332,-7.332,-7.418,-7.4609,-7.4609,-7.4609,-7.4609,-7.4609,-7.5039,-7.5351,-7.5508,-7.6211,-7.6601,-7.6797,-7.6797,-7.6953,-7.7187,-7.7187,-7.7187,-7.7187,-7.7187,-7.7187,-7.7187,0.0,0.0,-5.6997,-5.74,-5.7437,-5.7583,-5.795,-5.8354,-5.861,0.0,-5.9087,0.0,0.0,0.0,-5.9491,-5.9894,-5.9931,-6.0298,-6.0994,-6.1531,-6.2217,-6.259,-6.2716,-6.2777,-6.2777,-6.2684,-6.2457,-6.2457,-6.2836,0.0,0.0,-6.323,-6.3607,-6.4022,-6.4097,-6.4512,-6.5267,-6.4528,-6.4491,-6.4788,-6.4751,-6.4194,0.0,0.0,-6.2645,0.0,-6.1581,-6.0848,-5.9968,-6.0774,-6.2352,0.0,0.0,-6.6914,-6.7659,-6.8616,-6.9039,-6.9115,-6.9492,-6.953,-6.953,-6.953,-6.9568,0.0,-6.9312,0.0,0.0,0.0,0.0,0.0,0.0,0.0,0.0,0.0,0.0,0.0,0.0,0.0,0.0,0.0,0.0,0.0,0.0,0.0,0.0,-7.0703,-7.1523,-7.2109,-7.2148,-7.2148,-7.2148,-7.2148,-7.2969,-7.3398,-7.3398,-7.418,-7.4609,-7.4609,-7.4648,-7.4648,-7.4648,-7.5156,-7.5586,-7.5976,-7.6406,-7.6797,-7.7187,-7.7187,-7.7187,-7.7187,-7.7187,-7.7148,-7.7148,-7.7148,-7.707,-7.6953,-5.4353,-5.5791,-5.7018,-5.7127,-5.7639,-5.8024,-5.839,-5.85,-5.8757,-5.9454,-5.9931,0.0,0.0,-6.0444,-6.0664,-6.0738,-6.1031,-6.1325,-6.1471,-6.1723,-6.1723,-6.1834,-6.2264,-6.2729,-6.2729,-6.3116,-6.3328,-6.3328,-6.3404,0.0,0.0,-6.329,-6.3298,-6.3195,-6.3528,-6.3712,-6.4191,-6.4522,-6.4485,-6.4228,-6.3896,0.0,0.0,-6.2902,-6.2572,-6.2058,-6.1691,-6.1031,-6.0408,0.0,-6.2572,-6.4222,0.0,0.0,-6.7248,-6.7653,-6.78,-6.78,-6.815,-6.791,-6.791,-6.791,-6.8427,0.0,-6.8493,0.0,0.0,0.0,0.0,0.0,0.0,0.0,0.0,0.0,0.0,0.0,0.0,0.0,0.0,0.0,0.0,0.0,0.0,0.0,0.0,-7.0703,-7.1875,-7.2695,-7.3047,-7.3086,-7.3086,-7.3086,-7.3555,-7.3828,-7.3828,-7.4375,-7.4609,-7.4609,-7.4922,-7.5117,-7.5117,-7.5898,-7.6289,-7.6406,-7.6836,-7.7148,-7.7187,-7.7187,-7.7187,-7.7187,-7.7187,-7.6953,-7.6601,-7.6601,-7.6445,-7.6094,-5.2864,-5.4802,-5.6004,-5.6004,-5.6662,-5.7358,-5.7574,-5.7935,-5.8576,-5.922,-5.9904,-6.0298,-6.0078,-6.0444,-6.0628,-6.0408,-6.0774,-6.1141,-6.1581,-6.1581,-6.1728,-6.2168,-6.2239,-6.2382,-6.2382,-6.2449,-6.2552,-6.2552,-6.2813,-6.2746,0.0,-6.29,-6.2939,-6.3122,-6.3268,-6.3745,-6.4295,-6.4332,-6.4185,-6.3965,-6.3562,0.0,-6.2462,-6.2278,-6.1948,-6.1581,-6.1141,-6.0628,-6.0188,-6.0994,-6.2205,0.0,0.0,-6.5873,-6.679,-6.7193,-6.745,-6.7633,-6.7633,-6.7633,-6.7633,-6.7633,-6.7874,0.0,0.0,0.0,0.0,0.0,0.0,0.0,0.0,0.0,0.0,0.0,0.0,0.0,0.0,0.0,0.0,0.0,0.0,0.0,0.0,0.0,-7.1015,-7.164,-7.25,-7.3086,-7.332,-7.332,-7.332,-7.332,-7.375,-7.3984,-7.3984,-7.4375,-7.4609,-7.4609,-7.5,-7.5234,-7.5273,-7.6094,-7.6484,-7.6484,-7.6719,-7.6836,-7.6836,-7.6601,-7.6562,-7.6562,-7.6797,-7.6562,-7.6211,-7.6211,-7.6055,-7.582,-5.1253,-5.2965,-5.4456,-5.4768,-5.5531,-5.6227,-5.6333,-5.6895,-5.7565,-5.8379,-5.9518,-6.005,-5.9575,-5.9904,-5.9977,-5.9575,-5.9977,-6.0561,-6.1255,-6.1365,-6.2021,-6.2755,-6.2462,-6.2352,-6.2425,-6.2021,-6.1838,-6.1948,-6.2205,-6.2315,-6.2315,-6.2755,-6.3085,-6.3379,-6.3562,-6.3965,-6.4589,-6.4332,-6.4185,-6.4075,0.0,-6.3012,-6.2278,-6.1838,-6.1508,-6.1141,-6.0628,-6.0224,-6.0078,-6.0774,0.0,-6.3012,-6.4222,-6.5396,-6.6386,-6.6826,-6.7303,-6.7633,-6.7633,-6.7633,-6.7633,-6.7633,-6.7633,-6.7523,0.0,0.0,0.0,0.0,0.0,0.0,0.0,0.0,0.0,0.0,0.0,0.0,0.0,0.0,0.0,0.0,0.0,0.0,0.0,0.0,0.0,-7.2969,-7.3359,-7.3594,-7.3672,-7.3594,-7.3555,-7.3555,-7.3906,-7.4101,-7.4101,-7.4414,-7.4609,-7.4609,-7.5,-7.5273,-7.539,-7.6133,-7.6484,-7.6484,-7.6484,-7.6445,-7.6328,-7.5976,-7.582,-7.582,-7.6211,-7.6094,-7.5742,-7.5742,-7.5703,-7.5586,-4.8719,-5.0123,-5.1707,-5.3025,-5.3902,-5.4747,-5.5618,-5.597,-5.6392,-5.7524,-5.8879,-5.963,-5.9119,-5.9373,-5.9482,-5.9047,0.0,0.0,-6.0532,-6.1148,-6.1803,-6.2792,-6.2755,-6.2902,-6.3232,-6.2865,-6.2828,-6.3158,-6.2902,-6.2755,-6.2755,-6.3122,-6.3342,-6.3415,-6.4112,-6.4516,-6.4589,-6.4919,-6.4882,0.0,-6.4112,-6.3452,0.0,-6.2278,-6.2095,-6.1948,-6.0811,-6.0628,-6.0884,0.0,-6.1801,-6.3012,0.0,-6.5176,-6.6019,-6.679,-6.7303,-6.7633,-6.7633,-6.7633,-6.7633,-6.7633,-6.7633,-6.7633,-6.756,0.0,-6.7083,0.0,0.0,0.0,0.0,0.0,0.0,0.0,0.0,0.0,0.0,0.0,0.0,0.0,0.0,0.0,0.0,0.0,0.0,-7.4297,-7.4414,-7.4609,-7.5,-7.4648,-7.4453,-7.4453,-7.4492,-7.4531,-7.4531,-7.4609,-7.4609,-7.4609,-7.5,-7.539,-7.582,-7.6289,-7.6484,-7.6484,-7.6484,-7.6289,-7.5937,-7.5859,-7.5625,-7.5351,-7.5742,-7.5703,-7.5273,-7.5273,-7.5039,-7.4726,-4.6747,-4.8237,-4.9246,-5.0186,-5.0878,-5.1857,-5.2749,-5.428,-5.5462,-5.6392,-5.7448,-5.799,-5.7663,-5.7735,-5.7348,-5.65,0.0,0.0,0.0,0.0,-5.9734,-6.1141,-6.1398,-6.1723,-6.2858,-6.2712,-6.2858,-6.3745,-6.3599,-6.3489,-6.3489,-6.3709,-6.3855,-6.4112,-6.4442,-6.4699,-6.4919,0.0,0.0,0.0,0.0,0.0,0.0,-6.2792,-6.2095,-6.1471,-6.1215,-6.1031,-6.1105,0.0,-6.2388,0.0,0.0,-6.4662,-6.5249,-6.5763,-6.6423,-6.6973,-6.7193,-6.7266,-6.7303,-6.756,-6.7633,-6.7633,-6.7633,0.0,-6.7486,0.0,0.0,0.0,0.0,0.0,0.0,0.0,-6.9223,0.0,0.0,0.0,-6.9643,0.0,0.0,0.0,0.0,0.0,0.0,0.0,0.0,-7.5586,-7.5234,-7.5039,-7.4844,-7.4609,-7.4609,-7.4609,-7.4609,-7.4609,-7.4609,-7.4609,-7.5,-7.5469,-7.5859,-7.6055,-7.6289,-7.6484,-7.5976,-7.5625,-7.5469,-7.5234,-7.5,-7.4883,-7.5078,-7.5,-7.4883,-7.4883,-7.4765,-7.4609,-4.5404,-4.6528,-4.7499,-4.7932,-4.8654,-4.941,-5.0459,-5.2522,-5.3942,-5.4617,0.0,0.0,-5.5879,-5.5705,0.0,-5.4009,0.0,-5.4721,0.0,0.0,-5.7613,-5.9825,-5.9967,0.0,0.0,-6.2697,-6.3177,-6.4479,-6.4295,-6.3922,-6.3922,-6.4031,-6.3949,-6.424,-6.4495,-6.4945,-6.5054,0.0,0.0,-6.4552,-6.4075,-6.3892,-6.3965,-6.3232,-6.2278,-6.1361,-6.1618,-6.1581,-6.1471,-6.2315,-6.2682,0.0,-6.3635,-6.4185,-6.4662,-6.5066,-6.5763,-6.6459,-6.679,-6.69,-6.7083,-6.7523,-6.7743,-6.7816,0.0,0.0,0.0,0.0,0.0,0.0,0.0,0.0,-6.9584,-6.9218,0.0,-6.9678,-6.9778,-7.0246,-7.0306,0.0,0.0,0.0,0.0,0.0,0.0,0.0,0.0,0.0,-7.5469,-7.5273,-7.5039,-7.4609,-7.4609,-7.4609,-7.4609,-7.4609,-7.4609,-7.4609,-7.4883,-7.5273,-7.5703,-7.5703,-7.5859,-7.6094,-7.5508,-7.5156,-7.5039,-7.4726,-7.4609,-7.4609,-7.4609,-7.4609,-7.4609,-7.4609,-7.4609,-7.4609,-4.481,-4.5152,-4.5726,-4.7637,-4.7989,-4.8283,-4.9079,-5.0431,-5.1363,-5.1837,0.0,0.0,0.0,0.0,0.0,0.0,0.0,-5.1749,-5.3752,0.0,-5.5832,0.0,0.0,0.0,0.0,-6.349,-6.4155,-6.5763,-6.4956,-6.4324,-6.3562,-6.3923,-6.3835,-6.3097,-6.4661,-6.5078,-6.4681,-6.5054,-6.4956,-6.4552,-6.3709,-6.3635,-6.3965,0.0,-6.2865,-6.2168,-6.2205,0.0,0.0,-6.2205,-6.2462,0.0,0.0,0.0,-6.4662,-6.5066,-6.5763,-6.6423,-6.6423,-6.6716,-6.7083,-6.7523,0.0,0.0,0.0,0.0,-6.7355,0.0,-6.6857,-6.7105,-6.7141,-6.8001,-6.8721,-6.836,-6.8896,0.0,0.0,-6.998,-7.0554,0.0,0.0,0.0,0.0,0.0,0.0,0.0,0.0,0.0,-7.5859,-7.5469,-7.5039,-7.4609,-7.4609,-7.4609,-7.4609,-7.4609,-7.4609,-7.4609,-7.4609,-7.4844,-7.5234,-7.5234,-7.5234,-7.5273,-7.5234,-7.5,-7.4609,-7.4609,-7.4609,-7.4609,-7.4609,-7.4609,-7.4609,-7.4609,-7.4609,-7.4609,-4.5344,-4.5562,-4.5617,-4.5965,-4.6101,-4.6563,-4.7297,-4.8504,-4.9491,0.0,0.0,0.0,0.0,0.0,-4.9707,0.0,0.0,-4.9158,-5.0594,-5.1193,0.0,0.0,0.0,-5.7709,0.0,0.0,-6.2064,-6.4445,-6.4194,-6.3617,-6.3084,-6.3189,-6.2951,-6.2437,-6.3266,-6.3576,0.0,0.0,0.0,0.0,0.0,-6.3489,-6.3599,0.0,0.0,-6.2938,-6.2682,-6.2572,0.0,-6.2902,-6.3048,-6.3232,-6.3342,-6.3599,-6.3819,-6.3965,-6.4405,0.0,0.0,0.0,-6.6349,-6.7046,0.0,0.0,0.0,0.0,0.0,0.0,-6.6502,-6.6857,-6.7105,-6.7962,-6.8354,-6.8247,-6.8717,-6.9295,0.0,-7.0525,0.0,0.0,0.0,0.0,0.0,0.0,0.0,0.0,0.0,0.0,0.0,-7.6328,-7.5859,-7.5469,-7.5156,-7.5,-7.5,-7.4726,-7.4609,-7.4609,-7.4609,-7.4805,-7.5234,-7.4922,-7.4961,-7.5234,-7.4922,-7.4726,-7.4609,-7.4609,-7.4609,-7.4609,-7.4609,-7.4609,-7.4609,-7.4609,-7.4609,-7.4609,-4.5772,-4.6012,-4.5932,-4.5558,-4.5638,-4.6046,-4.6293,-4.711,0.0,0.0,-4.8189,0.0,0.0,0.0,-4.7366,0.0,-4.6667,-4.702,-4.8314,-4.8583,0.0,-5.3257,-5.3416,0.0,0.0,0.0,0.0,-6.2162,-6.2162,-6.2025,-6.1399,-6.1535,-6.1324,-6.0519,-6.1739,-6.2297,-6.2403,-6.3286,-6.3566,0.0,0.0,-6.2959,0.0,0.0,-6.3112,0.0,0.0,-6.3012,-6.3048,-6.3268,-6.3489,-6.3599,-6.3599,-6.3709,-6.3819,-6.3819,-6.4002,-6.4369,-6.5029,-6.5396,0.0,-6.679,-6.7523,0.0,-6.6673,0.0,-6.657,0.0,-6.5437,-6.5682,-6.6382,-6.6872,-6.7292,-6.7278,-6.7522,-6.7801,0.0,-6.9961,0.0,0.0,0.0,0.0,-7.3736,0.0,0.0,0.0,0.0,0.0,0.0,0.0,-7.6797,-7.6328,-7.5937,-7.5664,-7.5664,-7.5117,-7.4805,-7.4805,-7.4648,-7.4726,-7.5,-7.4726,-7.4765,-7.5,-7.4726,-7.4609,-7.4609,-7.4609,-7.4609,-7.4609,-7.4609,-7.4609,-7.4609,-7.4609,-7.4609,-7.4609,-4.6199,-4.652,-4.6707,-4.6707,-4.6654,-4.644,-4.5879,-4.6077,-4.637,0.0,-4.6097,-4.644,-4.6951,-4.6153,-4.5841,-4.59,0.0,0.0,-4.6384,-4.6441,0.0,0.0,-5.1528,-5.3364,-5.665,0.0,0.0,0.0,-5.9382,-5.9103,-5.8359,-5.8714,-5.8624,-5.7834,-5.9832,-6.0652,-6.1167,-6.2059,-6.2636,-6.2756,-6.2368,-6.2015,-6.1697,-6.205,0.0,-6.3191,-6.3415,-6.3415,-6.3415,-6.3415,-6.3672,-6.3776,-6.3776,-6.4259,-6.4589,-6.4589,-6.4589,-6.4662,-6.5029,-6.5176,-6.5469,-6.6643,0.0,0.0,0.0,0.0,-6.544,0.0,-6.3906,-6.4009,-6.5105,-6.5379,-6.5065,-6.5182,-6.5018,-6.5451,-6.6723,-6.8286,-7.0093,0.0,0.0,-7.3208,-7.3648,-7.5192,0.0,0.0,0.0,-7.875,0.0,0.0,0.0,-7.7305,-7.6836,-7.6562,-7.6562,-7.5703,-7.5273,-7.5273,-7.4883,-7.4648,-7.4648,-7.4648,-7.4609,-7.4609,-7.4609,-7.4609,-7.4609,-7.4609,-7.4609,-7.4609,-7.4609,-7.4609,-7.4609,-7.4609,-7.4609,-7.4609,-4.6921,-4.7562,-4.7856,-4.7642,-4.7241,-4.6841,-4.644,0.0,0.0,0.0,-4.5366,-4.5154,-4.5701,-4.5076,-4.4674,-4.4978,-4.4445,0.0,0.0,0.0,0.0,-4.8814,-4.8901,-5.0141,-5.2835,-5.2958,0.0,-5.5823,-5.5544,-5.5668,-5.5587,-5.5923,-5.5939,-5.5339,-5.6273,-5.7114,-5.7889,-5.9442,-6.0742,-6.1817,-6.1437,-6.1195,0.0,0.0,-6.1222,-6.1003,-6.1821,-6.2242,-6.2242,-6.2242,-6.2314,-6.2421,-6.2421,-6.2721,-6.3358,-6.3358,-6.3622,-6.4222,-6.4662,-6.4956,-6.5359,-6.5983,-6.6095,-6.6015,0.0,0.0,0.0,0.0,0.0,-6.3461,-6.4043,-6.4162,-6.3855,-6.342,-6.2363,-6.1859,-6.2874,-6.4324,0.0,-6.7776,0.0,-7.0883,-7.3711,-7.5036,-7.6094,-7.7153,0.0,0.0,0.0,0.0,0.0,-7.8594,-7.789,-7.7461,-7.7461,-7.6601,-7.6172,-7.6172,-7.5742,-7.5351,-7.5039,-7.5039,-7.4883,-7.4609,-7.4609,-7.4609,-7.4609,-7.4609,-7.4609,-7.4609,-7.4609,-7.4609,-7.4609,-7.4609,-7.4609,-7.4609,-4.7268,-4.7963,-4.8337,-4.815,-4.7749,-4.7161,-4.636,0.0,0.0,-4.4698,0.0,0.0,0.0,-4.4091,-4.3941,-4.4238,-4.4299,0.0,0.0,0.0,0.0,-4.7204,-4.7472,-4.8292,-4.9978,-4.9862,0.0,-5.1816,0.0,-5.2551,-5.2947,-5.3413,-5.3586,-5.3725,-5.4315,-5.52,-5.6052,-5.767,-5.8463,-5.8758,-5.871,0.0,0.0,-5.8594,-5.8397,-5.8035,-5.8653,-5.9532,-6.0771,-6.1073,-6.0875,-6.1049,-6.1585,-6.2156,-6.2691,-6.2922,-6.308,-6.3274,-6.3707,-6.4082,-6.3995,-6.4843,-6.4805,-6.4232,-6.3371,-6.2577,-6.1779,0.0,-6.1493,-6.2,0.0,-6.321,-6.2766,-6.1773,-6.0414,-5.9796,-6.0877,0.0,0.0,0.0,-6.7708,0.0,-7.3298,-7.4318,-7.5073,-7.6432,-7.7304,-7.8062,0.0,0.0,0.0,-7.9375,-7.8555,-7.8125,-7.8125,-7.7265,-7.6914,-7.707,-7.6445,-7.5937,-7.5508,-7.5273,-7.5,-7.4609,-7.4609,-7.4609,-7.4609,-7.4609,-7.4609,-7.4609,-7.4609,-7.4609,-7.4609,-7.4609,-7.4609,-7.4609,-4.7455,-4.807,-4.8471,-4.8364,-4.807,0.0,0.0,-4.5531,0.0,-4.3795,0.0,-4.3607,0.0,-4.3634,-4.3741,0.0,0.0,-4.4543,0.0,-4.4837,-4.5374,-4.6104,-4.6131,-4.6921,-4.7965,-4.7715,0.0,0.0,0.0,-4.9469,-5.0387,-5.1055,-5.1696,-5.2252,-5.285,-5.3744,-5.4577,-5.6243,-5.6076,-5.5453,-5.5658,-5.529,-5.4421,-5.5233,-5.5297,-5.4771,-5.4771,-5.6519,-5.872,-5.9229,-5.9159,-5.946,-6.0552,-6.113,-6.1437,-6.2181,-6.2205,-6.2029,-6.2381,-6.224,-6.2135,-6.2838,-6.2468,-6.1715,-6.1472,-5.9919,-5.8955,-5.9284,-5.9382,-5.9959,0.0,-6.1874,-6.1094,-5.9464,-5.8509,-5.8319,0.0,0.0,0.0,0.0,0.0,0.0,-7.1239,-7.2559,-7.4024,-7.5451,-7.6432,-7.776,0.0,0.0,0.0,-7.9844,-7.8984,0.0,-7.8515,0.0,-7.7578,-7.8008,-7.707,-7.6445,-7.5937,-7.5508,-7.5039,-7.4609,-7.4609,-7.4609,-7.4609,-7.4609,-7.4609,-7.4609,-7.4609,-7.4609,-7.4609,-7.4609,-7.4609,-7.4609,-4.7963,-4.8711,-4.8952,0.0,0.0,-4.7161,0.0,-4.5718,-4.5344,-4.4409,-4.4062,0.0,-4.3928,-4.4142,-4.4302,-4.4356,-4.4837,0.0,0.0,0.0,0.0,-4.5616,-4.5562,-4.5616,-4.575,-4.567,-4.5939,0.0,0.0,-4.7943,-4.8304,-4.9406,-5.0105,-5.0481,-5.1025,-5.1847,-5.3091,-5.361,-5.4113,-5.4081,-5.378,-5.3336,-5.2728,-5.2744,-5.2626,-5.2537,-5.2537,-5.3905,-5.5787,-5.5479,-5.551,-5.6126,-5.6403,-5.7263,-5.8364,-5.8397,-5.8846,-5.9359,-5.9426,-5.9393,-5.9359,-5.9527,-5.9012,-5.822,-5.7424,-5.6562,-5.5975,-5.6038,-5.6848,-5.7757,-5.9149,0.0,0.0,-5.6062,0.0,0.0,0.0,0.0,0.0,0.0,0.0,-6.4482,-6.6728,-6.9749,-7.2834,-7.5376,-7.5562,-7.6962,-7.9595,0.0,-7.9014,0.0,-7.9453,0.0,0.0,0.0,-7.8476,-7.8867,-7.8008,-7.7187,-7.6367,-7.5937,-7.5351,-7.4609,-7.4609,-7.4609,-7.4609,-7.4609,-7.4609,-7.4609,-7.4609,-7.4609,-7.4609,-7.4609,-7.4609,-7.4609,-4.7936,0.0,0.0,0.0,0.0,0.0,0.0,-4.5932,0.0,-4.4543,-4.4329,-4.4302,-4.4436,-4.4596,-4.465,-4.465,-4.505,-4.5318,0.0,-4.5611,-4.5665,-4.5531,-4.5531,0.0,-4.5531,-4.5398,-4.5611,-4.6199,0.0,-4.7268,-4.8177,-4.9058,-4.9726,-5.0154,-5.0288,-5.0669,-5.1519,-5.1807,0.0,-5.1543,-5.1048,-5.0654,-5.0171,-5.0147,-5.0316,-5.0316,-5.0316,-5.0852,-5.2006,-5.2817,-5.3097,-5.3097,-5.3905,-5.4771,-5.5326,-5.5604,-5.6284,-5.6411,-5.6411,-5.6411,-5.6411,-5.6411,-5.5975,-5.5049,-5.474,-5.3935,-5.3097,-5.3377,-5.4489,-5.573,-5.7423,-5.732,0.0,0.0,0.0,0.0,0.0,0.0,0.0,0.0,0.0,-6.3087,0.0,0.0,-6.9926,-7.2921,-7.4003,-7.5927,0.0,0.0,-7.9172,0.0,0.0,0.0,0.0,0.0,0.0,-7.875,-7.8125,-7.7344,-7.6484,-7.6055,-7.539,-7.4609,-7.4609,-7.4609,-7.4609,-7.4609,-7.4609,-7.4609,-7.4609,-7.4609,-7.4609,-7.4609,-7.4609,-7.4609,0.0,-4.7963,0.0,0.0,-4.7642,0.0,0.0,-4.6012,-4.5371,-4.4623,-4.4543,-4.4623,-4.4837,-4.4943,-4.4997,-4.505,-4.5318,-4.5531,-4.5611,-4.5825,-4.5932,-4.5932,-4.5932,-4.5932,-4.5932,-4.5718,-4.5825,0.0,0.0,-4.7375,-4.831,-4.9112,-4.9753,-5.0234,-5.01,-5.0181,-5.0341,0.0,-4.9727,-4.9032,-4.8835,-4.8483,-4.7829,-4.8159,-4.8362,-4.8362,-4.8362,-4.8362,-4.8646,-5.0316,-5.0881,-5.0599,-5.1725,-5.2287,-5.2567,-5.3187,-5.3366,-5.3605,-5.3665,-5.3695,-5.3695,-5.3695,-5.3204,-5.2463,-5.2404,-5.1277,-5.0684,-5.1191,-5.2211,-5.3665,-5.5313,-5.5484,0.0,0.0,0.0,0.0,0.0,0.0,0.0,0.0,-6.0311,-6.1597,-6.1948,0.0,-6.6393,-6.9552,-7.213,-7.4807,-7.7897,0.0,0.0,0.0,0.0,-7.9375,-7.8594,0.0,-7.8359,0.0,-7.7773,-7.7148,-7.6328,-7.5937,-7.5312,-7.4609,-7.4609,-7.4609,-7.4609,-7.4609,-7.4609,-7.4609,-7.4609,-7.4609,-7.4609,-7.4609,-7.4609,-7.4609,0.0,0.0,0.0,0.0,0.0,0.0,0.0,-4.5558,-4.5237,-4.489,-4.4837,-4.4837,-4.489,-4.5131,-4.5371,-4.5638,-4.5932,-4.6226,-4.6467,-4.652,-4.6547,-4.6547,-4.6547,-4.6547,-4.6547,-4.652,-4.652,0.0,0.0,-4.7856,-4.8016,-4.9432,-5.0234,-5.0528,-4.9994,-4.978,0.0,-4.9112,-4.8711,-4.8417,-4.8096,-4.7749,-4.7535,-4.7509,-4.7509,-4.7509,-4.7509,-4.7509,-4.7766,-4.7793,-4.8362,-4.893,-4.8902,-4.9496,-5.0119,-5.04,-5.0513,-5.0597,-5.0851,-5.0935,-5.0935,-5.0935,-5.0907,-5.0535,-4.9684,-4.9342,-4.926,-4.8957,-5.009,-5.122,-5.1559,-5.1796,-5.214,0.0,0.0,0.0,0.0,0.0,-5.5452,-5.551,-5.7004,-5.8309,-5.8611,-6.0476,-6.298,-6.5579,-6.9729,-7.3247,-7.6307,-7.7251,0.0,-7.9711,0.0,-7.9492,-7.9023,-7.8281,0.0,-7.789,-7.7031,-7.6367,-7.5937,-7.5469,-7.5039,-7.4609,-7.4609,-7.4609,-7.4609,-7.4609,-7.4609,-7.4609,-7.4609,-7.4609,-7.4609,-7.4609,-7.4609,-7.4609,0.0,0.0,0.0,0.0,0.0,0.0,0.0,-4.5905,-4.5799,-4.5692,-4.5344,-4.5291,-4.5638,-4.5745,-4.5959,-4.6253,-4.636,-4.652,-4.6627,-4.6627,-4.6627,-4.6627,-4.6627,-4.6627,-4.6627,-4.6627,-4.6707,0.0,0.0,0.0,-4.823,-4.9165,-4.9673,-4.978,-4.9165,-4.9005,-4.9139,-4.8551,-4.823,-4.807,-4.7776,-4.7616,-4.7509,-4.7509,-4.7509,-4.7509,-4.7509,-4.7509,-4.7509,-4.7509,-4.7766,-4.8051,-4.8051,-4.8186,-4.8661,-4.877,-4.9069,-4.9368,-4.9477,-4.9504,-4.9504,-4.9504,-4.9368,-4.9205,-4.8808,-4.8781,-4.8754,-4.8619,-4.9193,-5.0311,-5.0625,-5.0963,-5.1386,0.0,0.0,0.0,0.0,0.0,-5.4402,-5.4167,-5.6396,-5.7695,-5.7098,-5.9729,-6.1961,-6.3431,-6.7418,-7.1599,-7.5022,-7.6454,0.0,-8.0134,0.0,-7.9433,-7.9101,-7.8242,-7.7539,-7.7031,-7.6406,-7.5937,-7.5469,-7.5273,-7.5,-7.4609,-7.4609,-7.4609,-7.4609,-7.4609,-7.4609,-7.4609,-7.4609,-7.4609,-7.4609,-7.4609,-7.4609,-7.4609,-4.6012,0.0,-4.636,0.0,-4.6253,-4.6199,-4.6199,-4.6253,-4.6333,-4.6333,-4.5959,-4.5852,-4.6253,-4.6333,-4.644,-4.6734,-4.676,-4.6814,-4.6867,-4.6867,-4.6867,-4.6867,-4.6867,0.0,-4.6867,-4.6867,-4.6974,-4.7215,-4.7776,0.0,-4.8364,-4.8925,-4.9219,0.0,-4.8551,-4.8364,-4.8524,-4.8016,-4.7776,-4.7776,-4.7669,-4.7642,-4.7642,-4.7722,-4.7749,-4.7749,-4.7749,-4.7749,-4.7749,-4.7749,-4.7749,-4.7749,-4.7642,-4.7749,-4.7963,-4.815,-4.8471,-4.8845,-4.8925,-4.8952,-4.8952,-4.8952,-4.8818,-4.8631,-4.8524,-4.8524,-4.8471,-4.839,-4.8943,-4.926,-4.9838,-5.0085,-5.0625,-5.0874,0.0,0.0,0.0,-5.2523,-5.2859,-5.2784,-5.5012,-5.6452,-5.5442,-5.8181,-6.0665,0.0,0.0,-6.9443,-7.3768,-7.5808,0.0,0.0,0.0,0.0,0.0,-7.8515,-7.75,-7.6484,-7.5937,-7.5469,-7.5039,-7.5039,-7.4883,-7.4609,-7.4609,-7.4609,-7.4609,-7.4609,-7.4609,-7.4609,-7.4609,-7.4609,-7.4609,-7.4609,-7.4609,-7.4609,-4.5718,-4.5745,-4.5745,-4.5745,-4.6012,-4.6199,-4.6199,-4.644,-4.6627,-4.6627,-4.6627,-4.6627,-4.6627,-4.6627,-4.6734,-4.7028,-4.7054,-4.7188,-4.7455,-4.7509,-4.7509,0.0,0.0,-4.7509,-4.7509,-4.7509,-4.7509,-4.7509,0.0,0.0,-4.8364,-4.8658,-4.8978,-4.9245,-4.8337,-4.7936,-4.7936,-4.7642,-4.7509,-4.7535,-4.7829,-4.7936,-4.7963,-4.8257,-4.8364,-4.8364,-4.8364,-4.8364,-4.8364,-4.8364,-4.8364,-4.831,-4.8016,-4.7936,-4.8043,-4.8631,-4.8818,-4.8871,-4.9219,-4.9272,-4.9272,-4.9272,-4.9272,-4.9165,-4.8871,-4.8818,-4.8738,-4.8444,-4.8364,-4.839,-4.839,-4.8604,-4.8818,-4.8818,0.0,0.0,0.0,-5.0234,-5.0715,-5.0982,-5.2714,-5.3598,-5.3571,-5.5975,0.0,0.0,0.0,0.0,0.0,0.0,0.0,-7.9804,-8.0285,0.0,-8.0351,-7.9101,-7.7773,-7.6484,-7.5625,-7.5,-7.4609,-7.4609,-7.4609,-7.4609,-7.4609,-7.4609,-7.4609,-7.4609,-7.4609,-7.4609,-7.4609,-7.4609,-7.4609,-7.4609,-7.4609,-7.4609,-4.6333,-4.6333,-4.6333,-4.6333,-4.6413,-4.6467,-4.6467,-4.6734,-4.6921,-4.6921,-4.7108,-4.7215,-4.7215,-4.7028,-4.7028,0.0,-4.7348,-4.7402,0.0,-4.7509,-4.7509,-4.7509,-4.7509,-4.7509,-4.7509,-4.7509,-4.7509,-4.7509,0.0,0.0,0.0,-4.8257,-4.8257,-4.8337,-4.7856,-4.7642,-4.7642,-4.7535,-4.7616,-4.7776,-4.7883,-4.8043,-4.823,-4.8337,-4.8364,-4.8364,-4.8364,-4.8364,-4.8364,-4.8364,-4.8364,-4.8444,-4.8738,-4.8711,-4.8631,-4.9032,-4.9272,-4.9486,-4.978,-4.986,-4.986,-4.986,-4.986,-4.986,-4.9753,-4.9726,-4.9646,-4.9352,-4.9272,-4.9245,-4.9032,-4.9058,-4.9139,-4.9139,-4.9112,0.0,-4.9379,-4.994,-5.0555,-5.1249,-5.2729,-5.3954,0.0,-5.5426,0.0,0.0,0.0,0.0,0.0,0.0,0.0,0.0,-7.8863,0.0,-7.9492,-7.8242,-7.707,-7.6055,-7.5234,-7.4726,-7.4609,-7.4609,-7.4609,-7.4609,-7.4609,-7.4609,-7.4609,-7.4609,-7.4609,-7.4609,-7.4609,-7.4609,-7.4609,-7.4609,-7.4609,-7.4609,-4.6627,-4.6627,-4.6627,-4.6627,-4.6707,-4.6814,-4.6814,-4.7028,-4.7241,-4.7241,-4.7402,-4.7509,-4.7509,-4.7428,0.0,-4.7509,-4.7616,-4.7669,-4.7669,-4.7749,-4.7776,-4.7669,-4.7669,-4.7669,-4.7669,0.0,0.0,-4.7829,-4.8123,-4.8417,-4.8711,-4.8417,-4.8177,-4.807,-4.7909,-4.7749,-4.7669,-4.7776,-4.7936,-4.8123,-4.823,-4.8364,-4.8551,-4.8658,-4.8711,-4.8711,-4.8711,-4.8711,-4.8711,-4.8711,-4.8764,-4.8952,-4.9326,-4.9379,-4.9352,-4.9539,-4.9753,-4.994,-5.01,-5.0154,-5.0154,-5.0154,-5.0154,-5.0154,-5.0154,-5.0154,-5.0074,-4.978,-4.9726,-4.9646,-4.9326,-4.9272,-4.9272,-4.9272,-4.9112,-4.9112,-4.9406,-4.994,-5.0581,-5.1356,-5.2783,0.0,0.0,-5.4268,0.0,0.0,0.0,0.0,0.0,0.0,0.0,-7.7447,-7.7528,0.0,-7.8867,-7.789,-7.6914,-7.5859,-7.5,-7.4609,-7.4609,-7.4609,-7.4687,-7.4805,-7.4648,-7.4687,-7.4805,-7.4648,-7.4609,-7.4609,-7.4609,-7.4609,-7.4609,-7.4609,-7.4609,-7.4609,-4.668,-4.668,0.0,0.0,-4.6921,0.0,-4.7108,-4.7348,-4.7535,-4.7535,-4.7535,-4.7562,-4.7562,-4.7803,-4.7856,-4.7562,0.0,0.0,0.0,-4.823,-4.8257,-4.7963,-4.7963,-4.7963,-4.7963,-4.7963,-4.8123,-4.8364,-4.8631,-4.8925,-4.9219,-4.8925,-4.8631,-4.8364,-4.8364,-4.823,-4.7963,-4.8257,-4.8364,-4.8417,-4.8711,-4.8818,-4.8871,-4.9165,-4.9272,-4.9272,-4.9326,-4.9326,-4.9326,-4.9326,-4.9539,-4.9753,-4.9753,-4.9967,-5.0181,-5.0181,-5.0181,-5.0181,-5.0207,-5.0207,-5.0207,-5.0207,-5.0207,-5.0207,-5.0207,-5.0207,-5.0127,-4.9833,-4.9753,-4.9646,-4.9352,-4.9272,-4.9272,-4.9272,-4.9272,-4.9379,-4.9726,-5.0234,-5.0822,-5.1437,0.0,0.0,0.0,-5.2485,-5.2941,0.0,0.0,0.0,0.0,0.0,-7.2344,-7.5823,-7.647,-7.7263,-7.8281,-7.7812,-7.6953,-7.5742,-7.4961,-7.4609,-7.4648,-7.4648,-7.4883,-7.5234,-7.4883,-7.4883,-7.5234,-7.4844,-7.4648,-7.4648,-7.4648,-7.4609,-7.4609,-7.4648,-7.4648,-7.4648,0.0,0.0,-4.7268,-4.7268,-4.7348,-4.7402,-4.7402,-4.7642,-4.7829,-4.7829,-4.8043,-4.815,-4.815,-4.823,-4.823,-4.815,-4.823,-4.8257,-4.8257,-4.8337,-4.8337,-4.8257,-4.8257,-4.8257,-4.8257,-4.8257,-4.831,-4.8364,-4.8444,-4.8524,-4.8604,-4.8524,-4.8444,-4.8364,-4.8364,-4.8337,-4.8257,-4.8337,-4.8524,-4.8711,-4.8764,-4.8952,-4.9165,-4.9245,-4.9272,-4.9326,-4.9539,-4.962,-4.9646,-4.986,-4.9994,-5.0074,-5.0314,-5.0448,-5.0475,-5.0475,-5.0475,-5.0528,-5.0768,-5.0795,-5.0795,-5.0795,-5.0795,-5.0795,-5.0795,-5.0795,-5.0662,-5.0154,-5.0047,-4.9887,-4.9379,-4.9272,-4.9272,-4.9272,-4.9272,-4.9459,-4.9967,-5.0368,-5.0875,-5.173,-5.1944,-5.1891,-5.1624,-5.1691,-5.1728,0.0,0.0,0.0,0.0,-6.286,-6.7276,-7.2367,-7.3877,-7.4782,-7.5113,-7.5261,-7.5039,-7.4414,-7.4531,-7.4765,-7.5039,-7.5039,-7.5273,-7.5703,-7.5625,-7.5625,-7.5703,-7.5625,-7.5351,-7.5039,-7.5039,-7.4883,-7.4648,-7.4922,-7.5039,-7.5117,-4.7909,-4.7909,-4.7909,-4.7909,-4.7909,-4.7909,-4.7909,-4.8043,-4.8123,-4.8123,-4.8257,-4.8364,-4.8364,-4.8497,-4.8551,-4.8551,-4.8551,-4.8551,-4.8551,-4.8711,-4.8738,-4.8577,-4.8551,-4.8551,-4.8551,-4.8551,-4.8711,-4.8978,-4.8978,-4.9058,-4.9165,-4.9058,-4.8925,-4.8764,-4.8764,-4.8711,-4.8577,-4.8738,-4.8871,-4.9032,-4.9032,-4.9139,-4.9272,-4.9432,-4.9459,-4.9539,-4.9833,-4.9887,-4.994,-5.01,-5.0234,-5.0368,-5.0555,-5.0688,-5.0768,-5.0768,-5.0768,-5.0822,-5.0982,-5.1036,-5.1036,-5.1036,-5.1036,-5.1036,-5.1036,-5.1036,-5.0875,-5.0448,-5.0261,-4.9994,-4.9566,-4.9459,-4.9459,-4.9459,-4.962,-4.9833,-5.0288,-5.0581,-5.0956,-5.1437,-5.149,-5.133,-5.0929,-5.0581,-5.0589,-5.0619,-5.176,0.0,-5.6738,-5.9383,-6.3635,-6.9443,-7.122,-7.251,-7.3517,-7.4133,-7.418,-7.3984,-7.4609,-7.5,-7.5234,-7.539,-7.5742,-7.6172,-7.5937,-7.5976,-7.6172,-7.5937,-7.5742,-7.5508,-7.5508,-7.539,-7.5234,-7.5469,-7.5508,-7.5586,-4.8364,-4.8364,-4.8364,-4.8364,-4.8364,-4.8364,-4.8364,-4.8444,-4.8524,-4.8524,-4.8604,-4.8631,-4.8631,-4.8845,-4.9032,-4.9032,-4.8952,-4.8925,-4.8871,-4.9139,-4.9165,-4.8871,-4.8871,-4.8871,-4.8871,-4.8925,-4.9219,-4.9726,-4.9753,-4.9887,-5.0154,-4.9887,-4.9646,-4.9432,-4.9432,-4.9272,-4.9032,-4.9272,-4.9432,-4.9432,-4.9432,-4.9432,-4.9432,-4.9673,-4.978,-4.9833,-5.0127,-5.0234,-5.0234,-5.0261,-5.0448,-5.0662,-5.0662,-5.0822,-5.1036,-5.1036,-5.1036,-5.1036,-5.1036,-5.1036,-5.1036,-5.1036,-5.1036,-5.1036,-5.1036,-5.1036,-5.0956,-5.0662,-5.0394,-5.0127,-4.9833,-4.978,-4.978,-4.978,-4.9994,-5.0261,-5.0555,-5.0822,-5.0982,-5.1036,-5.0982,-5.0742,-5.0181,-4.9887,-4.962,-4.9326,-4.9862,-5.1599,-5.446,-5.6775,-6.0771,-6.6706,-6.8792,-7.0642,-7.2671,-7.3549,-7.3906,-7.3984,-7.4805,-7.5273,-7.5351,-7.5742,-7.6211,-7.6601,-7.6289,-7.6367,-7.668,-7.6406,-7.6172,-7.6055,-7.6055,-7.5976,-7.5859,-7.5937,-7.5976,-7.5976,-4.8417,-4.8364,-4.8364,-4.8364,-4.8364,-4.8364,-4.8364,-4.8818,-4.9139,-4.9139,-4.9566,-4.986,-4.986,-4.994,-4.994,-4.994,-4.9726,-4.9459,-4.9219,-4.9245,-4.9245,-4.9219,-4.9219,-4.9219,-4.9219,-4.9459,-4.962,-4.9726,-4.9967,-5.01,-5.0154,-5.01,-5.0047,-4.9994,-4.9994,-4.9994,-4.994,-4.9994,-4.9994,-4.9994,-4.9994,-4.9994,-4.9994,-5.0074,-5.0074,-5.0127,-5.0421,-5.0528,-5.0555,-5.0795,-5.0929,-5.0956,-5.0956,-5.0982,-5.1036,-5.1036,-5.1036,-5.1036,-5.1036,-5.1036,-5.1036,-5.1036,-5.1036,-5.1036,-5.1036,-5.1036,-5.0956,-5.0662,-5.0555,-5.0448,-5.0154,-5.0074,-5.0074,-5.0074,-5.01,-5.0261,-5.0555,-5.0635,-5.0742,-5.0982,-5.0822,-5.0528,-5.0181,-4.9887,-4.962,-4.9326,-4.9862,-5.1306,-5.3091,-5.539,-5.8052,-6.1719,-6.5968,-6.9225,-7.1747,-7.2965,-7.3594,-7.3984,-7.4805,-7.539,-7.582,-7.6211,-7.668,-7.707,-7.7422,-7.7539,-7.7656,-7.793,-7.7656,-7.6953,-7.6953,-7.6523,-7.5937,-7.6289,-7.6406,-7.6445,-4.9165,-4.9112,-4.9112,-4.9112,-4.9112,-4.9139,-4.9326,-4.9566,-4.9753,-4.9753,-4.9967,-5.0154,-5.0154,-5.0154,-5.0154,-5.0154,-5.0047,-4.9887,-4.9753,-4.9459,-4.9272,-4.9272,-4.9272,-4.9352,-4.9513,-4.9646,-4.986,-5.0181,-5.0341,-5.0475,-5.0635,-5.0448,-5.0368,-5.0368,-5.0234,-5.0154,-5.0154,-5.0154,-5.0154,-5.0154,-5.0154,-5.0154,-5.0154,-5.0341,-5.0368,-5.0448,-5.0742,-5.0822,-5.0849,-5.0982,-5.1036,-5.1036,-5.1036,-5.1036,-5.1036,-5.1036,-5.1036,-5.1036,-5.1036,-5.1036,-5.1036,-5.1036,-5.1036,-5.1036,-5.1036,-5.1036,-5.0982,-5.0849,-5.0688,-5.0555,-5.0421,-5.0368,-5.0368,-5.0368,-5.0528,-5.0662,-5.0795,-5.0822,-5.0822,-5.0795,-5.0662,-5.0421,-4.9967,-4.978,-4.962,-4.9326,-4.9594,-5.0718,-5.277,-5.4228,-5.6806,-6.0817,-6.5332,-6.8613,-7.0411,-7.194,-7.3354,-7.4297,-7.5156,-7.582,-7.6211,-7.668,-7.6953,-7.7187,-7.7422,-7.7461,-7.7539,-7.793,-7.789,-7.7539,-7.7539,-7.7305,-7.6914,-7.6914,-7.6836,-7.6914,-4.986,-4.9833,-4.9833,-4.9833,-4.9833,-4.9887,-5.01,-5.0234,-5.0261,-5.0261,-5.0288,-5.0368,-5.0368,-5.0368,-5.0368,-5.0368,-5.0288,-5.0261,-5.0261,-4.9753,-4.9486,-4.9486,-4.9486,-4.9566,-4.9833,-4.9887,-5.0154,-5.0581,-5.0662,-5.0822,-5.1036,-5.0795,-5.0688,-5.0688,-5.0448,-5.0368,-5.0368,-5.0368,-5.0368,-5.0368,-5.0368,-5.0368,-5.0368,-5.0581,-5.0688,-5.0742,-5.0956,-5.1036,-5.1036,-5.1036,-5.1036,-5.1036,-5.1036,-5.1036,-5.1036,-5.1036,-5.1036,-5.1036,-5.1036,-5.1036,-5.1036,-5.1036,-5.1036,-5.1036,-5.1036,-5.1036,-5.1036,-5.1036,-5.0849,-5.0688,-5.0688,-5.0688,-5.0688,-5.0688,-5.0875,-5.1036,-5.1036,-5.1036,-5.0956,-5.0742,-5.0635,-5.0421,-4.9967,-4.986,-4.9673,-4.9406,-4.9379,-5.0212,-5.2214,-5.3034,-5.536,-6.006,-6.5193,-6.8205,-6.917,-7.1258,-7.3028,-7.4444,-7.5508,-7.6094,-7.6523,-7.6953,-7.7187,-7.7187,-7.7305,-7.7344,-7.7383,-7.7812,-7.793,-7.7812,-7.793,-7.793,-7.7812,-7.7578,-7.75,-7.75,-5.0181,-5.01,-5.01,-5.01,-5.01,-5.0127,-5.0154,-5.0368,-5.0555,-5.0555,-5.0795,-5.0956,-5.0956,-5.0956,-5.0956,-5.0956,-5.0715,-5.0555,-5.0555,-5.0261,-5.0074,-5.0074,-5.0074,-5.01,-5.01,-5.0368,-5.0555,-5.0581,-5.0849,-5.0982,-5.1036,-5.0982,-5.0982,-5.0982,-5.0956,-5.0956,-5.0956,-5.0956,-5.0956,-5.0956,-5.0956,-5.0956,-5.0956,-5.0982,-5.0982,-5.0982,-5.1036,-5.1036,-5.1036,-5.1036,-5.1036,-5.1036,-5.1036,-5.1036,-5.1036,-5.1036,-5.1036,-5.1036,-5.1036,-5.1036,-5.1036,-5.1036,-5.1036,-5.1036,-5.1036,-5.1036,-5.1036,-5.1036,-5.1036,-5.0982,-5.0982,-5.0982,-5.0982,-5.0982,-5.1036,-5.1036,-5.1036,-5.1036,-5.1036,-5.0982,-5.0768,-5.0581,-5.0528,-5.0261,-4.9994,-4.9726,-4.9673,-4.9836,-5.0452,-5.1306,-5.3762,-5.785,-6.4733,-6.8367,-6.877,-7.1396,-7.3171,-7.4056,-7.5378,-7.6094,-7.6523,-7.6953,-7.7187,-7.7187,-7.7578,-7.7773,-7.7812,-7.8242,-7.8164,-7.789,-7.8281,-7.8164,-7.789,-7.8242,-7.8359,-7.8359,-5.0475,-5.0421,-5.0421,-5.0421,-5.0421,-5.0475,-5.0662,-5.0768,-5.0849,-5.0849,-5.0956,-5.1036,-5.1036,-5.1036,-5.1036,-5.1036,-5.0929,-5.0849,-5.0849,-5.0768,-5.0528,-5.0154,-5.0154,-5.0234,-5.0421,-5.0528,-5.0768,-5.1143,-5.1249,-5.1276,-5.1276,-5.1276,-5.1196,-5.1036,-5.1036,-5.1036,-5.1036,-5.1036,-5.1036,-5.1036,-5.1036,-5.1036,-5.1036,-5.1036,-5.1036,-5.1036,-5.1036,-5.1036,-5.1036,-5.1036,-5.1036,-5.1036,-5.1036,-5.1036,-5.1036,-5.1036,-5.1036,-5.1036,-5.1036,-5.1036,-5.1036,-5.1036,-5.1036,-5.1036,-5.1036,-5.1036,-5.1036,-5.1036,-5.1036,-5.1036,-5.1036,-5.1036,-5.1036,-5.1036,-5.1036,-5.1036,-5.1036,-5.1036,-5.1036,-5.1036,-5.0929,-5.0768,-5.0608,-5.0475,-5.0288,-4.9994,-4.9967,-5.0132,-5.0725,-5.244,-5.4552,-5.7039,-6.2064,-6.557,-6.775,-6.9825,-7.2209,-7.4517,-7.5191,-7.5944,-7.6953,-7.7148,-7.7187,-7.7187,-7.7383,-7.7422,-7.7461,-7.789,-7.8008,-7.7812,-7.8008,-7.8125,-7.8242,-7.8125,-7.8242,-7.8476,-5.0768,-5.0742,-5.0742,-5.0742,-5.0742,-5.0795,-5.0982,-5.1036,-5.1036,-5.1036,-5.1036,-5.1036,-5.1036,-5.1036,-5.1036,-5.1036,-5.1036,-5.1036,-5.1036,-5.1036,-5.0849,-5.0448,-5.0501,-5.0662,-5.0849,-5.0956,-5.1223,-5.1624,-5.1624,-5.1624,-5.1624,-5.1517,-5.1356,-5.1169,-5.1062,-5.1036,-5.1036,-5.1036,-5.1062,-5.1169,-5.1169,-5.1223,-5.1303,-5.1303,-5.1249,-5.1169,-5.1169,-5.1089,-5.1036,-5.1036,-5.1036,-5.1036,-5.1036,-5.1036,-5.1036,-5.1036,-5.1036,-5.1036,-5.1036,-5.1036,-5.1036,-5.1036,-5.1036,-5.1036,-5.1036,-5.1036,-5.1036,-5.1036,-5.1036,-5.1036,-5.1036,-5.1036,-5.1036,-5.1036,-5.1036,-5.1036,-5.1036,-5.1036,-5.1036,-5.1036,-5.1036,-5.0956,-5.0742,-5.0742,-5.0581,-5.0288,-5.0288,-5.0454,-5.0756,-5.2484,-5.4286,-5.5878,-5.9342,-6.2666,-6.6046,-6.8901,-7.1472,-7.4072,-7.492,-7.5847,-7.6895,-7.7226,-7.7187,-7.7187,-7.7187,-7.7187,-7.7187,-7.75,-7.7656,-7.7656,-7.7773,-7.8008,-7.8242,-7.8047,-7.8242,-7.8476,-5.1036,-5.1036,-5.1036,-5.1036,-5.1036,-5.1036,-5.1036,-5.1036,-5.1036,-5.1036,-5.1036,-5.1036,-5.1036,-5.1036,-5.1036,-5.1036,-5.1036,-5.1036,-5.1036,-5.1036,-5.1036,-5.1036,-5.133,-5.1463,-5.1463,-5.1757,-5.1891,-5.1891,-5.1891,-5.1891,-5.1891,-5.1624,-5.1463,-5.1463,-5.1169,-5.1036,-5.1036,-5.1036,-5.1196,-5.1463,-5.1463,-5.165,-5.1891,-5.1891,-5.173,-5.1463,-5.1463,-5.1276,-5.1036,-5.1036,-5.1036,-5.1036,-5.1036,-5.1036,-5.1036,-5.1036,-5.1036,-5.1036,-5.1036,-5.1036,-5.1036,-5.1036,-5.1036,-5.1036,-5.1036,-5.1036,-5.1036,-5.1036,-5.1036,-5.1036,-5.1036,-5.1036,-5.1036,-5.1036,-5.1036,-5.1036,-5.1036,-5.1036,-5.1036,-5.1036,-5.1036,-5.1036,-5.1036,-5.1036,-5.0929,-5.0635,-5.0581,-5.0475,-5.0181,-5.0755,-5.2064,-5.4145,-5.6864,-5.9893,-6.3558,-6.8276,-7.1335,-7.3027,-7.4452,-7.5556,-7.5979,-7.6895,-7.7187,-7.7187,-7.7187,-7.7187,-7.7187,-7.7187,-7.7187,-7.7265,-7.7656,-7.7812,-7.789,-7.8281,-7.8476,-7.8476,-5.165,-5.165,-5.157,-5.1356,-5.149,-5.149,-5.1089,-5.1196,-5.1249,-5.1062,-5.1196,-5.133,-5.133,-5.1517,-5.165,-5.165,-5.1463,-5.1249,-5.1036,-5.1036,-5.1143,-5.133,-5.1437,-5.1463,-5.1463,-5.1757,-5.1998,-5.2185,-5.2185,-5.2185,-5.2185,-5.2131,-5.1971,-5.1757,-5.1677,-5.165,-5.165,-5.165,-5.1677,-5.1757,-5.1757,-5.1837,-5.1891,-5.1891,-5.173,-5.1463,-5.1463,-5.1276,-5.1036,-5.1036,-5.1036,-5.1036,-5.1036,-5.1036,-5.1036,-5.1036,-5.1036,-5.1036,-5.1036,-5.1036,-5.1036,-5.1036,-5.1036,-5.1036,-5.1036,-5.1036,-5.1036,-5.1036,-5.1036,-5.1036,-5.1036,-5.1036,-5.1036,-5.1036,-5.1036,-5.1036,-5.1036,-5.1036,-5.1036,-5.1036,-5.1036,-5.1036,-5.1036,-5.1036,-5.0982,-5.0929,-5.0715,-5.0555,-5.0475,-5.075,-5.1683,-5.3272,-5.5567,-5.846,-6.1519,-6.5981,-6.9494,-7.2109,-7.2994,-7.4102,-7.5979,-7.6311,-7.6603,-7.7187,-7.7187,-7.7187,-7.7187,-7.7187,-7.7187,-7.7187,-7.7305,-7.7539,-7.7812,-7.793,-7.8242,-7.8476,-5.1891,-5.1891,-5.1837,-5.1677,-5.1784,-5.1784,-5.1437,-5.1543,-5.157,-5.1383,-5.1543,-5.165,-5.165,-5.1784,-5.1891,-5.1891,-5.1757,-5.157,-5.1383,-5.1356,-5.1463,-5.165,-5.1757,-5.1784,-5.1784,-5.2078,-5.2345,-5.2505,-5.2505,-5.2505,-5.2505,-5.2372,-5.2238,-5.2078,-5.1944,-5.1891,-5.1891,-5.1891,-5.1971,-5.2078,-5.2078,-5.2158,-5.2238,-5.2238,-5.2051,-5.1784,-5.1784,-5.1543,-5.1196,-5.1196,-5.1143,-5.1036,-5.1036,-5.1036,-5.1036,-5.1036,-5.1036,-5.1036,-5.1036,-5.1036,-5.1036,-5.1036,-5.1036,-5.1036,-5.1036,-5.1036,-5.1036,-5.1036,-5.1036,-5.1036,-5.1036,-5.1036,-5.1036,-5.1036,-5.1036,-5.1036,-5.1036,-5.1036,-5.1036,-5.1036,-5.1036,-5.1036,-5.1036,-5.1036,-5.1036,-5.1036,-5.0849,-5.0768,-5.0768,-5.0875,-5.1539,-5.2756,-5.4841,-5.6776,-5.9128,-6.2218,-6.6023,-7.0255,-7.1102,-7.2401,-7.4472,-7.5099,-7.5979,-7.6857,-7.7187,-7.7187,-7.7187,-7.7187,-7.7187,-7.7187,-7.7187,-7.7344,-7.7578,-7.7578,-7.7734,-7.7969,-5.1971,-5.1971,-5.1971,-5.1944,-5.1971,-5.1971,-5.1891,-5.1944,-5.1944,-5.1891,-5.1944,-5.1944,-5.1944,-5.1971,-5.1971,-5.1971,-5.1944,-5.1944,-5.1891,-5.1891,-5.1891,-5.1944,-5.2185,-5.2345,-5.2372,-5.2639,-5.2773,-5.2773,-5.2773,-5.2773,-5.2773,-5.2505,-5.2372,-5.2372,-5.2078,-5.1971,-5.1971,-5.1971,-5.2131,-5.2372,-5.2372,-5.2532,-5.2773,-5.2773,-5.2585,-5.2345,-5.2345,-5.1971,-5.1463,-5.1437,-5.1249,-5.1036,-5.1036,-5.1036,-5.1036,-5.1036,-5.1036,-5.1036,-5.1036,-5.1036,-5.1036,-5.1036,-5.1036,-5.1036,-5.1036,-5.1036,-5.1036,-5.1036,-5.1036,-5.1036,-5.1036,-5.1036,-5.1036,-5.1036,-5.1036,-5.1036,-5.1036,-5.1036,-5.1036,-5.1036,-5.1036,-5.1036,-5.1036,-5.1036,-5.1036,-5.1036,-5.1036,-5.1036,-5.1062,-5.133,-5.1798,-5.2723,-5.3891,-5.5442,-5.6964,-5.8217,-6.1463,-6.7302,-6.8812,-7.0577,-7.214,-7.392,-7.5061,-7.5979,-7.6895,-7.7187,-7.7187,-7.7187,-7.7187,-7.7187,-7.7187,-7.7187,-7.7187,-7.7187,-7.7187,-7.7187,-5.2585,-5.2585,-5.2532,-5.2265,-5.2452,-5.2452,-5.1971,-5.2078,-5.2158,-5.1944,-5.2078,-5.2238,-5.2238,-5.2452,-5.2585,-5.2585,-5.2372,-5.2158,-5.1891,-5.1891,-5.1998,-5.2238,-5.2292,-5.2452,-5.2666,-5.2746,-5.2773,-5.2773,-5.2773,-5.2773,-5.2773,-5.2719,-5.2666,-5.2666,-5.2639,-5.2585,-5.2585,-5.2585,-5.2639,-5.2666,-5.2666,-5.2719,-5.2773,-5.2773,-5.2585,-5.2345,-5.2345,-5.1971,-5.1437,-5.1196,-5.1062,-5.1036,-5.1036,-5.1036,-5.1036,-5.1036,-5.1036,-5.1036,-5.1036,-5.1036,-5.1036,-5.1036,-5.1036,-5.1036,-5.1036,-5.1036,-5.1036,-5.1036,-5.1036,-5.1036,-5.1036,-5.1036,-5.1036,-5.1036,-5.1036,-5.1036,-5.1036,-5.1036,-5.1036,-5.1036,-5.1036,-5.1036,-5.1036,-5.1036,-5.1036,-5.1036,-5.1036,-5.1143,-5.1356,-5.1437,-5.1597,-5.2094,-5.3095,-5.3883,-5.4507,-5.6066,-5.9297,-6.3921,-6.5447,-6.7838,-7.0577,-7.2995,-7.4804,-7.5979,-7.6895,-7.7187,-7.7187,-7.7187,-7.7187,-7.7187,-7.7187,-7.7187,-7.7187,-7.7187,-7.7187,-7.7187,-5.2773,-5.2773,-5.2746,-5.2559,-5.2666,-5.2666,-5.2372,-5.2452,-5.2479,-5.2345,-5.2452,-5.2559,-5.2559,-5.2666,-5.2773,-5.2773,-5.2639,-5.2479,-5.2345,-5.2318,-5.2372,-5.2559,-5.2559,-5.2639,-5.2773,-5.2773,-5.2773,-5.2773,-5.2773,-5.2773,-5.2773,-5.2773,-5.2773,-5.2773,-5.2773,-5.2773,-5.2773,-5.2773,-5.2773,-5.2773,-5.2773,-5.2773,-5.2773,-5.2773,-5.2666,-5.2559,-5.2559,-5.2158,-5.1624,-5.1169,-5.1036,-5.1036,-5.1036,-5.1036,-5.1036,-5.1036,-5.1036,-5.1036,-5.1036,-5.1036,-5.1036,-5.1036,-5.1036,-5.1036,-5.1036,-5.1036,-5.1036,-5.1036,-5.1036,-5.1036,-5.1036,-5.1036,-5.1036,-5.1036,-5.1036,-5.1036,-5.1036,-5.1036,-5.1036,-5.1036,-5.1036,-5.1036,-5.1036,-5.1036,-5.1036,-5.1036,-5.1169,-5.133,-5.1463,-5.173,-5.1944,-5.2105,-5.2712,-5.3161,-5.3161,-5.4268,-5.5895,-5.8676,-6.1463,-6.4532,-6.7838,-7.0278,-7.2661,-7.4804,-7.6018,-7.6895,-7.7187,-7.7187,-7.7187,-7.7187,-7.7187,-7.7187,-7.7187,-7.7187,-7.7187,-7.7187,-5.2773,-5.2773,-5.2773,-5.2773,-5.2773,-5.2773,-5.2773,-5.2773,-5.2773,-5.2773,-5.2773,-5.2773,-5.2773,-5.2773,-5.2773,-5.2773,-5.2773,-5.2773,-5.2773,-5.2773,-5.2773,-5.2773,-5.2773,-5.2773,-5.2773,-5.2773,-5.2773,-5.2773,-5.2773,-5.2773,-5.2773,-5.2773,-5.2773,-5.2773,-5.2773,-5.2773,-5.2773,-5.2773,-5.2773,-5.2773,-5.2773,-5.2773,-5.2773,-5.2773,-5.2773,-5.2773,-5.2773,-5.2398,-5.1837,-5.1276,-5.1062,-5.1036,-5.1036,-5.1036,-5.1036,-5.1036,-5.1036,-5.1036,-5.1036,-5.1036,-5.1036,-5.1036,-5.1036,-5.1036,-5.1036,-5.1036,-5.1036,-5.1036,-5.1036,-5.1036,-5.1036,-5.1036,-5.1036,-5.1036,-5.1036,-5.1036,-5.1036,-5.1036,-5.1036,-5.1036,-5.1036,-5.1036,-5.1036,-5.1062,-5.1089,-5.1089,-5.1383,-5.157,-5.1624,-5.2078,-5.2372,-5.2398,-5.2666,-5.2773,-5.2773,-5.2773,-5.3089,-5.372,-5.7459,-6.1186,-6.45,-6.7268,-7.0278,-7.3587,-7.5099,-7.6272,-7.7187,-7.7187,-7.7187,-7.7187,-7.7187,-7.7187,-7.7187,-7.7187,-7.7187,-7.7187,-5.2773,-5.2773,-5.2773,-5.2773,-5.2773,-5.2773,-5.2773,-5.2773,-5.2773,-5.2773,-5.2773,-5.2773,-5.2773,-5.2773,-5.2773,-5.2773,-5.2773,-5.2773,-5.2773,-5.2773,-5.2773,-5.2773,-5.2773,-5.2773,-5.2773,-5.2773,-5.2773,-5.2773,-5.2773,-5.2773,-5.2773,-5.2773,-5.2773,-5.2773,-5.2773,-5.2773,-5.2773,-5.2773,-5.2773,-5.2773,-5.2773,-5.2773,-5.2773,-5.2773,-5.2773,-5.2773,-5.2773,-5.2398,-5.1864,-5.1517,-5.1249,-5.1036,-5.1036,-5.1036,-5.1036,-5.1036,-5.1036,-5.1036,-5.1036,-5.1036,-5.1036,-5.1036,-5.1036,-5.1036,-5.1036,-5.1036,-5.1036,-5.1036,-5.1036,-5.1036,-5.1036,-5.1036,-5.1036,-5.1036,-5.1036,-5.1036,-5.1036,-5.1036,-5.1036,-5.1036,-5.1036,-5.1036,-5.1036,-5.1249,-5.141,-5.141,-5.1677,-5.1944,-5.2185,-5.2292,-5.2452,-5.2692,-5.2746,-5.2773,-5.2773,-5.2773,-5.2773,-5.3089,-5.4323,-5.743,-6.2048,-6.5076,-6.8742,-7.2698,-7.4177,-7.5686,-7.7187,-7.7187,-7.7187,-7.7187,-7.7187,-7.7187,-7.7187,-7.7187,-7.7187,-7.7187,-5.2773,-5.2773,-5.2773,-5.2773,-5.2773,-5.2773,-5.2773,-5.2773,-5.2773,-5.2773,-5.2773,-5.2773,-5.2773,-5.2773,-5.2773,-5.2773,-5.2773,-5.2773,-5.2773,-5.2773,-5.2773,-5.2773,-5.2773,-5.2773,-5.2773,-5.2773,-5.2773,-5.2773,-5.2773,-5.2773,-5.2773,-5.2773,-5.2773,-5.2773,-5.2773,-5.2773,-5.2773,-5.2773,-5.2773,-5.2773,-5.2773,-5.2773,-5.2773,-5.2773,-5.2773,-5.2746,-5.2425,-5.2131,-5.1837,-5.1383,-5.1143,-5.1036,-5.1036,-5.1036,-5.1036,-5.1036,-5.1036,-5.1036,-5.1036,-5.1036,-5.1036,-5.1036,-5.1036,-5.1036,-5.1036,-5.1036,-5.1036,-5.1036,-5.1036,-5.1036,-5.1036,-5.1036,-5.1036,-5.1036,-5.1036,-5.1036,-5.1036,-5.1036,-5.1036,-5.1036,-5.1169,-5.1276,-5.1276,-5.1543,-5.173,-5.173,-5.1971,-5.2185,-5.2345,-5.2479,-5.2639,-5.2773,-5.2773,-5.2773,-5.2773,-5.2773,-5.2773,-5.2773,-5.3116,-5.5581,-5.9608,-6.2663,-6.6595,-7.0541,-7.2995,-7.5099,-7.6564,-7.6895,-7.7187,-7.7187,-7.7187,-7.7187,-7.7187,-7.7187,-7.7187,-7.7187]}]]